[[{"header":{"parameterUnit":"m.s-1","parameterCategory":1,"la1":31.0,"la2":29.5877,"lo1":-88.7671,"lo2":-86.6584,"dx":0.0162,"dy":0.0185,"nx":115,"ny":88,"refTime":"2023-01-07T06:00:00:Z","depth":0,"parameterNumber":2,"parameterNumberName":"U-component_of_WINDS"},"data":[0.0,0.0,0.0,0.0,0.0,0.0,0.0,0.0,0.0,0.0,0.0,0.0,0.0,0.0,0.0,0.0,0.0,0.0,0.0,0.0,0.0,0.0,0.0,0.0,0.0,0.0,0.0,0.0,0.0,0.0,0.0,0.0,0.0,0.0,0.0,0.0,0.0,0.0,0.0,0.0,0.0,0.0,0.0,0.0,0.0,0.0,0.0,0.0,0.0,0.0,0.0,0.0,0.0,0.0,0.0,0.0,0.0,0.0,0.0,0.0,0.0,0.0,0.0,0.0,0.0,0.0,0.0,0.0,0.0,0.0,0.0,0.0,0.0,0.0,0.0,0.0,0.0,0.0,0.0,0.0,0.0,0.0,0.0,0.0,0.0,0.0,0.0,0.0,0.0,0.0,0.0,0.0,0.0,0.0,0.0,0.0,0.0,0.0,0.0,0.0,0.0,0.0,0.0,0.0,0.0,0.0,0.0,0.0,0.0,0.0,0.0,0.0,0.0,0.0,0.0,0.0,0.0,0.0,0.0,0.0,0.0,0.0,0.0,0.0,0.0,0.0,0.0,0.0,0.0,0.0,0.0,0.0,0.0,0.0,0.0,0.0,0.0,0.0,0.0,0.0,0.0,0.0,0.0,0.0,0.0,0.0,0.0,0.0,0.0,0.0,0.0,0.0,0.0,0.0,0.0,0.0,0.0,0.0,0.0,0.0,0.0,0.0,0.0,0.0,0.0,0.0,0.0,0.0,0.0,0.0,0.0,0.0,0.0,0.0,0.0,0.0,0.0,0.0,0.0,0.0,0.0,0.0,0.0,0.0,0.0,0.0,0.0,0.0,0.0,0.0,0.0,0.0,0.0,0.0,0.0,0.0,0.0,0.0,0.0,0.0,0.0,0.0,0.0,0.0,0.0,0.0,0.0,0.0,0.0,0.0,0.0,0.0,0.0,0.0,0.0,0.0,0.0,0.0,0.0,0.0,0.0,0.0,0.0,0.0,0.0,0.0,0.0,0.0,0.0,0.0,0.0,0.0,0.0,0.0,0.0,0.0,0.0,0.0,0.0,0.0,0.0,0.0,0.0,0.0,0.0,0.0,0.0,0.0,0.0,0.0,0.0,0.0,0.0,0.0,0.0,0.0,0.0,0.0,0.0,0.0,0.0,0.0,0.0,0.0,0.0,0.0,0.0,0.0,0.0,0.0,0.0,0.0,0.0,0.0,0.0,0.0,0.0,0.0,0.0,0.0,0.0,0.0,0.0,0.0,0.0,0.0,0.0,0.0,0.0,0.0,0.0,0.0,0.0,0.0,0.0,0.0,0.0,0.0,0.0,0.0,0.0,0.0,0.0,0.0,0.0,0.0,0.0,0.0,0.0,0.0,0.0,0.0,0.0,0.0,0.0,0.0,0.0,0.0,0.0,0.0,0.0,0.0,0.0,0.0,0.0,0.0,0.0,0.0,0.0,0.0,0.0,0.0,0.0,0.0,0.0,0.0,0.0,0.0,0.0,0.0,0.0,0.0,0.0,0.0,0.0,0.0,0.0,0.0,0.0,0.0,0.0,0.0,0.0,0.0,0.0,0.0,0.0,0.0,0.0,0.0,0.0,0.0,0.0,0.0,0.0,0.0,0.0,0.0,0.0,0.0,0.0,0.0,0.0,0.0,0.0,0.0,0.0,0.0,0.0,0.0,0.0,0.0,0.0,0.0,0.0,0.0,0.0,0.0,0.0,0.0,0.0,0.0,0.0,0.0,0.0,0.0,0.0,0.0,0.0,0.0,0.0,0.0,0.0,0.0,0.0,0.0,0.0,0.0,0.0,0.0,0.0,0.0,0.0,0.0,0.0,0.0,0.0,0.0,0.0,0.0,0.0,0.0,0.0,0.0,0.0,0.0,0.0,0.0,0.0,0.0,0.0,0.0,0.0,0.0,0.0,0.0,0.0,0.0,0.0,0.0,0.0,0.0,0.0,0.0,0.0,0.0,0.0,0.0,0.0,0.0,0.0,0.0,0.0,0.0,0.0,0.0,0.0,0.0,0.0,0.0,0.0,0.0,0.0,0.0,0.0,0.0,0.0,0.0,0.0,0.0,0.0,0.0,0.0,0.0,0.0,0.0,0.0,0.0,0.0,0.0,0.0,0.0,0.0,0.0,0.0,0.0,0.0,0.0,0.0,0.0,0.0,0.0,0.0,0.0,0.0,0.0,0.0,0.0,0.0,0.0,0.0,0.0,0.0,0.0,0.0,0.0,0.0,0.0,0.0,0.0,0.0,0.0,0.0,0.0,0.0,0.0,0.0,0.0,0.0,0.0,0.0,0.0,0.0,0.0,0.0,0.0,0.0,0.0,0.0,0.0,0.0,0.0,0.0,0.0,0.0,0.0,0.0,0.0,0.0,0.0,0.0,0.0,0.0,0.0,0.0,0.0,0.0,0.0,0.0,0.0,0.0,0.0,0.0,0.0,0.0,0.0,0.0,0.0,0.0,0.0,0.0,0.0,0.0,0.0,0.0,0.0,0.0,0.0,0.0,0.0,0.0,0.0,0.0,0.0,0.0,0.0,0.0,0.0,0.0,0.0,0.0,0.0,0.0,0.0,0.0,0.0,0.0,0.0,0.0,0.0,0.0,0.0,0.0,0.0,0.0,0.0,0.0,0.0,0.0,0.0,0.0,0.0,0.0,0.0,0.0,0.0,0.0,0.0,0.0,0.0,0.0,0.0,0.0,0.0,0.0,0.0,0.0,0.0,0.0,0.0,0.0,0.0,0.0,0.0,0.0,0.0,0.0,0.0,0.0,0.0,0.0,0.0,0.0,0.0,0.0,0.0,0.0,0.0,0.0,0.0,0.0,0.0,0.0,0.0,0.0,0.0,0.0,0.0,0.0,0.0,0.0,0.0,0.0,0.0,0.0,0.0,0.0,0.0,0.0,0.0,0.0,0.0,0.0,0.0,0.0,0.0,0.0,0.0,0.0,0.0,0.0,0.0,0.0,0.0,0.0,0.0,0.0,0.0,0.0,0.0,0.0,0.0,0.0,0.0,0.0,0.0,0.0,0.0,0.0,0.0,0.0,0.0,0.0,0.0,0.0,0.0,0.0,0.0,0.0,0.0,0.0,0.0,0.0,0.0,0.0,0.0,0.0,0.0,0.0,0.0,0.0,0.0,0.0,0.0,0.0,0.0,0.0,0.0,0.0,0.0,0.0,0.0,0.0,0.0,0.0,0.0,0.0,0.0,0.0,0.0,0.0,0.0,0.0,0.0,0.0,0.0,0.0,0.0,0.0,0.0,0.0,0.0,0.0,0.0,0.0,0.0,0.0,0.0,0.0,0.0,0.0,0.0,0.0,0.0,0.0,0.0,0.0,0.0,0.0,0.0,0.0,0.0,0.0,0.0,0.0,0.0,0.0,0.0,0.0,0.0,0.0,0.0,0.0,0.0,0.0,0.0,0.0,0.0,0.0,0.0,0.0,0.0,0.0,0.0,0.0,0.0,0.0,0.0,0.0,0.0,0.0,0.0,0.0,0.0,0.0,0.0,0.0,0.0,0.0,0.0,0.0,0.0,0.0,0.0,0.0,0.0,0.0,0.0,0.0,0.0,0.0,0.0,0.0,0.0,0.0,0.0,0.0,0.0,0.0,0.0,0.0,0.0,0.0,0.0,0.0,0.0,0.0,0.0,0.0,0.0,0.0,0.0,0.0,0.0,0.0,0.0,0.0,0.0,0.0,0.0,0.0,0.0,0.0,0.0,0.0,0.0,0.0,0.0,0.0,0.0,0.0,0.0,0.0,0.0,0.0,0.0,0.0,0.0,0.0,0.0,0.0,0.0,0.0,0.0,0.0,0.0,0.0,0.0,0.0,0.0,0.0,0.0,0.0,0.0,0.0,0.0,0.0,0.0,0.0,0.0,0.0,0.0,0.0,0.0,0.0,0.0,0.0,0.0,0.0,0.0,0.0,0.0,0.0,0.0,0.0,0.0,0.0,0.0,0.0,0.0,0.0,0.0,0.0,0.0,0.0,0.0,0.0,0.0,0.0,0.0,0.0,0.0,0.0,0.0,0.0,0.0,0.0,0.0,0.0,0.0,0.0,0.0,0.0,0.0,0.0,0.0,0.0,0.0,0.0,0.0,0.0,0.0,0.0,0.0,0.0,0.0,0.0,0.0,0.0,0.0,0.0,0.0,0.0,0.0,0.0,0.0,0.0,0.0,0.0,0.0,0.0,0.0,0.0,0.0,0.0,0.0,0.0,0.0,0.0,0.0,0.0,0.0,-1.9286,0.0,0.0,0.0,-1.9286,0.0,0.0,0.0,0.0,0.0,0.0,0.0,0.0,0.0,0.0,0.0,0.0,0.0,0.0,0.0,0.0,0.0,0.0,0.0,0.0,0.0,0.0,0.0,0.0,0.0,0.0,0.0,0.0,0.0,0.0,0.0,0.0,0.0,0.0,0.0,0.0,0.0,0.0,0.0,0.0,0.0,0.0,0.0,0.0,0.0,0.0,0.0,0.0,0.0,0.0,0.0,0.0,0.0,0.0,0.0,0.0,0.0,0.0,0.0,0.0,0.0,0.0,0.0,0.0,0.0,0.0,0.0,0.0,0.0,0.0,0.0,0.0,0.0,0.0,0.0,0.0,0.0,0.0,0.0,0.0,0.0,0.0,0.0,0.0,0.0,0.0,0.0,0.0,0.0,0.0,0.0,0.0,0.0,0.0,0.0,0.0,0.0,0.0,0.0,0.0,0.0,0.0,0.0,0.0,0.0,0.0,0.0,0.0,0.0,0.0,-1.9286,-1.9286,-1.9286,-1.9286,-1.9286,0.0,0.0,0.0,0.0,0.0,0.0,0.0,0.0,0.0,0.0,0.0,0.0,0.0,0.0,0.0,0.0,0.0,0.0,0.0,0.0,0.0,0.0,0.0,0.0,0.0,0.0,0.0,0.0,0.0,0.0,0.0,0.0,0.0,0.0,0.0,0.0,0.0,0.0,0.0,0.0,0.0,0.0,0.0,0.0,0.0,0.0,0.0,0.0,0.0,0.0,0.0,0.0,0.0,0.0,0.0,0.0,0.0,0.0,0.0,0.0,0.0,0.0,0.0,0.0,0.0,0.0,0.0,0.0,0.0,0.0,0.0,0.0,0.0,0.0,0.0,0.0,0.0,0.0,0.0,0.0,0.0,0.0,0.0,0.0,0.0,0.0,0.0,0.0,0.0,0.0,0.0,0.0,0.0,0.0,0.0,0.0,0.0,0.0,0.0,0.0,0.0,0.0,0.0,0.0,0.0,0.0,0.0,0.0,0.0,0.0,0.0,0.0,-1.9286,-1.9198,-1.9014,0.0,0.0,0.0,0.0,0.0,0.0,0.0,0.0,0.0,0.0,0.0,0.0,0.0,0.0,0.0,0.0,0.0,0.0,0.0,0.0,0.0,0.0,0.0,0.0,0.0,0.0,0.0,0.0,0.0,0.0,0.0,0.0,0.0,0.0,0.0,0.0,0.0,0.0,0.0,0.0,0.0,0.0,0.0,0.0,0.0,0.0,0.0,0.0,0.0,0.0,0.0,0.0,0.0,0.0,0.0,0.0,0.0,0.0,0.0,0.0,0.0,0.0,0.0,0.0,0.0,0.0,0.0,0.0,0.0,0.0,0.0,0.0,0.0,0.0,0.0,0.0,0.0,0.0,0.0,0.0,0.0,0.0,0.0,0.0,0.0,0.0,0.0,0.0,0.0,0.0,0.0,0.0,0.0,0.0,0.0,0.0,0.0,0.0,0.0,0.0,0.0,0.0,0.0,0.0,0.0,0.0,0.0,0.0,0.0,0.0,-1.9286,-1.9286,-1.9286,0.0,-1.8262,0.0,0.0,0.0,0.0,0.0,0.0,0.0,0.0,0.0,0.0,0.0,0.0,0.0,0.0,0.0,0.0,0.0,0.0,0.0,0.0,0.0,0.0,0.0,0.0,0.0,0.0,0.0,0.0,0.0,0.0,0.0,0.0,0.0,0.0,0.0,0.0,0.0,0.0,0.0,0.0,0.0,0.0,0.0,0.0,0.0,0.0,0.0,0.0,0.0,0.0,0.0,0.0,0.0,0.0,0.0,0.0,0.0,0.0,0.0,0.0,0.0,0.0,0.0,0.0,0.0,0.0,0.0,0.0,0.0,0.0,0.0,0.0,0.0,0.0,0.0,0.0,0.0,0.0,0.0,0.0,0.0,0.0,0.0,0.0,0.0,0.0,0.0,0.0,0.0,0.0,0.0,0.0,0.0,0.0,0.0,0.0,0.0,0.0,0.0,0.0,0.0,0.0,0.0,0.0,0.0,0.0,0.0,0.0,0.0,0.0,-1.9286,-1.9286,-1.8849,-1.8445,0.0,0.0,0.0,0.0,0.0,0.0,0.0,0.0,0.0,0.0,0.0,0.0,0.0,0.0,0.0,0.0,0.0,0.0,0.0,0.0,0.0,0.0,0.0,0.0,0.0,0.0,0.0,0.0,0.0,0.0,0.0,0.0,0.0,0.0,0.0,0.0,0.0,0.0,0.0,0.0,0.0,0.0,0.0,0.0,0.0,0.0,0.0,0.0,0.0,0.0,0.0,0.0,0.0,0.0,0.0,0.0,0.0,0.0,0.0,0.0,0.0,0.0,0.0,0.0,0.0,0.0,0.0,0.0,0.0,0.0,0.0,0.0,0.0,0.0,0.0,0.0,0.0,0.0,0.0,0.0,0.0,0.0,0.0,0.0,0.0,0.0,0.0,0.0,0.0,0.0,0.0,0.0,0.0,0.0,0.0,0.0,0.0,0.0,0.0,0.0,0.0,0.0,0.0,0.0,0.0,0.0,0.0,0.0,0.0,0.0,-1.9286,-1.9286,-1.9268,-1.8739,-1.8225,-1.7789,0.0,0.0,0.0,0.0,0.0,0.0,0.0,0.0,0.0,0.0,0.0,0.0,0.0,0.0,0.0,0.0,0.0,0.0,0.0,0.0,0.0,0.0,0.0,0.0,0.0,0.0,0.0,0.0,0.0,0.0,0.0,0.0,0.0,0.0,0.0,0.0,0.0,0.0,0.0,0.0,0.0,0.0,0.0,0.0,0.0,0.0,0.0,0.0,0.0,0.0,0.0,0.0,0.0,0.0,0.0,0.0,0.0,0.0,0.0,0.0,0.0,0.0,0.0,0.0,0.0,0.0,0.0,0.0,0.0,0.0,0.0,0.0,0.0,0.0,0.0,0.0,0.0,0.0,0.0,0.0,0.0,0.0,0.0,0.0,0.0,0.0,0.0,0.0,0.0,0.0,0.0,0.0,0.0,0.0,0.0,0.0,0.0,0.0,0.0,0.0,0.0,0.0,0.0,0.0,0.0,0.0,0.0,0.0,-1.9286,-1.9286,-1.9286,-1.9286,-1.9253,-1.8519,0.0,0.0,0.0,0.0,0.0,0.0,0.0,0.0,0.0,0.0,0.0,0.0,0.0,0.0,0.0,0.0,0.0,0.0,0.0,0.0,0.0,0.0,0.0,0.0,0.0,0.0,0.0,0.0,0.0,0.0,0.0,0.0,0.0,0.0,0.0,0.0,0.0,0.0,0.0,0.0,0.0,0.0,0.0,0.0,0.0,0.0,0.0,0.0,0.0,0.0,0.0,0.0,0.0,0.0,0.0,0.0,0.0,0.0,0.0,0.0,0.0,0.0,0.0,0.0,0.0,0.0,0.0,0.0,0.0,0.0,0.0,0.0,0.0,0.0,0.0,0.0,0.0,0.0,0.0,0.0,0.0,0.0,0.0,0.0,0.0,0.0,0.0,0.0,0.0,0.0,0.0,0.0,0.0,0.0,0.0,0.0,0.0,0.0,0.0,0.0,0.0,0.0,0.0,0.0,0.0,0.0,0.0,0.0,0.0,-1.9338,-1.9323,-1.9286,-1.9268,-1.8317,-1.7477,0.0,0.0,0.0,0.0,0.0,0.0,0.0,0.0,0.0,0.0,0.0,0.0,0.0,0.0,0.0,0.0,0.0,0.0,0.0,0.0,0.0,0.0,0.0,0.0,0.0,0.0,0.0,0.0,0.0,0.0,0.0,0.0,0.0,0.0,0.0,0.0,0.0,0.0,0.0,0.0,0.0,0.0,0.0,0.0,0.0,0.0,0.0,0.0,0.0,0.0,0.0,0.0,0.0,0.0,0.0,0.0,0.0,0.0,0.0,0.0,0.0,0.0,0.0,0.0,0.0,0.0,0.0,0.0,0.0,0.0,0.0,0.0,0.0,0.0,0.0,0.0,0.0,0.0,0.0,0.0,0.0,0.0,0.0,0.0,0.0,0.0,0.0,0.0,0.0,0.0,0.0,0.0,0.0,0.0,0.0,0.0,0.0,0.0,0.0,0.0,0.0,0.0,0.0,0.0,0.0,0.0,0.0,0.0,0.0,-1.942,-1.9387,-1.9338,-1.9286,-1.8276,-1.7472,0.0,0.0,0.0,0.0,0.0,0.0,0.0,0.0,0.0,0.0,0.0,0.0,0.0,0.0,0.0,0.0,0.0,0.0,0.0,0.0,0.0,0.0,0.0,0.0,0.0,0.0,0.0,0.0,0.0,0.0,0.0,0.0,0.0,0.0,0.0,0.0,0.0,0.0,0.0,0.0,0.0,0.0,0.0,0.0,0.0,0.0,0.0,0.0,0.0,0.0,0.0,0.0,0.0,0.0,0.0,0.0,0.0,0.0,0.0,0.0,0.0,0.0,0.0,0.0,0.0,0.0,0.0,0.0,0.0,0.0,0.0,0.0,0.0,0.0,0.0,0.0,0.0,0.0,0.0,0.0,0.0,0.0,0.0,0.0,0.0,0.0,0.0,0.0,0.0,0.0,0.0,0.0,0.0,0.0,0.0,0.0,0.0,0.0,0.0,0.0,0.0,0.0,0.0,0.0,0.0,0.0,0.0,0.0,-1.9555,-1.9497,-1.9501,-1.945,-1.9424,-1.9298,-1.8548,0.0,0.0,0.0,0.0,0.0,0.0,0.0,0.0,0.0,0.0,0.0,0.0,0.0,0.0,0.0,0.0,0.0,0.0,0.0,0.0,0.0,0.0,0.0,0.0,0.0,0.0,0.0,0.0,0.0,0.0,0.0,0.0,0.0,0.0,0.0,0.0,0.0,0.0,0.0,0.0,0.0,0.0,0.0,0.0,0.0,0.0,0.0,0.0,0.0,0.0,0.0,0.0,0.0,0.0,0.0,0.0,0.0,0.0,0.0,0.0,0.0,0.0,0.0,0.0,0.0,0.0,0.0,0.0,0.0,0.0,0.0,0.0,0.0,0.0,0.0,0.0,0.0,0.0,0.0,0.0,0.0,0.0,0.0,0.0,0.0,0.0,0.0,0.0,0.0,0.0,0.0,0.0,0.0,0.0,0.0,0.0,0.0,0.0,0.0,0.0,0.0,0.0,0.0,0.0,0.0,0.0,0.0,0.0,0.0,-1.9504,-1.9508,-1.9512,-1.945,-1.8882,-1.8103,0.0,0.0,0.0,0.0,0.0,0.0,0.0,0.0,0.0,0.0,0.0,0.0,0.0,0.0,0.0,0.0,0.0,0.0,0.0,0.0,0.0,0.0,0.0,0.0,0.0,0.0,0.0,0.0,0.0,0.0,0.0,0.0,0.0,0.0,0.0,0.0,0.0,0.0,0.0,0.0,0.0,0.0,0.0,0.0,0.0,0.0,0.0,0.0,0.0,0.0,0.0,0.0,0.0,0.0,0.0,0.0,0.0,0.0,0.0,0.0,0.0,0.0,0.0,0.0,0.0,0.0,0.0,0.0,0.0,0.0,0.0,0.0,0.0,0.0,0.0,0.0,0.0,0.0,0.0,0.0,0.0,0.0,0.0,0.0,0.0,0.0,0.0,0.0,0.0,0.0,0.0,0.0,0.0,0.0,0.0,0.0,0.0,0.0,0.0,0.0,0.0,0.0,0.0,0.0,0.0,0.0,0.0,0.0,0.0,-2.002,-1.9996,-1.9967,-1.9941,-1.9423,-1.8476,-1.717,0.0,0.0,0.0,0.0,0.0,0.0,0.0,0.0,0.0,0.0,0.0,0.0,0.0,0.0,0.0,0.0,0.0,0.0,0.0,0.0,0.0,0.0,0.0,0.0,0.0,0.0,0.0,0.0,0.0,0.0,0.0,0.0,0.0,0.0,0.0,0.0,0.0,0.0,0.0,0.0,0.0,0.0,0.0,0.0,0.0,0.0,0.0,0.0,0.0,0.0,0.0,0.0,0.0,0.0,0.0,0.0,0.0,0.0,0.0,0.0,0.0,0.0,0.0,0.0,0.0,0.0,0.0,0.0,0.0,0.0,0.0,0.0,0.0,0.0,0.0,0.0,0.0,0.0,0.0,0.0,0.0,0.0,0.0,0.0,0.0,0.0,0.0,0.0,0.0,0.0,0.0,0.0,0.0,0.0,0.0,0.0,0.0,0.0,0.0,0.0,0.0,0.0,0.0,0.0,0.0,0.0,0.0,0.0,-2.0994,-2.0993,-2.0901,-2.0751,-2.0726,-1.9606,0.0,0.0,0.0,0.0,0.0,0.0,0.0,0.0,0.0,0.0,0.0,0.0,0.0,0.0,0.0,0.0,0.0,0.0,0.0,0.0,0.0,0.0,0.0,0.0,0.0,0.0,0.0,0.0,0.0,0.0,0.0,0.0,0.0,0.0,0.0,0.0,0.0,0.0,0.0,0.0,0.0,0.0,0.0,0.0,0.0,0.0,0.0,0.0,0.0,0.0,0.0,0.0,0.0,0.0,0.0,0.0,0.0,0.0,0.0,0.0,0.0,0.0,0.0,0.0,0.0,0.0,0.0,0.0,0.0,0.0,0.0,0.0,0.0,0.0,0.0,0.0,0.0,0.0,0.0,0.0,0.0,0.0,0.0,0.0,0.0,0.0,0.0,0.0,0.0,0.0,0.0,0.0,0.0,0.0,0.0,0.0,0.0,0.0,0.0,0.0,0.0,0.0,0.0,0.0,0.0,0.0,0.0,0.0,0.0,-2.2004,-2.2633,-2.2501,-2.1623,-2.1213,-2.0076,0.0,0.0,0.0,0.0,0.0,0.0,0.0,0.0,0.0,0.0,0.0,0.0,0.0,0.0,0.0,0.0,0.0,0.0,0.0,0.0,0.0,0.0,0.0,0.0,0.0,0.0,0.0,0.0,0.0,0.0,0.0,0.0,0.0,0.0,0.0,0.0,0.0,0.0,0.0,0.0,0.0,0.0,0.0,0.0,0.0,0.0,0.0,0.0,0.0,0.0,0.0,0.0,0.0,0.0,0.0,0.0,0.0,0.0,0.0,0.0,0.0,0.0,0.0,0.0,0.0,0.0,0.0,0.0,0.0,0.0,0.0,0.0,0.0,0.0,0.0,0.0,0.0,0.0,0.0,0.0,0.0,0.0,0.0,0.0,0.0,0.0,0.0,0.0,0.0,0.0,0.0,0.0,0.0,0.0,0.0,0.0,0.0,0.0,0.0,0.0,0.0,0.0,0.0,0.0,0.0,0.0,0.0,0.0,-2.2223,-2.2931,-2.3895,-2.4138,-2.3649,-2.2313,-2.0621,0.0,0.0,0.0,0.0,0.0,0.0,0.0,0.0,0.0,0.0,0.0,0.0,0.0,0.0,0.0,0.0,0.0,0.0,0.0,0.0,0.0,0.0,0.0,0.0,0.0,0.0,0.0,0.0,0.0,0.0,0.0,0.0,0.0,0.0,0.0,0.0,0.0,0.0,0.0,0.0,0.0,0.0,0.0,0.0,0.0,0.0,0.0,0.0,0.0,0.0,0.0,0.0,0.0,0.0,0.0,0.0,0.0,0.0,0.0,0.0,0.0,0.0,0.0,0.0,0.0,0.0,0.0,0.0,0.0,0.0,0.0,0.0,0.0,0.0,0.0,0.0,0.0,0.0,0.0,0.0,0.0,0.0,0.0,0.0,0.0,0.0,0.0,0.0,0.0,0.0,0.0,0.0,0.0,0.0,0.0,0.0,0.0,0.0,0.0,0.0,0.0,0.0,0.0,0.0,0.0,0.0,0.0,0.0,-2.308,-2.3872,-2.4903,-2.5608,-2.5943,-2.3628,-2.1211,0.0,0.0,0.0,0.0,0.0,0.0,0.0,0.0,0.0,0.0,0.0,0.0,0.0,0.0,0.0,0.0,0.0,0.0,0.0,0.0,0.0,0.0,0.0,0.0,0.0,0.0,0.0,0.0,0.0,0.0,0.0,0.0,0.0,0.0,0.0,0.0,0.0,0.0,0.0,0.0,0.0,0.0,0.0,0.0,0.0,0.0,0.0,0.0,0.0,0.0,0.0,0.0,0.0,0.0,0.0,0.0,0.0,0.0,0.0,0.0,0.0,0.0,0.0,0.0,0.0,0.0,0.0,0.0,0.0,0.0,0.0,0.0,0.0,0.0,0.0,0.0,0.0,0.0,0.0,0.0,0.0,0.0,0.0,0.0,0.0,0.0,0.0,0.0,0.0,0.0,0.0,0.0,0.0,0.0,0.0,0.0,0.0,0.0,0.0,0.0,0.0,0.0,0.0,0.0,0.0,0.0,0.0,0.0,-2.3487,-2.4924,-2.584,-2.6285,-2.6218,-2.3843,-2.1912,0.0,0.0,0.0,0.0,0.0,0.0,0.0,0.0,0.0,0.0,0.0,0.0,0.0,0.0,0.0,0.0,0.0,0.0,0.0,0.0,0.0,0.0,0.0,0.0,0.0,0.0,0.0,0.0,0.0,0.0,0.0,0.0,0.0,0.0,0.0,0.0,0.0,0.0,0.0,0.0,0.0,0.0,0.0,0.0,0.0,0.0,0.0,0.0,-1.7056,0.0,0.0,0.0,0.0,0.0,0.0,0.0,0.0,0.0,0.0,0.0,0.0,0.0,0.0,0.0,0.0,0.0,0.0,0.0,0.0,0.0,0.0,0.0,0.0,0.0,0.0,0.0,0.0,0.0,0.0,0.0,0.0,0.0,0.0,0.0,0.0,0.0,0.0,0.0,0.0,0.0,0.0,0.0,0.0,0.0,0.0,0.0,0.0,0.0,0.0,0.0,0.0,0.0,0.0,0.0,0.0,0.0,0.0,0.0,-2.3813,-2.584,-2.636,-2.6743,-2.6952,-2.4979,-2.2991,0.0,0.0,0.0,0.0,0.0,0.0,0.0,0.0,0.0,0.0,0.0,0.0,0.0,0.0,0.0,0.0,0.0,0.0,0.0,0.0,0.0,0.0,0.0,0.0,0.0,0.0,0.0,0.0,0.0,0.0,0.0,0.0,0.0,0.0,0.0,0.0,0.0,0.0,0.0,0.0,0.0,0.0,0.0,0.0,0.0,0.0,0.0,0.0,0.0,0.0,0.0,0.0,0.0,0.0,0.0,0.0,0.0,0.0,0.0,0.0,0.0,0.0,0.0,0.0,0.0,0.0,0.0,0.0,0.0,0.0,0.0,0.0,0.0,0.0,0.0,0.0,0.0,0.0,0.0,0.0,0.0,0.0,0.0,0.0,0.0,0.0,0.0,0.0,0.0,0.0,0.0,0.0,0.0,0.0,0.0,0.0,0.0,0.0,0.0,0.0,0.0,0.0,0.0,0.0,0.0,0.0,0.0,-2.2087,-2.4101,-2.6647,-2.6802,-2.7159,-2.7852,-2.6299,-2.4124,-2.1342,0.0,0.0,0.0,0.0,0.0,0.0,0.0,0.0,0.0,0.0,0.0,0.0,0.0,0.0,0.0,0.0,0.0,0.0,0.0,0.0,0.0,0.0,0.0,0.0,0.0,0.0,0.0,0.0,0.0,0.0,0.0,0.0,0.0,0.0,0.0,0.0,0.0,0.0,-1.6609,-1.734,0.0,0.0,0.0,0.0,0.0,0.0,0.0,0.0,-1.7226,0.0,0.0,0.0,0.0,0.0,0.0,0.0,0.0,0.0,0.0,0.0,0.0,0.0,0.0,0.0,0.0,0.0,0.0,0.0,0.0,0.0,0.0,0.0,0.0,0.0,0.0,0.0,0.0,0.0,0.0,0.0,0.0,0.0,0.0,0.0,0.0,0.0,0.0,0.0,0.0,0.0,0.0,0.0,0.0,0.0,0.0,0.0,0.0,0.0,0.0,0.0,0.0,0.0,0.0,0.0,0.0,-2.2416,-2.2694,-2.4398,-2.7582,-2.7698,-2.7755,-2.7871,-2.6768,-2.4675,-2.1617,0.0,0.0,0.0,0.0,0.0,0.0,0.0,0.0,0.0,0.0,0.0,0.0,0.0,0.0,0.0,0.0,0.0,0.0,0.0,0.0,0.0,0.0,0.0,0.0,0.0,0.0,0.0,0.0,0.0,0.0,0.0,0.0,0.0,0.0,0.0,0.0,0.0,0.0,0.0,-1.8831,-1.9357,0.0,0.0,0.0,0.0,0.0,0.0,0.0,0.0,-1.7969,0.0,0.0,0.0,0.0,0.0,0.0,0.0,0.0,0.0,0.0,0.0,0.0,0.0,0.0,0.0,0.0,0.0,0.0,0.0,0.0,0.0,0.0,0.0,0.0,0.0,0.0,0.0,0.0,0.0,0.0,0.0,0.0,0.0,0.0,0.0,0.0,0.0,0.0,0.0,0.0,0.0,0.0,0.0,0.0,0.0,0.0,0.0,0.0,0.0,0.0,0.0,0.0,0.0,0.0,0.0,-2.2753,-2.3713,-2.5361,-2.7794,-2.789,-2.789,-2.7871,-2.6549,-2.4465,0.0,0.0,0.0,0.0,0.0,0.0,0.0,0.0,0.0,0.0,0.0,0.0,0.0,0.0,0.0,0.0,0.0,0.0,0.0,0.0,0.0,0.0,0.0,0.0,0.0,0.0,0.0,0.0,0.0,0.0,0.0,0.0,0.0,0.0,0.0,0.0,0.0,0.0,0.0,0.0,-1.9048,-1.9582,-1.9592,0.0,0.0,0.0,0.0,0.0,0.0,-1.967,-1.866,0.0,0.0,0.0,0.0,0.0,0.0,0.0,0.0,0.0,0.0,0.0,0.0,0.0,0.0,0.0,0.0,0.0,0.0,0.0,0.0,0.0,0.0,0.0,0.0,0.0,0.0,0.0,0.0,0.0,0.0,0.0,0.0,0.0,0.0,0.0,0.0,0.0,0.0,0.0,0.0,0.0,0.0,0.0,0.0,0.0,0.0,0.0,0.0,0.0,0.0,0.0,0.0,0.0,0.0,0.0,-2.2858,-2.4411,-2.6088,-2.7837,-2.7923,-2.7932,-2.7903,-2.6294,-2.4109,0.0,0.0,0.0,0.0,0.0,0.0,0.0,0.0,0.0,0.0,0.0,0.0,0.0,0.0,0.0,0.0,0.0,0.0,0.0,0.0,0.0,0.0,0.0,0.0,0.0,0.0,0.0,0.0,0.0,0.0,0.0,0.0,0.0,0.0,0.0,0.0,0.0,0.0,0.0,0.0,0.0,-1.9431,-1.939,-1.936,0.0,0.0,0.0,0.0,-2.0751,-2.0235,0.0,0.0,0.0,0.0,0.0,0.0,0.0,0.0,0.0,0.0,0.0,0.0,0.0,0.0,0.0,0.0,0.0,0.0,0.0,0.0,0.0,0.0,0.0,0.0,0.0,0.0,0.0,0.0,0.0,0.0,0.0,0.0,0.0,0.0,0.0,0.0,0.0,0.0,0.0,0.0,0.0,0.0,0.0,0.0,0.0,0.0,0.0,0.0,0.0,0.0,0.0,0.0,0.0,0.0,0.0,0.0,-2.2923,-2.3926,-2.5625,-2.7931,-2.8016,-2.7976,-2.7973,-2.6302,-2.3829,0.0,0.0,0.0,0.0,0.0,0.0,0.0,0.0,0.0,0.0,0.0,0.0,0.0,0.0,0.0,0.0,0.0,0.0,0.0,0.0,0.0,0.0,0.0,0.0,0.0,0.0,0.0,0.0,0.0,0.0,0.0,0.0,0.0,0.0,0.0,0.0,0.0,0.0,0.0,0.0,0.0,-1.9332,-1.9316,-1.9198,-1.9097,0.0,0.0,-2.1028,-2.1278,-2.145,0.0,0.0,0.0,0.0,0.0,0.0,0.0,0.0,0.0,0.0,0.0,0.0,0.0,0.0,0.0,0.0,0.0,0.0,0.0,0.0,0.0,0.0,0.0,0.0,0.0,0.0,0.0,0.0,0.0,0.0,0.0,0.0,0.0,0.0,0.0,0.0,0.0,0.0,0.0,0.0,0.0,0.0,0.0,0.0,0.0,0.0,0.0,0.0,0.0,0.0,0.0,0.0,0.0,0.0,0.0,-2.0898,-2.2983,-2.479,-2.6486,-2.8032,-2.8074,-2.8034,-2.8008,-2.5904,-2.3372,0.0,0.0,0.0,0.0,0.0,0.0,0.0,0.0,0.0,0.0,0.0,0.0,0.0,0.0,0.0,0.0,0.0,0.0,0.0,0.0,0.0,0.0,0.0,0.0,0.0,0.0,0.0,0.0,0.0,0.0,0.0,0.0,0.0,0.0,0.0,0.0,0.0,0.0,0.0,0.0,0.0,0.0,-1.9415,-1.9357,0.0,0.0,0.0,-2.0978,-2.1396,0.0,0.0,0.0,0.0,0.0,0.0,0.0,0.0,0.0,0.0,0.0,0.0,0.0,0.0,0.0,0.0,0.0,0.0,0.0,0.0,0.0,0.0,0.0,0.0,0.0,0.0,0.0,0.0,0.0,0.0,0.0,0.0,0.0,0.0,0.0,0.0,0.0,0.0,0.0,0.0,0.0,0.0,0.0,0.0,0.0,0.0,0.0,0.0,0.0,0.0,0.0,0.0,0.0,0.0,0.0,0.0,0.0,-2.2984,-2.5499,-2.7237,-2.8056,-2.8291,-2.8262,-2.8001,-2.6009,0.0,0.0,0.0,0.0,0.0,0.0,0.0,0.0,0.0,0.0,0.0,0.0,0.0,0.0,0.0,0.0,0.0,0.0,0.0,0.0,0.0,0.0,0.0,0.0,0.0,0.0,0.0,-1.4785,0.0,0.0,0.0,0.0,0.0,0.0,0.0,0.0,0.0,0.0,0.0,0.0,0.0,0.0,-1.9247,-1.9247,-1.9394,-1.9671,0.0,0.0,-2.0742,-2.1139,-2.1177,-2.0629,0.0,0.0,0.0,0.0,0.0,0.0,0.0,0.0,0.0,0.0,0.0,0.0,0.0,0.0,0.0,0.0,0.0,0.0,0.0,0.0,0.0,0.0,0.0,0.0,0.0,0.0,0.0,0.0,0.0,0.0,0.0,0.0,0.0,0.0,0.0,0.0,0.0,0.0,0.0,0.0,0.0,0.0,0.0,0.0,0.0,0.0,0.0,0.0,0.0,0.0,0.0,0.0,0.0,0.0,0.0,-2.2931,-2.5469,-2.722,-2.8087,-2.8841,-2.8847,-2.8105,-2.7131,-2.5048,0.0,0.0,0.0,0.0,0.0,0.0,0.0,0.0,0.0,0.0,0.0,0.0,0.0,0.0,0.0,0.0,0.0,0.0,0.0,0.0,0.0,0.0,0.0,0.0,0.0,0.0,0.0,0.0,0.0,0.0,0.0,0.0,0.0,0.0,0.0,0.0,0.0,0.0,0.0,0.0,0.0,-1.8574,-1.8574,-1.9136,-1.951,0.0,0.0,-2.0352,-2.0461,-2.0782,-2.0569,-1.93,0.0,0.0,0.0,0.0,0.0,0.0,0.0,0.0,0.0,0.0,0.0,0.0,0.0,0.0,0.0,0.0,0.0,0.0,0.0,0.0,0.0,0.0,0.0,0.0,0.0,0.0,0.0,0.0,0.0,0.0,0.0,0.0,0.0,0.0,0.0,0.0,0.0,0.0,0.0,0.0,0.0,0.0,0.0,0.0,0.0,0.0,0.0,0.0,0.0,0.0,0.0,0.0,0.0,-2.1133,-2.285,-2.5465,-2.721,-2.8076,-2.8879,-2.8909,-2.8073,-2.7265,-2.5214,0.0,0.0,0.0,0.0,0.0,0.0,0.0,0.0,0.0,0.0,0.0,0.0,0.0,0.0,0.0,0.0,0.0,0.0,0.0,0.0,0.0,0.0,0.0,0.0,0.0,0.0,0.0,0.0,-1.5435,-1.5065,-1.407,0.0,0.0,0.0,0.0,0.0,0.0,0.0,0.0,0.0,0.0,-1.8527,-1.8765,-1.9338,0.0,0.0,-2.0414,-2.0575,-2.0479,-2.0774,-2.0382,-1.8609,-1.7304,0.0,0.0,0.0,0.0,0.0,0.0,0.0,0.0,0.0,0.0,0.0,0.0,0.0,0.0,0.0,0.0,0.0,0.0,0.0,0.0,0.0,0.0,0.0,0.0,0.0,0.0,0.0,0.0,0.0,0.0,0.0,0.0,0.0,0.0,0.0,0.0,0.0,0.0,0.0,0.0,0.0,0.0,0.0,0.0,0.0,0.0,0.0,0.0,0.0,0.0,0.0,0.0,-2.0905,-2.2603,-2.5464,-2.7215,-2.7832,-2.8902,-2.9074,-2.8285,-2.7541,-2.5769,0.0,0.0,0.0,0.0,0.0,0.0,0.0,0.0,0.0,0.0,0.0,0.0,0.0,0.0,0.0,0.0,0.0,0.0,0.0,0.0,0.0,0.0,0.0,0.0,0.0,0.0,0.0,0.0,-1.5052,-1.4492,-1.3531,0.0,0.0,0.0,0.0,0.0,0.0,0.0,0.0,0.0,0.0,-1.8203,-1.8663,-1.9106,-1.9507,-1.9928,-2.0058,-2.0024,-1.9798,-1.9937,-1.9443,-1.7577,0.0,0.0,0.0,0.0,0.0,0.0,0.0,0.0,0.0,0.0,0.0,0.0,0.0,0.0,0.0,0.0,0.0,0.0,0.0,0.0,0.0,0.0,0.0,0.0,0.0,0.0,0.0,0.0,0.0,0.0,-1.6421,0.0,0.0,0.0,0.0,0.0,0.0,0.0,0.0,0.0,0.0,0.0,0.0,0.0,0.0,0.0,0.0,0.0,0.0,0.0,0.0,0.0,0.0,-2.0489,-2.2238,-2.5488,-2.7198,-2.7255,-2.8893,-2.948,-2.8868,-2.8097,-2.6958,-2.5379,0.0,0.0,0.0,0.0,0.0,0.0,0.0,0.0,0.0,0.0,0.0,0.0,0.0,0.0,0.0,0.0,0.0,0.0,0.0,0.0,0.0,0.0,0.0,0.0,0.0,0.0,-1.3359,-1.3243,-1.3219,0.0,0.0,0.0,0.0,0.0,0.0,0.0,0.0,0.0,0.0,-1.678,-1.7425,-1.8007,-1.8313,-1.8363,-1.8196,-1.8327,-1.8366,-1.8171,-1.8066,-1.753,0.0,0.0,0.0,0.0,0.0,0.0,0.0,0.0,0.0,0.0,0.0,0.0,0.0,0.0,0.0,0.0,0.0,0.0,0.0,0.0,0.0,0.0,0.0,0.0,0.0,0.0,0.0,-1.9906,-1.9821,0.0,0.0,0.0,0.0,0.0,0.0,0.0,0.0,0.0,0.0,0.0,-2.3382,-2.3367,0.0,0.0,0.0,0.0,0.0,0.0,0.0,0.0,0.0,0.0,0.0,0.0,-2.0788,-2.2443,-2.5116,-2.6765,-2.7281,-2.8615,-2.8968,-2.8267,-2.8409,-2.7566,-2.5564,0.0,0.0,0.0,0.0,0.0,0.0,0.0,0.0,0.0,0.0,0.0,0.0,0.0,0.0,0.0,0.0,0.0,0.0,0.0,0.0,0.0,0.0,0.0,0.0,0.0,-1.4951,0.0,0.0,0.0,0.0,0.0,0.0,0.0,0.0,0.0,0.0,0.0,-1.4525,-1.5045,-1.5747,-1.6361,-1.6699,-1.7109,-1.7301,0.0,0.0,0.0,0.0,0.0,0.0,0.0,0.0,0.0,0.0,0.0,0.0,0.0,0.0,-1.1526,-1.2312,-1.281,-1.3122,-1.3031,0.0,0.0,0.0,0.0,0.0,0.0,0.0,0.0,0.0,0.0,0.0,0.0,0.0,0.0,-2.2046,0.0,-2.1202,0.0,0.0,0.0,0.0,0.0,0.0,0.0,0.0,-2.4332,-2.4838,-2.4908,-2.5164,-2.4869,0.0,-2.3274,-2.2044,0.0,0.0,0.0,0.0,0.0,0.0,0.0,0.0,-2.0816,-2.2608,-2.4802,-2.6336,-2.7085,-2.8122,-2.8448,-2.8021,-2.8359,-2.7676,-2.5764,-2.3812,-2.2182,0.0,0.0,0.0,0.0,0.0,0.0,0.0,0.0,0.0,0.0,0.0,0.0,0.0,0.0,0.0,0.0,0.0,0.0,0.0,0.0,0.0,0.0,0.0,-1.4985,0.0,0.0,0.0,0.0,0.0,0.0,0.0,0.0,0.0,-1.2812,-1.3486,-1.4113,-1.4618,-1.4975,-1.5293,-1.5527,0.0,0.0,0.0,0.0,0.0,0.0,0.0,-1.5013,-1.377,-1.3635,-1.3616,-1.3428,-1.287,-1.2273,-1.1533,0.0,0.0,-1.2197,-1.268,-1.304,-1.2946,-1.3163,-1.3182,-1.2466,-1.2118,-1.1792,0.0,0.0,0.0,0.0,0.0,0.0,0.0,0.0,-2.452,-2.4058,0.0,-2.3245,0.0,0.0,0.0,0.0,0.0,-2.356,0.0,0.0,-2.6743,-2.6879,-2.5811,-2.6534,-2.6419,-2.5491,-2.4294,-2.3831,-2.4016,-2.1908,0.0,0.0,0.0,0.0,0.0,0.0,-2.0576,-2.2781,-2.4559,-2.5826,-2.6627,-2.7423,-2.7931,-2.8116,-2.7919,-2.7232,-2.61,-2.5297,-2.4119,-2.2329,-2.0577,0.0,0.0,0.0,0.0,0.0,0.0,0.0,0.0,0.0,0.0,0.0,0.0,0.0,0.0,0.0,0.0,0.0,0.0,0.0,0.0,-1.4722,0.0,0.0,0.0,0.0,0.0,0.0,0.0,0.0,0.0,0.0,-1.2679,-1.3227,-1.3801,-1.4553,0.0,0.0,0.0,0.0,-1.3601,-1.3087,-1.2849,-1.2801,-1.2743,-1.278,-1.2604,-1.2012,0.0,0.0,-1.2407,-1.1895,-1.1602,-1.1663,-1.1535,-1.1407,-1.1104,-1.1567,-1.1947,-1.192,-1.2238,-1.2287,-1.1969,-1.1817,-1.1621,-2.5405,0.0,0.0,0.0,0.0,-2.4269,-2.4978,-2.6032,-2.6069,-2.5925,-2.565,-2.5093,0.0,0.0,0.0,0.0,0.0,0.0,-2.501,-2.6312,-2.7263,-2.7798,-2.8032,-2.8818,-2.827,-2.6596,-2.6441,-2.5728,-2.4428,-2.4067,-2.2656,-2.0296,0.0,0.0,0.0,0.0,-2.1387,-2.2883,-2.395,-2.4858,-2.5603,-2.6133,-2.6631,-2.711,-2.6468,-2.5829,-2.5183,-2.4636,-2.3596,-2.1931,-2.1062,0.0,0.0,0.0,0.0,0.0,0.0,0.0,0.0,0.0,0.0,0.0,0.0,0.0,0.0,0.0,0.0,0.0,0.0,0.0,-1.5162,-1.4722,-1.4073,0.0,0.0,0.0,0.0,0.0,0.0,0.0,0.0,0.0,-1.0452,-1.1376,-1.2087,0.0,0.0,-1.2288,-1.2153,-1.1697,-1.1163,-1.0714,0.0,0.0,0.0,-1.0289,-1.0506,-1.0308,-1.1129,-1.1567,-1.1138,-1.1422,-1.1571,-1.1226,-1.1347,-1.1424,-1.1375,-1.1943,-1.2519,-1.2808,-1.3137,-1.3194,-1.2646,-1.2398,-1.2163,-2.7267,-2.649,-2.5183,-2.4944,-2.5447,-2.5224,-2.5799,-2.6836,-2.6899,-2.6596,-2.5999,-2.6167,-2.5403,-2.4018,-2.3476,0.0,0.0,0.0,-2.5562,-2.6716,-2.7459,-2.7946,-2.8305,-2.873,-2.8317,-2.7121,-2.7114,-2.6324,-2.4782,-2.45,-2.3365,-2.1438,0.0,0.0,-2.0703,-2.0856,-2.1619,-2.2901,-2.3431,-2.4058,-2.476,-2.5277,-2.5681,-2.5933,-2.5679,-2.5244,-2.4603,-2.462,-2.3857,-2.2252,-2.1598,-2.0547,0.0,0.0,0.0,0.0,0.0,0.0,0.0,0.0,0.0,0.0,0.0,-1.3937,0.0,0.0,0.0,0.0,-1.468,-1.5132,-1.5259,-1.4714,0.0,0.0,0.0,0.0,0.0,0.0,0.0,-0.8735,-0.8909,-0.8985,-0.8664,-0.9327,-1.0002,-1.0431,-1.0516,-1.0401,-1.0021,0.0,-0.9425,-0.8902,-0.8494,-0.8221,-0.8172,-0.849,-0.8732,-0.8794,-0.923,-0.9559,-0.9408,-0.9826,-1.0085,-0.9994,-1.0054,-1.0263,-1.0359,-1.0844,-1.1397,-1.1758,-1.1773,-1.156,-1.1109,-1.0972,-1.0867,-2.8727,-2.8042,-2.6224,-2.5924,-2.6621,-2.6086,-2.6336,-2.7115,-2.7215,-2.6467,-2.5212,-2.6652,-2.5976,-2.3813,-2.3675,0.0,-2.499,-2.5478,-2.6008,-2.6564,-2.7273,-2.7396,-2.7121,-2.711,-2.7051,-2.6961,-2.6377,-2.5695,-2.477,-2.354,-2.251,-2.1758,-2.2339,-2.2192,-2.1387,-2.0948,-2.1392,-2.2692,-2.2838,-2.3178,-2.3814,-2.4467,-2.4697,-2.4492,-2.5115,-2.498,-2.4016,-2.4661,-2.4343,-2.2781,-2.1974,-2.113,-2.0078,0.0,0.0,0.0,0.0,0.0,0.0,0.0,0.0,0.0,0.0,0.0,0.0,0.0,0.0,0.0,-1.4545,0.0,-1.5271,-1.4403,0.0,0.0,0.0,-0.9551,-0.9297,-0.8349,-0.766,-0.7437,0.0,0.0,-0.7176,-0.7267,-0.7825,-0.8955,-0.8865,-0.8589,-0.8091,-0.8203,-0.8094,-0.7452,-0.7215,-0.7101,-0.7067,-0.728,-0.7451,-0.7568,-0.7249,-0.737,-0.7583,-0.7777,-0.7931,-0.83,-0.8374,-0.8588,-0.886,-0.8947,-0.8902,-0.9628,-0.9179,-0.8609,-0.87,-0.8776,-0.8832,-2.7616,-2.7413,-2.6942,-2.7005,-2.7424,-2.7296,-2.7202,-2.7192,-2.7235,-2.7001,-2.6687,-2.7074,-2.6881,-2.6286,-2.567,-2.5519,-2.5743,-2.5293,-2.5195,-2.5363,-2.6138,-2.6442,-2.6363,-2.6232,-2.5731,-2.4755,-2.3965,-2.2987,-2.1865,-2.151,-2.1236,-2.1081,-2.1185,-2.1191,-2.1112,-2.0912,-2.0929,-2.1123,-2.117,-2.1009,-2.066,-2.1335,-2.1676,-2.1634,-2.2314,-2.2337,-2.1672,-2.2073,-2.1914,-2.1063,-2.0719,-2.0152,-1.9176,-1.7243,0.0,0.0,0.0,0.0,0.0,0.0,0.0,0.0,0.0,-1.3607,-1.3608,0.0,-1.3692,0.0,-1.4047,-1.3828,-1.3184,-1.2186,0.0,0.0,-0.9351,-0.8415,-0.8262,-0.8013,-0.7617,-0.6924,-0.7021,-0.6872,-0.6274,-0.6165,-0.6209,-0.6392,-0.7157,-0.7598,-0.7363,-0.6885,-0.6513,-0.6237,-0.5824,-0.5453,-0.5586,-0.5965,-0.6554,-0.7075,-0.7101,-0.7195,-0.7469,-0.7827,-0.816,-0.8453,-0.8804,-0.905,-0.904,-0.8614,-0.8147,-0.8328,-0.8687,-0.906,-0.9065,-0.9055,-0.907,-2.6637,-2.6429,-2.6381,-2.6512,-2.6703,-2.6981,-2.6819,-2.6359,-2.6443,-2.6076,-2.5528,-2.5497,-2.5528,-2.5467,-2.5047,-2.4828,-2.4857,-2.4731,-2.4454,-2.4174,-2.4845,-2.5022,-2.4648,-2.4559,-2.4161,-2.3434,-2.2559,-2.1469,-2.0228,-1.9738,-1.9272,-1.8692,-1.8692,-1.8737,-1.885,-1.9699,-2.0169,-2.0273,-1.9527,-1.9128,-1.8988,-1.9358,-1.9421,-1.9064,-1.9917,-2.0048,-1.9378,-1.972,-1.968,-1.9065,-1.9072,-1.882,-1.8233,-1.659,-1.5461,0.0,0.0,0.0,0.0,0.0,0.0,0.0,0.0,0.0,0.0,0.0,-1.3205,-1.2594,-1.2379,-1.1954,-1.1018,-1.029,-0.9653,-0.9207,-0.8126,-0.7323,-0.7225,-0.6943,-0.6586,-0.6182,-0.6226,-0.6179,-0.5704,-0.5701,-0.5666,-0.5528,-0.6117,-0.6481,-0.6338,-0.6045,-0.5762,-0.5624,-0.5364,-0.5114,-0.5114,-0.5104,-0.5217,-0.5598,-0.5389,-0.5203,-0.5353,-0.561,-0.5898,-0.6065,-0.6307,-0.6721,-0.7127,-0.6878,-0.6542,-0.7096,-0.7557,-0.7936,-0.7931,-0.7931,-0.7931,-2.5901,-2.5398,-2.5398,-2.5398,-2.5466,-2.605,-2.5922,-2.5305,-2.5423,-2.4803,-2.3626,-2.3678,-2.3692,-2.3626,-2.3455,-2.335,-2.3377,-2.3757,-2.3493,-2.2837,-2.3386,-2.317,-2.2333,-2.2201,-2.2128,-2.191,-2.1046,-2.0025,-1.8835,-1.8071,-1.7076,-1.6017,-1.5998,-1.6036,-1.6119,-1.776,-1.8827,-1.9249,-1.7688,-1.7104,-1.7622,-1.7661,-1.7328,-1.6699,-1.7658,-1.7864,-1.7128,-1.7521,-1.7495,-1.6987,-1.7122,-1.7225,-1.704,-1.5678,-1.5029,0.0,-1.3885,0.0,0.0,0.0,0.0,0.0,0.0,0.0,0.0,-1.3004,-1.2348,-1.0337,-1.0264,-0.999,-0.9101,-0.8676,-0.832,-0.7941,-0.7064,-0.6417,-0.624,-0.5734,-0.5428,-0.5428,-0.5446,-0.5386,-0.5229,-0.5355,-0.5375,-0.513,-0.5108,-0.5125,-0.5059,-0.5241,-0.5261,-0.5106,-0.5027,-0.4788,-0.4797,-0.427,-0.3867,-0.3749,-0.3387,-0.2709,-0.2849,-0.2969,-0.2981,-0.302,-0.3334,-0.3561,-0.4327,-0.4545,-0.4838,-0.5625,-0.586,-0.6018,-0.6335,-0.649,-0.6261,-2.5494,-2.5398,-2.5398,-2.5398,-2.5425,-2.5502,-2.5511,-2.535,-2.5396,-2.5273,-2.5053,-2.4998,-2.4984,-2.4929,-2.3686,-2.3096,-2.2979,-2.1837,-2.1218,-2.1105,-2.1197,-2.0796,-1.9878,-1.9175,-1.8374,-1.759,-1.6757,-1.6276,-1.6033,-1.5817,-1.5584,-1.5411,-1.5402,-1.5556,-1.5803,0.0,0.0,0.0,-1.4631,-1.4039,-1.4189,-1.4373,-1.4424,-1.4277,-1.5011,0.0,-1.4934,-1.5201,-1.5206,-1.4889,-1.4951,0.0,0.0,0.0,0.0,0.0,0.0,0.0,0.0,0.0,0.0,0.0,-1.0918,-1.1467,-1.2205,-1.1531,-1.045,-0.9106,-0.8845,-0.872,-0.8576,-0.7717,-0.7229,-0.7101,-0.6218,-0.5577,-0.5581,-0.5474,-0.5428,-0.5428,-0.5471,-0.5219,-0.4442,-0.439,-0.4148,-0.3527,-0.3238,-0.3232,-0.3218,-0.3837,-0.4041,-0.3413,-0.3347,-0.3278,-0.3213,-0.308,-0.2945,-0.2948,-0.282,-0.2656,-0.2578,-0.2722,-0.2878,-0.2832,-0.2988,-0.312,-0.3333,-0.3428,-0.3513,-0.3671,-0.3748,-0.4217,-0.5944,-0.6261,-0.6261,-2.3441,0.0,-2.3047,-2.3047,0.0,-2.3059,-2.3059,-2.3119,-2.3897,-2.3768,-2.3059,-2.3059,-2.3047,-2.3,-2.2152,-2.1794,-2.1732,-2.0501,-1.9673,-1.9215,-1.8721,-1.8044,-1.7222,-1.678,-1.6305,-1.573,-1.4395,-1.3685,-1.3693,-1.2743,-1.2304,-1.2304,-1.2304,-1.2378,-1.2587,-1.2158,-1.2767,-1.4433,-1.2937,-1.2138,-1.2138,-1.179,-1.1618,-1.1539,0.0,0.0,0.0,0.0,0.0,0.0,0.0,0.0,0.0,0.0,0.0,-1.0779,-1.0316,-1.008,-1.0073,-0.9994,-0.9792,-0.9473,-0.9457,-0.9692,-1.0385,-0.9752,-0.8914,-0.7966,-0.7803,-0.7582,-0.7064,-0.616,-0.5501,-0.5362,-0.4948,-0.4532,-0.4085,-0.4383,-0.455,-0.4154,-0.4134,-0.3941,-0.342,-0.3383,-0.3262,-0.2751,-0.2678,-0.2477,-0.221,-0.2811,-0.3145,-0.2743,-0.2678,-0.2678,-0.2611,-0.2277,-0.2009,-0.2012,-0.1628,-0.1384,-0.1348,-0.1383,-0.1489,-0.151,-0.1541,-0.1717,-0.2235,-0.2326,-0.2503,-0.2968,-0.3124,-0.3359,-0.453,-0.4686,-0.4921,-2.1239,-2.0602,-2.0691,-2.0725,-2.0725,-2.0803,-2.0642,-2.0413,0.0,0.0,0.0,-2.059,-2.0504,-2.0364,-2.0182,-2.003,-1.9825,-1.8899,-1.8091,-1.7377,-1.6381,-1.5494,-1.4649,-1.449,-1.4347,-1.406,-1.2444,-1.1717,-1.1643,-1.0034,-0.9296,-0.9296,-0.9296,-0.9296,-0.9296,-0.9296,-1.0566,-1.2855,-1.1456,-1.0673,-1.061,-0.9569,-0.8981,-0.8852,-0.892,-0.8871,-0.8843,-0.8548,-0.848,-0.8816,-0.8952,-0.9095,-0.9107,-0.9045,-0.8956,-0.8783,-0.8626,-0.8506,-0.8537,-0.8135,-0.7899,-0.7942,-0.7619,-0.7541,-0.7992,-0.7822,-0.7333,-0.6456,-0.6327,-0.6001,-0.521,-0.4448,-0.3868,-0.3689,-0.3718,-0.3449,-0.2736,-0.3033,-0.3276,-0.2811,-0.2611,-0.2407,-0.2207,-0.2142,-0.2074,-0.1738,-0.1403,-0.1537,-0.0937,-0.1406,-0.2144,-0.2078,-0.1945,-0.2143,-0.2076,-0.1609,-0.1073,-0.1075,-0.0482,0.0,0.0,0.0,0.0,0.0,0.0,0.0,-0.1148,-0.1316,-0.1644,-0.2423,-0.2578,-0.2578,-0.2578,-0.2578,-0.2969,-2.0719,-2.0624,-2.0962,-2.114,-2.1174,-2.1531,-2.077,-1.9353,-2.0435,-2.0771,-2.059,-2.059,-2.0149,-1.9348,-1.8578,-1.7765,-1.6921,-1.6157,-1.5703,0.0,-1.4498,-1.3489,-1.259,-1.1758,-1.0891,-1.0179,-0.9809,-0.9744,-0.9664,-0.9442,-0.9296,-0.9296,-0.9296,-0.9221,-0.9296,-0.9296,-0.9492,-0.9931,-0.9291,-0.8969,-0.8892,-0.7539,-0.6738,-0.6667,-0.5976,-0.5814,-0.638,-0.5765,-0.6141,-0.7599,-0.7466,-0.7621,-0.8322,-0.8555,-0.868,-0.848,-0.8417,-0.799,-0.7134,-0.703,-0.629,-0.4836,-0.3956,-0.4175,-0.5768,-0.5927,-0.5219,-0.3732,-0.3595,-0.3473,-0.3442,-0.3178,-0.2942,-0.2979,-0.2881,-0.2806,-0.2458,-0.1995,-0.1867,-0.2341,-0.2002,-0.1133,-0.0534,-0.0401,0.02,0.147,0.1337,0.1872,0.1606,0.0671,-0.0269,-0.0404,-0.0404,-0.0404,-0.0471,-0.0337,0.0,-0.0202,0.0,0.0,0.0,0.0,0.0,0.0,0.0,0.0,0.0,-0.0235,0.0,0.0,0.0,0.0,0.0,0.0,0.0,-1.9567,-1.8724,-1.9073,-1.8948,-1.8428,-1.8619,-1.8193,-1.7445,-1.7875,-1.8132,-1.8104,-1.7963,-1.765,-1.7186,-1.6673,-1.5861,-1.482,-1.3943,-1.3317,-1.2715,-1.1765,-1.1039,-1.0622,-1.0162,-0.9723,-0.9296,-0.877,-0.8466,-0.8466,-0.7936,-0.7391,-0.6839,-0.621,-0.5899,-0.5976,-0.5976,-0.5899,-0.5976,-0.6825,-0.7317,-0.7313,-0.551,-0.4582,-0.4582,-0.4013,-0.3889,-0.4277,-0.3857,-0.4014,-0.4876,-0.4708,-0.481,-0.5167,-0.5364,-0.5399,-0.5331,-0.5331,-0.5117,-0.4616,-0.4077,-0.3447,-0.2576,-0.1714,-0.1351,-0.1572,-0.2663,-0.32,-0.2986,-0.207,-0.1596,-0.2176,-0.1246,-0.0643,-0.0625,-0.0541,-0.0334,0.0133,0.0067,0.0133,0.02,0.0601,0.1001,0.1403,0.147,0.1672,0.2611,0.2678,0.2678,0.2678,0.1609,0.094,0.1342,0.1074,0.0739,0.0671,0.0269,0.0,0.0,0.0,0.0,0.0,0.0,0.0,0.0,0.0,0.0,0.0,0.0,0.0,0.0,0.0,0.0,0.0,0.0,0.0,-1.8119,-1.6832,-1.7283,-1.7021,-1.6321,-1.6321,-1.6167,-1.5934,-1.5685,-1.5444,-1.5156,-1.5237,-1.5197,-1.4942,-1.4467,-1.363,-1.2638,-1.1877,-1.1119,-1.0364,-0.9427,-0.8917,-0.8917,-0.8765,-0.8618,-0.8542,-0.7621,-0.7084,-0.7011,-0.6089,-0.5157,-0.4295,-0.3513,-0.3124,-0.3046,-0.2887,-0.273,-0.2807,-0.3878,-0.4647,-0.5118,-0.3585,-0.2577,-0.2024,-0.1918,-0.1901,-0.1895,-0.1564,-0.1621,-0.2063,-0.2064,-0.2212,-0.2433,-0.2657,-0.2806,-0.2804,-0.2582,-0.2211,-0.1696,-0.0823,-0.0302,-0.0302,0.0307,0.1009,0.1708,0.084,-0.0457,-0.132,-0.0155,0.0382,-0.0147,0.0725,0.1629,0.1626,0.1605,0.1801,0.2474,0.2203,0.2068,0.2676,0.2878,0.2943,0.3011,0.3011,0.3078,0.3347,0.3345,0.3345,0.3213,0.2611,0.2611,0.2744,0.2075,0.1006,0.0939,0.0471,0.0,0.0,0.0,0.0,0.0,0.0,0.0,0.0,0.0,0.0,0.0,0.0,0.0,0.0,0.0,0.0,0.0,0.0,0.0,-1.603,-1.6144,-1.6575,-1.6929,-1.6952,-1.7049,-1.6466,-1.5569,-1.4648,-1.3574,-1.2835,-1.3915,-1.3903,-1.3026,-1.1883,-1.0912,-0.9999,-0.9677,-0.9518,-0.9286,-0.8389,-0.7931,-0.7783,-0.7022,-0.6567,-0.6483,-0.5544,-0.5071,-0.4996,-0.3904,-0.3357,-0.3279,-0.3124,-0.2966,-0.2888,-0.2102,-0.1711,-0.1711,0.0,-0.0078,-0.1864,-0.1874,-0.0781,0.1089,0.1169,0.1168,0.1084,0.2093,0.17,0.0,-0.0231,-0.0696,-0.1621,-0.2477,-0.3024,-0.2944,-0.2163,-0.0926,0.1003,0.2171,0.264,0.2722,0.2722,0.2887,0.3042,0.3659,0.3655,0.2728,0.265,0.2692,0.2561,0.2645,0.2787,0.2699,0.2641,0.2611,0.2878,0.3345,0.3478,0.2744,0.348,0.3882,0.3882,0.3882,0.4215,0.4755,0.4821,0.4821,0.4821,0.4622,0.4495,0.4292,0.2415,0.0539,0.0404,0.0067,0.0,0.0,0.0,0.0,0.0,0.0,0.0,0.0,0.0,0.0,0.0,0.0,0.0,0.0,0.0,0.0,0.0,0.0,0.0,-1.5963,-1.5426,-1.5242,-1.4441,-1.3464,-1.3387,-1.3049,-1.2644,-1.2219,-1.1712,-1.1273,-1.122,-1.1145,-1.1252,-1.0464,-0.9521,-0.8658,-0.8476,-0.8084,-0.7553,-0.7099,-0.6553,-0.5925,-0.5544,-0.5079,-0.4453,-0.3982,-0.3746,-0.3435,-0.2104,-0.1247,-0.1091,-0.0078,0.0545,0.0623,0.0934,0.1167,0.1168,0.2025,0.2335,0.2101,0.1481,0.156,0.2339,0.2499,0.25,0.2495,0.2887,0.273,0.1867,0.1792,0.1636,0.1168,0.0778,0.0545,0.0623,0.0934,0.1557,0.2414,0.3433,0.4062,0.4062,0.4611,0.5002,0.5002,0.5392,0.547,0.5071,0.486,0.454,0.3845,0.4178,0.4423,0.4311,0.4311,0.4284,0.4284,0.4619,0.4619,0.435,0.4619,0.4821,0.4821,0.4821,0.4954,0.5359,0.5428,0.5428,0.5362,0.4957,0.4654,0.4444,0.2884,0.2115,0.2025,0.0874,0.0475,0.0549,0.0355,0.0,0.0,0.0,0.0,0.0,0.0,0.0,0.0,0.0,0.0,0.0,0.0,0.0,0.0,0.0,0.0,-1.4992,-1.422,-1.3407,-1.2128,-1.0611,-1.0611,-1.0611,-1.0524,-1.0269,-1.0096,-1.0009,-0.8882,-0.8727,-0.9235,-0.8914,-0.8332,-0.7629,-0.723,-0.6588,-0.587,-0.555,-0.5002,-0.4295,-0.4295,-0.3746,-0.2807,-0.2418,-0.195,-0.1325,0.0,0.0857,0.1091,0.234,0.3124,0.3124,0.3357,0.3513,0.3515,0.3826,0.4375,0.4921,0.4375,0.3982,0.3982,0.3671,0.3671,0.3982,0.3982,0.3984,0.3984,0.3671,0.3513,0.3513,0.3279,0.32,0.3513,0.3515,0.3824,0.4363,0.5146,0.5687,0.5996,0.6703,0.7096,0.7099,0.7099,0.7099,0.7088,0.6938,0.6327,0.4945,0.5246,0.5528,0.5452,0.5428,0.5428,0.5359,0.5428,0.5362,0.5428,0.5292,0.5428,0.5428,0.5359,0.5359,0.5362,0.5428,0.5428,0.5362,0.4827,0.4529,0.4513,0.3834,0.3405,0.3569,0.2343,0.1307,0.1396,0.1302,0.1034,0.0741,0.0,0.0,0.0,0.0,0.0,0.0,0.0,0.0,0.0,0.0,0.0,0.0,0.0,0.0,-1.2248,-1.2207,-1.1203,-1.0692,-1.0524,-1.0438,-1.0524,-1.0265,-0.941,-0.8978,-0.8798,-0.7753,-0.7221,-0.7285,-0.7125,-0.6905,-0.6592,-0.5618,-0.5015,-0.4693,-0.3826,-0.3279,-0.3202,-0.3124,-0.2572,-0.1399,-0.0545,0.0779,0.2497,0.281,0.2968,0.2968,0.3202,0.3202,0.3357,0.4217,0.4608,0.4688,0.5473,0.6099,0.6183,0.6099,0.6022,0.5944,0.5157,0.5079,0.5867,0.6099,0.6099,0.6103,0.516,0.4608,0.453,0.3746,0.3746,0.4528,0.4683,0.5535,0.7157,0.7544,0.7927,0.8765,0.8836,0.9069,0.8846,0.8846,0.8832,0.9059,0.8694,0.783,0.6165,0.5874,0.574,0.5533,0.5498,0.5557,0.5428,0.5491,0.5428,0.5428,0.5428,0.5428,0.5428,0.5428,0.5428,0.5428,0.5428,0.5428,0.5362,0.5292,0.5292,0.5192,0.4685,0.3939,0.3377,0.2719,0.2758,0.2857,0.272,0.2718,0.2542,0.0,0.1879,0.1411,0.0941,0.0,0.0,0.0,0.0,0.0,0.0,0.0,0.0,0.0,0.0,-1.0711,-1.0096,-0.9666,-0.9056,-0.8356,-0.8356,-0.8356,-0.8269,-0.7925,-0.7753,-0.7665,-0.7316,-0.6694,-0.598,-0.594,-0.5886,-0.5596,-0.5076,-0.4408,-0.3671,-0.3279,-0.2418,-0.1169,-0.1091,-0.0234,0.1246,0.1792,0.234,0.3044,0.3748,0.4137,0.4295,0.4844,0.516,0.5237,0.555,0.5709,0.5786,0.6106,0.6567,0.7099,0.6644,0.6563,0.7176,0.6247,0.5864,0.6257,0.6261,0.6261,0.6261,0.5944,0.5709,0.5783,0.6002,0.6227,0.6696,0.7306,0.7995,0.8613,0.8765,0.8917,0.9221,0.9296,0.9372,0.9296,0.9296,0.9241,0.9079,0.8877,0.8279,0.7845,0.7462,0.712,0.665,0.6805,0.6539,0.5815,0.5881,0.6009,0.5557,0.5428,0.5428,0.5428,0.5428,0.5428,0.5428,0.5428,0.5432,0.5428,0.5428,0.543,0.5545,0.5316,0.5105,0.5108,0.3803,0.321,0.353,0.3563,0.3233,0.2983,0.2955,0.2578,0.2503,0.1956,0.0,0.0,0.0,0.0,0.0,0.0,0.0,0.0,0.0,0.0,-0.9405,-0.8452,-0.8277,-0.7837,-0.7139,-0.7139,-0.7139,-0.7139,-0.7139,-0.7139,-0.7051,-0.6694,-0.6071,-0.5351,-0.4965,-0.4424,-0.4014,-0.381,-0.3182,-0.2128,-0.1723,-0.0702,0.0779,0.1013,0.1947,0.3435,0.3984,0.4139,0.4217,0.4844,0.5237,0.5315,0.5944,0.649,0.6718,0.6795,0.6872,0.7176,0.7249,0.7629,0.8084,0.7629,0.7557,0.8089,0.7633,0.7099,0.6795,0.7099,0.7249,0.7249,0.7249,0.7249,0.733,0.7936,0.8313,0.8385,0.8841,0.9442,0.9744,0.982,0.9895,1.0276,1.0276,1.0276,1.0276,1.0271,1.0181,0.9929,0.9796,0.9667,0.9684,0.9552,0.8853,0.7894,0.7888,0.7644,0.6478,0.6793,0.6658,0.6009,0.5554,0.5425,0.5428,0.5428,0.5428,0.5428,0.5463,0.5433,0.5437,0.5481,0.5528,0.5633,0.5664,0.5701,0.5641,0.4825,0.4474,0.4737,0.475,0.4176,0.3815,0.3716,0.3587,0.3591,0.3279,0.2813,0.2189,0.1488,0.1097,0.094,0.0,0.0,0.0,0.0,0.0,-0.8189,-0.7228,-0.7139,-0.7228,-0.7139,-0.7139,-0.7139,-0.7139,-0.7048,-0.6959,-0.6782,-0.5891,-0.5267,-0.4896,-0.3689,-0.2744,-0.1853,-0.1585,-0.1066,-0.008,0.0868,0.1955,0.2966,0.2965,0.3511,0.4686,0.5705,0.618,0.6022,0.6177,0.6331,0.6335,0.6486,0.7099,0.7787,0.7859,0.8241,0.8846,0.8993,0.9145,0.9296,0.9145,0.9069,0.9296,0.9221,0.8765,0.7931,0.8694,0.9074,0.9069,0.915,0.9221,0.9069,0.9221,0.9296,0.9296,0.9372,0.9895,1.064,1.0789,1.1242,1.1781,1.215,1.2003,1.1929,1.197,1.1937,1.1786,1.167,1.1748,1.1808,1.1442,1.0436,0.8821,0.8654,0.8548,0.8068,0.7922,0.7642,0.6749,0.5977,0.5432,0.5428,0.5428,0.5428,0.5449,0.5454,0.5525,0.5521,0.5593,0.5739,0.5827,0.5792,0.584,0.5905,0.5959,0.6043,0.611,0.5963,0.5668,0.5269,0.5154,0.4763,0.4611,0.3906,0.3437,0.3281,0.2657,0.2423,0.2345,0.2656,0.2579,0.2425,0.2193,0.2516,-0.7489,-0.7139,-0.7139,-0.7139,-0.7139,-0.7139,-0.7139,-0.6962,-0.634,-0.5891,-0.5714,-0.473,-0.3751,-0.2765,-0.1593,-0.0436,0.06,0.1265,0.156,0.1351,0.2196,0.3205,0.4062,0.4219,0.4763,0.5709,0.6103,0.6261,0.6412,0.6945,0.7326,0.748,0.8008,0.8466,0.8841,0.8846,0.9069,0.9221,0.9296,0.9593,1.0196,0.9669,0.9674,1.0265,1.034,1.019,0.9884,0.9518,0.9296,0.9372,0.9296,0.9296,0.9448,0.997,1.0265,1.0409,1.1025,1.1403,1.17,1.1842,1.1922,1.2231,1.2305,1.2305,1.2278,1.2118,1.2017,1.1977,1.1744,1.1617,1.167,1.1757,1.1147,1.0037,1.0227,0.9867,0.8801,0.8044,0.7386,0.6946,0.612,0.5542,0.5459,0.5435,0.5505,0.5495,0.555,0.5582,0.5521,0.5719,0.5827,0.6229,0.6043,0.6117,0.6512,0.6507,0.6339,0.6373,0.636,0.6331,0.618,0.6025,0.5786,0.5395,0.4688,0.4295,0.4139,0.3904,0.3671,0.3361,0.3207,0.3209,0.3129,0.3388,0.3742,-0.7139,-0.7139,-0.7139,-0.6874,-0.6517,-0.6514,-0.616,-0.58,-0.5087,-0.4732,-0.4463,-0.3484,-0.2233,-0.1071,0.0089,0.1323,0.2423,0.3384,0.3533,0.294,0.3368,0.4297,0.5157,0.5315,0.555,0.618,0.6261,0.649,0.6872,0.748,0.8012,0.8466,0.8998,0.9523,0.982,0.9895,0.997,1.0346,1.0426,1.072,1.1099,1.072,1.072,1.1242,1.1391,1.1316,1.1316,1.072,1.0426,1.0421,1.0426,1.0426,1.0496,1.1013,1.1385,1.1465,1.1848,1.2305,1.2305,1.2231,1.2305,1.2305,1.2305,1.2245,1.2144,1.1951,1.1844,1.1683,1.1436,1.1356,1.1563,1.151,1.139,1.1282,1.1404,1.1057,0.9846,0.8899,0.8149,0.7693,0.6843,0.6138,0.5627,0.5843,0.5877,0.5907,0.6199,0.6439,0.6451,0.6574,0.6877,0.706,0.7022,0.7216,0.7415,0.7082,0.6606,0.651,0.6471,0.6377,0.6257,0.618,0.6022,0.6022,0.547,0.5392,0.5234,0.4999,0.4766,0.4302,0.4164,0.4594,0.4864,0.4859,0.5075,-0.7051,-0.7051,-0.6962,-0.6248,-0.5356,-0.5267,-0.4732,-0.3837,-0.357,-0.3392,-0.3123,-0.1966,-0.0803,0.0357,0.1606,0.2739,0.372,0.4571,0.4961,0.4839,0.4904,0.5315,0.6022,0.6103,0.618,0.6261,0.6412,0.6872,0.7633,0.8084,0.8461,0.9296,0.9674,0.997,1.0714,1.0858,1.1316,1.1922,1.2083,1.215,1.215,1.215,1.215,1.2231,1.215,1.2224,1.2365,1.2439,1.2365,1.2298,1.2077,1.2003,1.2157,1.2305,1.2231,1.215,1.2305,1.2305,1.2298,1.2519,1.2519,1.2519,1.2512,1.2324,1.2372,1.2043,1.1774,1.1696,1.1276,1.1216,1.1523,1.1416,1.1496,1.2071,1.2011,1.1649,1.1405,1.0539,0.9623,0.8805,0.7924,0.702,0.6241,0.6688,0.6878,0.7065,0.7516,0.776,0.7861,0.7749,0.8191,0.8152,0.7966,0.7991,0.8127,0.7388,0.6899,0.6699,0.6618,0.635,0.6237,0.624,0.6257,0.6257,0.618,0.618,0.6099,0.5705,0.573,0.5605,0.5814,0.6368,0.6374,0.6049,0.6034,-0.6605,-0.5894,-0.5891,-0.5179,-0.4194,-0.4105,-0.3927,-0.3481,-0.2592,-0.1696,-0.0891,0.0357,0.1429,0.2675,0.3835,0.459,0.493,0.5756,0.6122,0.6061,0.593,0.6025,0.6257,0.6261,0.6261,0.6335,0.6945,0.7553,0.7931,0.921,1.0034,1.0409,1.1093,1.1552,1.1922,1.1842,1.2003,1.2231,1.2305,1.2305,1.2305,1.2305,1.2305,1.2305,1.2305,1.2666,1.331,1.4099,1.3665,1.2378,1.2305,1.2305,1.2452,1.2452,1.2445,1.2445,1.2372,1.2378,1.2445,1.2952,1.331,1.331,1.3208,1.3452,1.3747,1.2338,1.1937,1.1981,1.1636,1.1049,1.1216,1.1283,1.1536,1.1884,1.2024,1.2091,1.1906,1.1247,1.0458,1.0073,0.916,0.846,0.8047,0.8027,0.8275,0.8275,0.8419,0.8503,0.8643,0.8554,0.8703,0.8732,0.8662,0.8689,0.8555,0.7797,0.724,0.6989,0.6674,0.6249,0.6196,0.6196,0.623,0.6257,0.6257,0.6257,0.6257,0.6099,0.6308,0.6441,0.6444,0.6519,0.6651,0.6502,0.658,-0.5714,-0.4643,-0.4643,-0.3929,-0.2858,-0.2858,-0.2322,-0.1339,-0.0625,0.0357,0.1515,0.2232,0.3215,0.4374,0.5087,0.559,0.6034,0.6518,0.6715,0.6552,0.6359,0.6268,0.6261,0.6261,0.6261,0.6412,0.7322,0.8008,0.8613,1.004,1.0938,1.1465,1.2003,1.2305,1.2231,1.2305,1.2305,1.2305,1.2305,1.2305,1.2305,1.2305,1.2592,1.2739,1.2952,1.331,1.4243,1.4879,1.4593,1.373,1.352,1.352,1.352,1.352,1.352,1.352,1.352,1.3513,1.3593,1.4027,1.4173,1.3993,1.3821,1.3491,1.3278,1.2137,1.1655,1.1577,1.1259,1.1068,1.1042,1.1256,1.1416,1.1503,1.1764,1.2031,1.2258,1.1822,1.1249,1.0668,1.0109,0.943,0.9051,0.9108,0.9265,0.9361,0.9605,0.9632,0.9655,0.9354,0.9162,0.9356,0.9509,0.9616,0.9245,0.8472,0.7673,0.7372,0.6621,0.6201,0.6193,0.6193,0.6224,0.6261,0.6261,0.6261,0.6261,0.6278,0.6407,0.6476,0.6488,0.6624,0.677,0.6878,0.6956,-0.4552,-0.3393,-0.3393,-0.2771,-0.17,-0.1432,-0.0268,0.1431,0.1789,0.2591,0.3481,0.3749,0.4463,0.5536,0.5716,0.6157,0.7034,0.6883,0.6746,0.6644,0.652,0.6379,0.6691,0.6655,0.6644,0.6795,0.7553,0.8613,0.9518,1.0565,1.1391,1.1996,1.2231,1.2305,1.2305,1.2305,1.2305,1.2305,1.2305,1.2452,1.2592,1.2666,1.3025,1.381,1.4163,1.4522,1.5163,1.5517,1.5517,1.5517,1.5376,1.5021,1.5092,1.5092,1.5092,1.5021,1.4879,1.495,1.5163,1.5092,1.5188,1.4825,1.4164,1.3263,1.2925,1.2247,1.1469,1.1142,1.0938,1.0889,1.0935,1.1162,1.1202,1.1156,1.1289,1.1637,1.2051,1.2211,1.1844,1.1039,1.067,1.022,0.9846,0.9723,1.0194,1.0221,1.0467,1.0447,1.0375,1.0223,1.0091,1.02,1.0366,1.054,1.0015,0.9309,0.8384,0.7682,0.6606,0.6091,0.6213,0.6237,0.6247,0.6261,0.6261,0.6261,0.6264,0.6295,0.6363,0.6491,0.6627,0.6773,0.6915,0.6997,0.7078,-0.3306,-0.2236,-0.2236,-0.1522,-0.0359,0.0627,0.1341,0.1969,0.286,0.3927,0.4821,0.5001,0.5625,0.6694,0.6605,0.6874,0.7122,0.6993,0.6848,0.6688,0.6522,0.6983,0.7407,0.7541,0.748,0.7855,0.9362,1.019,1.064,1.1316,1.207,1.2231,1.2305,1.2305,1.2305,1.2305,1.2305,1.2305,1.2305,1.2739,1.331,1.3455,1.3882,1.4807,1.5508,1.6,1.6358,1.701,1.7373,1.7079,1.6079,1.5446,1.5446,1.5376,1.5376,1.5446,1.5305,1.5305,1.5376,1.5948,1.6271,1.6025,1.5444,1.5167,1.4733,1.2952,1.202,1.1493,1.1045,1.0772,1.0695,1.0779,1.0835,1.0949,1.1042,1.1216,1.1523,1.1623,1.1609,1.1585,1.152,1.1495,1.1203,1.1114,1.1242,1.1168,1.1066,1.1022,1.0955,1.0835,1.0772,1.0651,1.0638,1.0628,1.0316,0.9561,0.8653,0.8018,0.7106,0.6671,0.6805,0.649,0.6567,0.6412,0.6261,0.6261,0.6264,0.6369,0.6447,0.661,0.6759,0.6892,0.701,0.7102,0.7139,-0.2058,-0.0896,-0.0358,0.0269,0.0986,0.2148,0.2949,0.3486,0.4107,0.5087,0.5983,0.616,0.6517,0.7051,0.7139,0.7139,0.7281,0.7587,0.7594,0.7589,0.7737,0.8238,0.8526,0.8818,0.8898,0.8836,0.9798,1.0548,1.1013,1.1768,1.2231,1.2305,1.2305,1.2305,1.2305,1.2305,1.2592,1.2952,1.2952,1.3382,1.4243,1.4458,1.4879,1.5799,1.6715,1.7285,1.7285,1.7647,1.794,1.7794,1.7079,1.6515,1.6515,1.6507,1.6515,1.6515,1.6515,1.6507,1.6724,1.6932,1.7142,1.6955,1.6202,1.5669,1.4886,1.3364,1.2243,1.1718,1.122,1.0728,1.0581,1.0624,1.0661,1.0728,1.0795,1.0868,1.1022,1.1249,1.147,1.159,1.1454,1.1481,1.1577,1.1597,1.1557,1.118,1.122,1.1189,1.1015,1.0889,1.0742,1.0698,1.0645,1.0518,1.0366,0.97,0.8759,0.8348,0.7965,0.7856,0.8112,0.7544,0.6872,0.6718,0.6563,0.6335,0.6281,0.6403,0.6529,0.6658,0.68,0.6963,0.7075,0.7122,0.7139,-0.0807,0.0359,0.1339,0.1874,0.2234,0.3291,0.436,0.527,0.5628,0.616,0.6962,0.7139,0.6962,0.7139,0.7139,0.7139,0.7716,0.8492,0.8843,0.8796,0.9252,0.9657,0.9803,0.9969,1.01,0.9862,1.049,1.0926,1.131,1.1842,1.2305,1.2305,1.2305,1.2305,1.2305,1.2519,1.2879,1.3455,1.381,1.4378,1.5234,1.5446,1.586,1.6784,1.7432,1.7862,1.7862,1.794,1.8008,1.8008,1.8008,1.8008,1.8008,1.8008,1.8008,1.794,1.7794,1.7716,1.7647,1.7852,1.7794,1.7471,1.6552,1.5615,1.4853,1.3633,1.2459,1.1784,1.1256,1.0768,1.0651,1.0618,1.0618,1.0645,1.0631,1.0618,1.0641,1.1015,1.1209,1.1329,1.1263,1.1256,1.1256,1.1256,1.1243,1.1236,1.1276,1.1249,1.1049,1.0895,1.0728,1.0705,1.0645,1.0238,1.0015,0.986,0.8963,0.8656,0.846,0.8739,0.8951,0.8509,0.777,0.7173,0.6868,0.6644,0.6475,0.661,0.6735,0.6778,0.6851,0.7027,0.7102,0.7136,0.7139,0.0359,0.152,0.158,0.2287,0.3379,0.438,0.5102,0.5528,0.6428,0.6874,0.7051,0.7139,0.7228,0.7228,0.7143,0.7665,0.8694,0.967,1.0223,1.0119,1.0429,1.0681,1.1181,1.0873,1.1071,1.1891,1.2071,1.1874,1.1922,1.2231,1.2305,1.2305,1.2305,1.2305,1.2592,1.3025,1.3528,1.4091,1.4665,1.5438,1.6149,1.6428,1.6715,1.7588,1.791,1.8008,1.8047,1.8027,1.8008,1.8008,1.8008,1.8037,1.8096,1.8096,1.8076,1.8008,1.8008,1.8008,1.8008,1.7998,1.7988,1.7755,1.7224,1.642,1.5442,1.4115,1.2767,1.1774,1.1087,1.0678,1.0631,1.0618,1.0618,1.0618,1.0618,1.0618,1.0651,1.0695,1.0868,1.1015,1.0995,1.0975,1.0982,1.0969,1.0955,1.0922,1.0902,1.0902,1.0788,1.0701,1.0621,1.0645,1.0631,1.011,0.9606,0.956,0.9177,0.895,0.8837,0.9127,0.9275,0.9185,0.8737,0.8599,0.7783,0.7111,0.6984,0.6973,0.6869,0.6829,0.6922,0.7099,0.7122,0.7139,0.7139,0.1255,0.1966,0.3005,0.3892,0.4628,0.5651,0.6186,0.6334,0.6874,0.7139,0.7316,0.7753,0.8013,0.8189,0.8707,0.9314,0.9918,1.095,1.125,1.1222,1.1565,1.1912,1.2498,1.2067,1.2229,1.2629,1.2674,1.2499,1.2318,1.2305,1.2378,1.2305,1.2305,1.2519,1.2945,1.3455,1.4307,1.495,1.572,1.6358,1.7217,1.7295,1.7657,1.791,1.8223,1.832,1.8379,1.8603,1.8672,1.8682,1.8682,1.8672,1.8723,1.8674,1.8457,1.8203,1.8027,1.8008,1.8008,1.8008,1.7998,1.793,1.7461,1.6864,1.5834,1.4434,1.2781,1.1534,1.0982,1.0618,1.0618,1.0618,1.0618,1.0618,1.0618,1.0618,1.0618,1.0618,1.0655,1.0768,1.0755,1.0755,1.0813,1.0792,1.0752,1.0692,1.0631,1.0618,1.0618,1.0618,1.0618,1.0618,1.0618,1.0364,0.9919,0.9798,0.9707,0.9472,0.9423,0.9655,0.9899,1.0003,1.0467,1.0771,0.9593,0.8209,0.7584,0.7664,0.7327,0.6972,0.6976,0.7112,0.7129,0.7139,0.7139,0.2228,0.2681,0.4515,0.5494,0.5885,0.6662,0.7021,0.7136,0.7051,0.7316,0.7577,0.8452,0.8978,0.9492,1.0351,1.1037,1.137,1.2486,1.2945,1.3163,1.358,1.3782,1.3768,1.3722,1.3831,1.3622,1.3493,1.2981,1.2419,1.2592,1.2592,1.2806,1.2732,1.3164,1.3882,1.4378,1.5376,1.6079,1.6853,1.7295,1.7803,1.8096,1.8135,1.8184,1.8535,1.876,1.8799,1.9362,1.9583,1.9675,1.9848,1.994,1.9909,1.9713,1.9312,1.8666,1.834,1.8105,1.8018,1.8008,1.8008,1.7978,1.7305,1.6934,1.6075,1.4471,1.2474,1.117,1.0618,1.0618,1.0618,1.0618,1.0618,1.0618,1.0618,1.0618,1.0618,1.0618,1.0618,1.0601,1.0618,1.0645,1.0685,1.0692,1.0678,1.0678,1.0618,1.0618,1.0618,1.0618,1.0618,1.0618,1.0618,1.0618,1.0428,1.0364,1.0353,1.0225,1.0309,1.0541,1.0823,1.1028,1.1505,1.1717,1.1371,1.0089,0.9247,0.8282,0.7863,0.7528,0.7288,0.7122,0.7136,0.7139,0.7139,0.3866,0.4987,0.4979,0.5695,0.675,0.6934,0.7034,0.7132,0.7221,0.7749,0.8711,0.8965,0.9648,1.0692,1.1724,1.2644,1.3652,1.4573,1.533,1.5748,1.5889,1.5897,1.5942,1.5573,1.5189,1.4872,1.4839,1.387,1.3127,1.3346,1.3535,1.3673,1.4235,1.4879,1.5013,1.5508,1.6358,1.6715,1.7442,1.7891,1.8096,1.8389,1.8605,1.8742,1.916,1.9489,1.9705,2.035,2.0759,2.0799,2.1441,2.1804,2.1713,2.1037,2.0734,2.0151,1.9404,1.8408,1.8135,1.8027,1.8008,1.7939,1.7519,1.7139,1.6059,1.4453,1.2581,1.1772,1.1045,1.0618,1.0618,1.0618,1.0618,1.0618,1.0618,1.0618,1.0618,1.0618,1.0618,1.0618,1.0618,1.0618,1.0645,1.0631,1.0624,1.0624,1.0618,1.0618,1.0618,1.0618,1.0618,1.0618,1.0618,1.0618,1.0618,1.0618,1.0651,1.0739,1.0828,1.1049,1.1193,1.1351,1.1834,1.1978,1.1827,1.1544,1.0565,0.96,0.8752,0.7997,0.7407,0.7207,0.7139,0.7139,0.7404,0.5344,0.5437,0.5953,0.6496,0.7037,0.7071,0.7428,0.7983,0.7914,0.8616,0.9794,1.0469,1.1669,1.3212,1.4092,1.4844,1.5831,1.6347,1.6718,1.7062,1.7004,1.6743,1.6333,1.6062,1.5864,1.5773,1.5495,1.5235,1.4475,1.4408,1.453,1.4609,1.5029,1.5438,1.593,1.6428,1.6922,1.742,1.8006,1.829,1.8606,1.9234,1.9828,1.9919,2.0759,2.1163,2.1403,2.1927,2.2302,2.2396,2.2816,2.2887,2.2898,2.2518,2.2237,2.1898,2.0894,1.9677,1.8546,1.8174,1.8057,1.791,1.7521,1.6867,1.5666,1.4162,1.2696,1.1826,1.1052,1.0688,1.0618,1.0618,1.0618,1.0624,1.0575,1.0651,1.0645,1.0624,1.0618,1.0618,1.0618,1.0618,1.0618,1.0618,1.0618,1.0618,1.0618,1.0618,1.0618,1.0618,1.0618,1.0618,1.0618,1.0618,1.0618,1.0618,1.0618,1.0672,1.0672,1.0848,1.1116,1.143,1.1824,1.2218,1.2287,1.2016,1.1573,1.055,0.9289,0.8341,0.7439,0.7467,0.7577,0.8116,0.85,0.6689,0.6328,0.6835,0.7109,0.7139,0.7401,0.8013,0.8786,0.9013,0.9695,1.1038,1.2302,1.4076,1.5636,1.6101,1.6511,1.7658,1.7738,1.7817,1.7761,1.7648,1.7569,1.7453,1.7194,1.6902,1.6495,1.6896,1.6724,1.6709,1.6696,1.6599,1.5803,1.607,1.6376,1.6793,1.7079,1.7392,1.8094,1.8725,1.9054,1.9455,2.0621,2.1154,2.1631,2.232,2.3048,2.3116,2.3618,2.3834,2.3822,2.4221,2.4389,2.4341,2.4019,2.3712,2.3202,2.2287,2.1119,1.9786,1.8943,1.8233,1.7891,1.7471,1.6654,1.5504,1.4022,1.2948,1.2266,1.1469,1.0989,1.0681,1.0618,1.0621,1.0628,1.0621,1.0698,1.0698,1.0749,1.0708,1.0618,1.0618,1.0618,1.0618,1.0618,1.0618,1.0618,1.0618,1.0618,1.0618,1.0618,1.0618,1.0618,1.0618,1.0618,1.0618,1.0618,1.0618,1.0618,1.0618,1.0762,1.1102,1.1403,1.175,1.2138,1.2605,1.2349,1.1867,1.0787,0.9836,0.9194,0.8595,0.8261,0.8281,0.892,0.9557,0.7742,0.8611,0.7433,0.7111,0.7312,0.8277,0.8798,0.9314,1.0058,1.1059,1.2523,1.4309,1.5957,1.6919,1.7334,1.7819,1.8886,1.8886,1.9307,1.9714,1.9898,1.9383,1.9174,1.8955,1.8956,1.8831,1.8788,1.8817,1.9141,1.9384,1.8598,1.744,1.7846,1.7871,1.7988,1.8182,1.8379,1.8962,1.961,2.0296,2.0924,2.1887,2.2741,2.2842,2.3167,2.3458,2.3543,2.4385,2.4921,2.4921,2.5499,2.5861,2.5639,2.5217,2.4826,2.4507,2.3589,2.2444,2.1407,1.9741,1.8527,1.791,1.7409,1.6894,1.6257,1.4874,1.3838,1.3099,1.2352,1.1633,1.1108,1.0651,1.1297,1.1424,1.1589,1.1453,1.1346,1.1008,1.0903,1.0708,1.0618,1.0618,1.0618,1.0618,1.0618,1.0618,1.0618,1.0618,1.0618,1.0618,1.0618,1.0618,1.0618,1.0618,1.0618,1.0618,1.0618,1.0618,1.0618,1.0855,1.1223,1.151,1.1784,1.2371,1.2809,1.2504,1.2128,1.1338,1.0614,1.0292,0.984,0.9419,0.9768,1.0563,1.1,0.9343,0.947,0.9213,0.9247,0.93,0.9533,1.0228,1.0888,1.1166,1.2352,1.4262,1.5912,1.7334,1.8149,1.839,1.8957,1.9844,1.9991,2.0313,2.0372,2.0371,2.0166,2.0102,2.028,2.0267,2.0031,2.0247,2.0791,2.1021,2.1326,2.1307,2.0652,2.027,1.986,1.9756,1.9505,1.9804,2.03,2.0896,2.1531,2.2295,2.3404,2.4201,2.4236,2.5025,2.5276,2.5417,2.5721,2.5873,2.6025,2.6314,2.6452,2.6521,2.6025,2.5873,2.5734,2.4661,2.3828,2.265,2.091,1.9394,1.8798,1.8226,1.7747,1.7378,1.5875,1.4923,1.4204,1.3492,1.2751,1.2923,1.2897,1.3048,1.3029,1.2752,1.2452,1.2109,1.1761,1.1297,1.1127,1.0826,1.0618,1.0618,1.0618,1.0618,1.0618,1.0618,1.0618,1.0618,1.0618,1.0618,1.0618,1.0618,1.0618,1.0618,1.0618,1.0618,1.0624,1.0631,1.0929,1.1303,1.1617,1.1964,1.2579,1.3061,1.29,1.2462,1.1888,1.1379,1.0849,1.0727,1.0676,1.1247,1.2132,1.2541,1.0593,1.06,1.0985,1.0787,1.0413,1.0726,1.1517,1.2553,1.2757,1.4139,1.6493,1.7692,1.8833,1.9709,2.0333,2.073,2.1441,2.1527,2.1298,2.1288,2.1314,2.103,2.1084,2.1355,2.1728,2.1215,2.1509,2.2213,2.2351,2.2423,2.2673,2.2834,2.2809,2.2131,2.0872,2.0891,2.1115,2.1599,2.2355,2.2925,2.3651,2.4684,2.5405,2.5475,2.6013,2.6233,2.6233,2.6302,2.6383,2.6383,2.6452,2.6452,2.6521,2.6521,2.6521,2.6233,2.5832,2.4933,2.3613,2.1708,2.0191,1.9672,1.9233,1.886,1.8143,1.6829,1.6028,1.5034,1.4475,1.4234,1.4416,1.39,1.3933,1.3866,1.3802,1.3483,1.3096,1.2725,1.2087,1.1639,1.1148,1.0631,1.0807,1.0807,1.0863,1.0744,1.0624,1.0624,1.0618,1.0618,1.0618,1.0618,1.0618,1.0618,1.0618,1.0618,1.0624,1.0608,1.0688,1.1002,1.1349,1.1724,1.2285,1.2986,1.3299,1.3239,1.3123,1.2849,1.2116,1.1375,1.1591,1.1974,1.2651,1.3484,1.405,1.1359,1.2225,1.231,1.1455,1.0539,1.1607,1.2835,1.3933,1.5138,1.6879,1.8831,1.9896,2.0834,2.179,2.2392,2.2765,2.2925,2.3073,2.2776,2.2264,2.2563,2.2595,2.2573,2.2709,2.3189,2.3436,2.3492,2.3475,2.3568,2.4085,2.4376,2.4453,2.4481,2.3839,2.164,2.144,2.1632,2.223,2.3602,2.4269,2.4989,2.5824,2.6151,2.6314,2.6383,2.6521,2.6521,2.6521,2.6521,2.6521,2.6521,2.6521,2.6521,2.6521,2.6521,2.6452,2.6452,2.5765,2.4688,2.2098,2.0971,2.0579,2.0198,1.9758,1.8881,1.7999,1.7255,1.6344,1.566,1.5078,1.4547,1.4275,1.4788,1.5,1.5005,1.4763,1.4447,1.3648,1.2986,1.2211,1.1323,1.0651,1.0947,1.1059,1.1115,1.0989,1.0744,1.0688,1.0807,1.08,1.0863,1.0618,1.0618,1.0618,1.0618,1.0618,1.0638,1.0628,1.0835,1.1169,1.1617,1.2098,1.2705,1.3394,1.3605,1.3618,1.3814,1.399,1.3124,1.2516,1.3209,1.3645,1.4282,1.4586,1.4889,1.4144,1.4405,1.5248,1.5473,1.5065,1.4481,1.4902,1.6226,1.8002,1.9625,2.0938,2.2018,2.2595,2.3073,2.3294,2.3661,2.3588,2.3514,2.3147,2.3147,2.3526,2.3294,2.3368,2.3868,2.4329,2.4272,2.4469,2.4819,2.4881,2.5294,2.5591,2.5754,2.5615,2.4868,2.4022,2.3692,2.3911,2.4347,2.4988,2.5419,2.5951,2.6339,2.6546,2.6559,2.6559,2.6589,2.6589,2.6577,2.6589,2.6589,2.6589,2.6521,2.6521,2.6521,2.6533,2.6521,2.6496,2.595,2.4806,2.314,2.2049,2.1608,2.1265,2.0791,2.0023,1.9511,1.8711,1.7984,1.749,1.7273,1.753,1.6968,1.709,1.7041,1.6899,1.6474,1.5934,1.4756,1.3866,1.2923,1.2006,1.1404,1.133,1.2049,1.2248,1.232,1.221,1.1714,1.1615,1.1413,1.1344,1.08,1.0618,1.0618,1.0624,1.0628,1.0722,1.0822,1.1069,1.1403,1.1884,1.2478,1.2979,1.3587,1.3794,1.3968,1.4035,1.4088,1.3997,1.3828,1.4037,1.4322,1.4676,1.493,1.5144,1.6141,1.6139,1.7282,1.8179,1.8403,1.6985,1.7125,1.871,2.0444,2.1711,2.2509,2.3554,2.4036,2.4108,2.4397,2.4541,2.4541,2.4541,2.4181,2.4181,2.4469,2.4325,2.448,2.4921,2.5308,2.5257,2.5469,2.5857,2.5865,2.5925,2.6291,2.6633,2.6534,2.6228,2.5726,2.5441,2.5215,2.5677,2.6095,2.6509,2.6834,2.6942,2.6779,2.6854,2.6878,2.696,2.6905,2.6905,2.6918,2.6863,2.6726,2.6589,2.6521,2.6521,2.6658,2.6769,2.6712,2.6233,2.528,2.417,2.3115,2.2421,2.2322,2.1877,2.1267,2.0768,2.0142,1.9604,1.9382,1.9287,1.9275,1.8721,1.8395,1.8317,1.791,1.7453,1.6949,1.5795,1.4976,1.3974,1.3119,1.2491,1.2101,1.2874,1.352,1.3651,1.3789,1.3186,1.2545,1.2111,1.1807,1.1318,1.0776,1.0668,1.0708,1.0762,1.0868,1.1002,1.1369,1.1784,1.2365,1.2979,1.338,1.3707,1.3888,1.4028,1.4062,1.4088,1.3997,1.4057,1.4222,1.4502,1.489,1.5077,1.5211,1.7407,1.756,1.8514,1.9674,2.0236,1.9089,1.9548,2.1272,2.2308,2.3122,2.3734,2.4696,2.5004,2.5229,2.5955,2.6233,2.6164,2.6164,2.5721,2.5429,2.5639,2.5511,2.5511,2.5873,2.602,2.6264,2.6433,2.64,2.6552,2.6819,2.7259,2.7591,2.7644,2.763,2.7315,2.6973,2.6601,2.685,2.6999,2.7659,2.8222,2.7837,2.78,2.7868,2.8059,2.8053,2.8027,2.7961,2.7881,2.7577,2.7175,2.685,2.6658,2.6602,2.7108,2.7394,2.7447,2.6727,2.5937,2.4793,2.3811,2.3005,2.2944,2.2567,2.2113,2.1646,2.128,2.0688,2.034,2.0142,1.992,1.9469,1.9054,1.8721,1.8269,1.7959,1.7707,1.6945,1.6184,1.539,1.4497,1.3949,1.3842,1.4309,1.4597,1.4753,1.4872,1.4809,1.4027,1.2767,1.2388,1.1936,1.1382,1.088,1.0868,1.1055,1.1182,1.1363,1.1891,1.2351,1.2926,1.3353,1.3661,1.3895,1.4015,1.4088,1.4088,1.4088,1.4088,1.4162,1.4262,1.4549,1.4903,1.5064,1.5231,1.9496,1.974,2.1415,2.2711,2.3492,2.304,2.3271,2.3881,2.4259,2.4815,2.5639,2.5943,2.6013,2.6094,2.6383,2.6521,2.6521,2.6452,2.6314,2.6314,2.6302,2.6233,2.6302,2.6371,2.6521,2.6521,2.6658,2.6985,2.7404,2.7789,2.8233,2.862,2.862,2.8811,2.9015,2.894,2.8505,2.8271,2.8235,2.884,2.9408,2.9193,2.9283,2.9577,2.9767,2.9668,2.9395,2.9326,2.919,2.8627,2.8417,2.826,2.8298,2.8312,2.8492,2.8434,2.7824,2.6835,2.6054,2.4985,2.4002,2.3424,2.3185,2.2628,2.2322,2.2237,2.2164,2.1661,2.1315,2.116,2.0614,2.0083,1.9497,1.8977,1.8529,1.8046,1.7813,1.7387,1.6696,1.6419,1.556,1.5236,1.5184,1.5274,1.5522,1.5753,1.5899,1.5942,1.5449,1.4149,1.3332,1.2876,1.2217,1.173,1.1457,1.1519,1.1599,1.179,1.2479,1.3029,1.3331,1.3716,1.3964,1.4041,1.4075,1.4088,1.4088,1.4088,1.4095,1.4188,1.4309,1.4609,1.4883,1.5084,1.5311,2.1662,2.1889,2.3419,2.4624,2.5472,2.5468,2.5537,2.5542,2.5156,2.5512,2.6508,2.6837,2.696,2.7027,2.7351,2.7417,2.704,2.7027,2.6837,2.6452,2.6589,2.6452,2.6521,2.6837,2.7027,2.704,2.7364,2.7868,2.8298,2.8671,2.9066,2.9518,2.9504,2.9932,3.0249,3.0507,3.0741,3.0377,3.0225,3.0368,3.0505,3.0717,3.0966,3.1265,3.1489,3.1279,3.0932,3.0861,3.0622,3.0115,2.9981,2.9361,2.9406,2.9435,2.9518,2.9355,2.8824,2.7979,2.7103,2.5602,2.4553,2.3826,2.3531,2.3173,2.2871,2.275,2.2677,2.2408,2.2359,2.2101,2.1342,2.0579,1.9879,1.9166,1.8586,1.8076,1.7784,1.7491,1.7248,1.7083,1.6688,1.6338,1.626,1.6335,1.6553,1.6788,1.6968,1.7071,1.6523,1.5422,1.469,1.4208,1.3433,1.2714,1.2463,1.2465,1.292,1.328,1.3744,1.4109,1.4072,1.3954,1.4065,1.4062,1.4082,1.4166,1.4334,1.4179,1.4122,1.4327,1.4536,1.4878,1.514,1.5224,1.5471,2.3588,2.3661,2.4696,2.5533,2.6377,2.6413,2.6438,2.6425,2.5661,2.5671,2.6722,2.7484,2.7789,2.792,2.8376,2.8312,2.7999,2.7802,2.7537,2.6714,2.7027,2.7095,2.7229,2.7417,2.7736,2.8117,2.8376,2.8684,2.9066,2.9442,2.995,3.0404,3.0404,3.078,3.1503,3.1907,3.2191,3.2454,3.2218,3.2277,3.1968,3.1914,3.2027,3.2244,3.2468,3.2535,3.2449,3.2356,3.2341,3.1811,3.1283,3.0502,3.0383,3.0325,3.0401,3.0118,2.9648,2.8853,2.7811,2.6442,2.5283,2.4681,2.435,2.3943,2.359,2.3365,2.3292,2.2944,2.275,2.2506,2.1865,2.1227,2.059,1.9814,1.9177,1.8654,1.8317,1.8046,1.7638,1.755,1.7453,1.7135,1.7184,1.7274,1.7169,1.7687,1.7803,1.7842,1.7456,1.6506,1.5944,1.5406,1.4513,1.3821,1.3824,1.3955,1.4637,1.5031,1.5101,1.5035,1.4909,1.458,1.4146,1.4328,1.4489,1.458,1.4664,1.4671,1.4761,1.4833,1.5081,1.5176,1.5322,1.5384,1.5558,2.4636,2.4719,2.5734,2.6077,2.5892,2.6504,2.6778,2.6882,2.7243,2.737,2.7578,2.8233,2.8671,2.8748,2.9002,2.9002,2.8812,2.8698,2.857,2.8298,2.8233,2.8051,2.8312,2.8505,2.8684,2.8748,2.9002,2.9662,3.0151,3.0615,3.0955,3.1219,3.1249,3.1679,3.2685,3.3022,3.3289,3.3862,3.4155,3.4132,3.4062,3.3751,3.3715,3.4251,3.4634,3.4341,3.4193,3.3999,3.3639,3.3129,3.2919,3.2411,3.1941,3.1501,3.1264,3.1055,3.0253,2.9381,2.8448,2.7187,2.6045,2.5439,2.5063,2.4667,2.4337,2.4118,2.3767,2.3365,2.3005,2.2689,2.2372,2.1803,2.1239,2.0398,1.9628,1.9233,1.8911,1.8462,1.8076,1.8008,1.8008,1.8008,1.8008,1.8008,1.8008,1.7998,1.7978,1.7969,1.8017,1.7427,1.6889,1.6315,1.5506,1.5006,1.498,1.5425,1.6094,1.6019,1.5944,1.5901,1.5816,1.5123,1.4573,1.481,1.497,1.522,1.547,1.5628,1.5701,1.5612,1.5616,1.5763,1.5541,1.5551,1.5678,2.5298,2.533,2.561,2.5722,2.5858,2.6555,2.691,2.7188,2.8502,2.8842,2.8518,2.9163,2.9566,2.969,2.995,2.9766,2.9628,2.958,2.9192,2.9052,2.9178,2.8925,2.9129,2.9552,2.9832,2.9954,3.0852,3.1501,3.166,3.2028,3.2407,3.2064,3.2042,3.2473,3.3427,3.3589,3.394,3.467,3.5314,3.5554,3.5569,3.5118,3.5124,3.5767,3.5915,3.5812,3.6107,3.5891,3.5523,3.479,3.4258,3.3867,3.3196,3.2512,3.2038,3.1573,3.0807,2.9796,2.8974,2.7913,2.6782,2.6385,2.5946,2.5563,2.4951,2.4667,2.4047,2.3649,2.3185,2.2884,2.2641,2.2199,2.1365,2.059,1.9748,1.911,1.8654,1.8212,1.8008,1.8008,1.8008,1.8008,1.8008,1.8008,1.8066,1.8519,1.8462,1.8395,1.8405,1.8212,1.7784,1.7285,1.6437,1.6175,1.6234,1.6738,1.7512,1.7275,1.6896,1.6789,1.6667,1.5613,1.497,1.5621,1.6116,1.6281,1.6437,1.6683,1.6431,1.6226,1.6272,1.6306,1.6021,1.5705,1.5832,2.5627,2.5542,2.5203,2.5356,2.603,2.6796,2.7074,2.7409,2.9301,2.99,2.945,3.006,3.0424,3.0703,3.1102,3.0851,3.0658,3.0464,2.995,2.9907,2.9785,3.0228,3.0468,3.0556,3.1114,3.1784,3.2571,3.2961,3.3203,3.3287,3.3093,3.2803,3.2826,3.3003,3.3485,3.3864,3.4361,3.5516,3.607,3.5973,3.5797,3.5683,3.5991,3.6384,3.6798,3.716,3.7557,3.7616,3.7306,3.6613,3.5568,3.4986,3.4416,3.3607,3.2835,3.2222,3.1315,3.0613,2.9923,2.8556,2.786,2.7339,2.6938,2.639,2.5714,2.5217,2.461,2.393,2.3471,2.3065,2.2823,2.2506,2.1678,2.0974,2.0074,1.9177,1.8664,1.8269,1.8269,1.8269,1.8269,1.8259,1.8202,1.8202,1.8462,1.8911,1.911,1.9044,1.8921,1.8664,1.825,1.792,1.7432,1.7302,1.7385,1.7806,1.8461,1.8561,1.8168,1.7959,1.7496,1.6519,1.6281,1.709,1.7415,1.7334,1.7577,1.7819,1.7422,1.7039,1.7003,1.6936,1.6068,1.5812,1.5965,2.5702,2.5814,2.5709,2.59,2.6308,2.7449,2.7783,2.7777,2.9529,3.0098,2.9963,3.0673,3.1203,3.1263,3.1409,3.1278,3.1161,3.1204,3.1709,3.189,3.1546,3.2038,3.2353,3.2283,3.2924,3.3308,3.3515,3.3566,3.3987,3.3853,3.3598,3.3391,3.2888,3.3529,3.496,3.518,3.5313,3.65,3.7131,3.7071,3.6995,3.6814,3.6446,3.6798,3.7279,3.7515,3.7806,3.7822,3.7706,3.7377,3.6804,3.6102,3.5476,3.4691,3.3761,3.2657,3.1741,3.1102,3.0226,2.9077,2.84,2.8161,2.7665,2.6982,2.6481,2.6176,2.5398,2.4452,2.3872,2.3245,2.3017,2.2944,2.2372,2.1803,2.1101,2.0009,1.9177,1.9177,1.9233,1.9233,1.9299,1.9177,1.8921,1.8977,1.9177,1.9552,1.9944,1.9879,1.9628,1.9233,1.8854,1.8462,1.8202,1.8271,1.8283,1.8543,1.9008,1.9222,1.9186,1.8673,1.8069,1.7423,1.7504,1.831,1.831,1.8149,1.847,1.9002,1.8525,1.8115,1.7997,1.765,1.6657,1.6347,1.6859]},{"header":{"parameterUnit":"m.s-1","parameterCategory":1,"la1":31.0,"la2":29.5877,"lo1":-88.7671,"lo2":-86.6584,"dx":0.0162,"dy":0.0185,"nx":115,"ny":88,"refTime":"2023-01-07T06:00:00:Z","depth":0,"parameterNumber":3,"parameterNumberName":"V-component_of_WINDS"},"data":[0.0,0.0,0.0,0.0,0.0,0.0,0.0,0.0,0.0,0.0,0.0,0.0,0.0,0.0,0.0,0.0,0.0,0.0,0.0,0.0,0.0,0.0,0.0,0.0,0.0,0.0,0.0,0.0,0.0,0.0,0.0,0.0,0.0,0.0,0.0,0.0,0.0,0.0,0.0,0.0,0.0,0.0,0.0,0.0,0.0,0.0,0.0,0.0,0.0,0.0,0.0,0.0,0.0,0.0,0.0,0.0,0.0,0.0,0.0,0.0,0.0,0.0,0.0,0.0,0.0,0.0,0.0,0.0,0.0,0.0,0.0,0.0,0.0,0.0,0.0,0.0,0.0,0.0,0.0,0.0,0.0,0.0,0.0,0.0,0.0,0.0,0.0,0.0,0.0,0.0,0.0,0.0,0.0,0.0,0.0,0.0,0.0,0.0,0.0,0.0,0.0,0.0,0.0,0.0,0.0,0.0,0.0,0.0,0.0,0.0,0.0,0.0,0.0,0.0,0.0,0.0,0.0,0.0,0.0,0.0,0.0,0.0,0.0,0.0,0.0,0.0,0.0,0.0,0.0,0.0,0.0,0.0,0.0,0.0,0.0,0.0,0.0,0.0,0.0,0.0,0.0,0.0,0.0,0.0,0.0,0.0,0.0,0.0,0.0,0.0,0.0,0.0,0.0,0.0,0.0,0.0,0.0,0.0,0.0,0.0,0.0,0.0,0.0,0.0,0.0,0.0,0.0,0.0,0.0,0.0,0.0,0.0,0.0,0.0,0.0,0.0,0.0,0.0,0.0,0.0,0.0,0.0,0.0,0.0,0.0,0.0,0.0,0.0,0.0,0.0,0.0,0.0,0.0,0.0,0.0,0.0,0.0,0.0,0.0,0.0,0.0,0.0,0.0,0.0,0.0,0.0,0.0,0.0,0.0,0.0,0.0,0.0,0.0,0.0,0.0,0.0,0.0,0.0,0.0,0.0,0.0,0.0,0.0,0.0,0.0,0.0,0.0,0.0,0.0,0.0,0.0,0.0,0.0,0.0,0.0,0.0,0.0,0.0,0.0,0.0,0.0,0.0,0.0,0.0,0.0,0.0,0.0,0.0,0.0,0.0,0.0,0.0,0.0,0.0,0.0,0.0,0.0,0.0,0.0,0.0,0.0,0.0,0.0,0.0,0.0,0.0,0.0,0.0,0.0,0.0,0.0,0.0,0.0,0.0,0.0,0.0,0.0,0.0,0.0,0.0,0.0,0.0,0.0,0.0,0.0,0.0,0.0,0.0,0.0,0.0,0.0,0.0,0.0,0.0,0.0,0.0,0.0,0.0,0.0,0.0,0.0,0.0,0.0,0.0,0.0,0.0,0.0,0.0,0.0,0.0,0.0,0.0,0.0,0.0,0.0,0.0,0.0,0.0,0.0,0.0,0.0,0.0,0.0,0.0,0.0,0.0,0.0,0.0,0.0,0.0,0.0,0.0,0.0,0.0,0.0,0.0,0.0,0.0,0.0,0.0,0.0,0.0,0.0,0.0,0.0,0.0,0.0,0.0,0.0,0.0,0.0,0.0,0.0,0.0,0.0,0.0,0.0,0.0,0.0,0.0,0.0,0.0,0.0,0.0,0.0,0.0,0.0,0.0,0.0,0.0,0.0,0.0,0.0,0.0,0.0,0.0,0.0,0.0,0.0,0.0,0.0,0.0,0.0,0.0,0.0,0.0,0.0,0.0,0.0,0.0,0.0,0.0,0.0,0.0,0.0,0.0,0.0,0.0,0.0,0.0,0.0,0.0,0.0,0.0,0.0,0.0,0.0,0.0,0.0,0.0,0.0,0.0,0.0,0.0,0.0,0.0,0.0,0.0,0.0,0.0,0.0,0.0,0.0,0.0,0.0,0.0,0.0,0.0,0.0,0.0,0.0,0.0,0.0,0.0,0.0,0.0,0.0,0.0,0.0,0.0,0.0,0.0,0.0,0.0,0.0,0.0,0.0,0.0,0.0,0.0,0.0,0.0,0.0,0.0,0.0,0.0,0.0,0.0,0.0,0.0,0.0,0.0,0.0,0.0,0.0,0.0,0.0,0.0,0.0,0.0,0.0,0.0,0.0,0.0,0.0,0.0,0.0,0.0,0.0,0.0,0.0,0.0,0.0,0.0,0.0,0.0,0.0,0.0,0.0,0.0,0.0,0.0,0.0,0.0,0.0,0.0,0.0,0.0,0.0,0.0,0.0,0.0,0.0,0.0,0.0,0.0,0.0,0.0,0.0,0.0,0.0,0.0,0.0,0.0,0.0,0.0,0.0,0.0,0.0,0.0,0.0,0.0,0.0,0.0,0.0,0.0,0.0,0.0,0.0,0.0,0.0,0.0,0.0,0.0,0.0,0.0,0.0,0.0,0.0,0.0,0.0,0.0,0.0,0.0,0.0,0.0,0.0,0.0,0.0,0.0,0.0,0.0,0.0,0.0,0.0,0.0,0.0,0.0,0.0,0.0,0.0,0.0,0.0,0.0,0.0,0.0,0.0,0.0,0.0,0.0,0.0,0.0,0.0,0.0,0.0,0.0,0.0,0.0,0.0,0.0,0.0,0.0,0.0,0.0,0.0,0.0,0.0,0.0,0.0,0.0,0.0,0.0,0.0,0.0,0.0,0.0,0.0,0.0,0.0,0.0,0.0,0.0,0.0,0.0,0.0,0.0,0.0,0.0,0.0,0.0,0.0,0.0,0.0,0.0,0.0,0.0,0.0,0.0,0.0,0.0,0.0,0.0,0.0,0.0,0.0,0.0,0.0,0.0,0.0,0.0,0.0,0.0,0.0,0.0,0.0,0.0,0.0,0.0,0.0,0.0,0.0,0.0,0.0,0.0,0.0,0.0,0.0,0.0,0.0,0.0,0.0,0.0,0.0,0.0,0.0,0.0,0.0,0.0,0.0,0.0,0.0,0.0,0.0,0.0,0.0,0.0,0.0,0.0,0.0,0.0,0.0,0.0,0.0,0.0,0.0,0.0,0.0,0.0,0.0,0.0,0.0,0.0,0.0,0.0,0.0,0.0,0.0,0.0,0.0,0.0,0.0,0.0,0.0,0.0,0.0,0.0,0.0,0.0,0.0,0.0,0.0,0.0,0.0,0.0,0.0,0.0,0.0,0.0,0.0,0.0,0.0,0.0,0.0,0.0,0.0,0.0,0.0,0.0,0.0,0.0,0.0,0.0,0.0,0.0,0.0,0.0,0.0,0.0,0.0,0.0,0.0,0.0,0.0,0.0,0.0,0.0,0.0,0.0,0.0,0.0,0.0,0.0,0.0,0.0,0.0,0.0,0.0,0.0,0.0,0.0,0.0,0.0,0.0,0.0,0.0,0.0,0.0,0.0,0.0,0.0,0.0,0.0,0.0,0.0,0.0,0.0,0.0,0.0,0.0,0.0,0.0,0.0,0.0,0.0,0.0,0.0,0.0,0.0,0.0,0.0,0.0,0.0,0.0,0.0,0.0,0.0,0.0,0.0,0.0,0.0,0.0,0.0,0.0,0.0,0.0,0.0,0.0,0.0,0.0,0.0,0.0,0.0,0.0,0.0,0.0,0.0,0.0,0.0,0.0,0.0,0.0,0.0,0.0,0.0,0.0,0.0,0.0,0.0,0.0,0.0,0.0,0.0,0.0,0.0,0.0,0.0,0.0,0.0,0.0,0.0,0.0,0.0,0.0,0.0,0.0,0.0,0.0,0.0,0.0,0.0,0.0,0.0,0.0,0.0,0.0,0.0,0.0,0.0,0.0,0.0,0.0,0.0,0.0,0.0,0.0,0.0,0.0,0.0,0.0,0.0,0.0,0.0,0.0,0.0,0.0,0.0,0.0,0.0,0.0,0.0,0.0,0.0,0.0,0.0,0.0,0.0,0.0,0.0,0.0,0.0,0.0,0.0,0.0,0.0,0.0,0.0,0.0,0.0,0.0,0.0,0.0,0.0,0.0,0.0,0.0,0.0,0.0,0.0,0.0,0.0,0.0,0.0,0.0,0.0,0.0,0.0,0.0,0.0,0.0,0.0,0.0,0.0,0.0,0.0,0.0,0.0,0.0,0.0,0.0,0.0,0.0,0.0,0.0,0.0,0.0,0.0,0.0,0.0,0.0,0.0,0.0,0.0,0.0,0.0,0.0,0.0,0.0,0.0,0.0,0.0,0.0,0.0,0.0,0.0,0.0,0.0,0.0,0.0,0.0,0.0,0.0,0.0,0.0,0.0,0.0,0.0,0.0,0.0,0.0,0.0,0.0,0.0,-0.6972,0.0,0.0,0.0,-0.6972,0.0,0.0,0.0,0.0,0.0,0.0,0.0,0.0,0.0,0.0,0.0,0.0,0.0,0.0,0.0,0.0,0.0,0.0,0.0,0.0,0.0,0.0,0.0,0.0,0.0,0.0,0.0,0.0,0.0,0.0,0.0,0.0,0.0,0.0,0.0,0.0,0.0,0.0,0.0,0.0,0.0,0.0,0.0,0.0,0.0,0.0,0.0,0.0,0.0,0.0,0.0,0.0,0.0,0.0,0.0,0.0,0.0,0.0,0.0,0.0,0.0,0.0,0.0,0.0,0.0,0.0,0.0,0.0,0.0,0.0,0.0,0.0,0.0,0.0,0.0,0.0,0.0,0.0,0.0,0.0,0.0,0.0,0.0,0.0,0.0,0.0,0.0,0.0,0.0,0.0,0.0,0.0,0.0,0.0,0.0,0.0,0.0,0.0,0.0,0.0,0.0,0.0,0.0,0.0,0.0,0.0,0.0,0.0,0.0,0.0,-0.6972,-0.6972,-0.6972,-0.6972,-0.6972,0.0,0.0,0.0,0.0,0.0,0.0,0.0,0.0,0.0,0.0,0.0,0.0,0.0,0.0,0.0,0.0,0.0,0.0,0.0,0.0,0.0,0.0,0.0,0.0,0.0,0.0,0.0,0.0,0.0,0.0,0.0,0.0,0.0,0.0,0.0,0.0,0.0,0.0,0.0,0.0,0.0,0.0,0.0,0.0,0.0,0.0,0.0,0.0,0.0,0.0,0.0,0.0,0.0,0.0,0.0,0.0,0.0,0.0,0.0,0.0,0.0,0.0,0.0,0.0,0.0,0.0,0.0,0.0,0.0,0.0,0.0,0.0,0.0,0.0,0.0,0.0,0.0,0.0,0.0,0.0,0.0,0.0,0.0,0.0,0.0,0.0,0.0,0.0,0.0,0.0,0.0,0.0,0.0,0.0,0.0,0.0,0.0,0.0,0.0,0.0,0.0,0.0,0.0,0.0,0.0,0.0,0.0,0.0,0.0,0.0,0.0,0.0,-0.6972,-0.6987,-0.6921,0.0,0.0,0.0,0.0,0.0,0.0,0.0,0.0,0.0,0.0,0.0,0.0,0.0,0.0,0.0,0.0,0.0,0.0,0.0,0.0,0.0,0.0,0.0,0.0,0.0,0.0,0.0,0.0,0.0,0.0,0.0,0.0,0.0,0.0,0.0,0.0,0.0,0.0,0.0,0.0,0.0,0.0,0.0,0.0,0.0,0.0,0.0,0.0,0.0,0.0,0.0,0.0,0.0,0.0,0.0,0.0,0.0,0.0,0.0,0.0,0.0,0.0,0.0,0.0,0.0,0.0,0.0,0.0,0.0,0.0,0.0,0.0,0.0,0.0,0.0,0.0,0.0,0.0,0.0,0.0,0.0,0.0,0.0,0.0,0.0,0.0,0.0,0.0,0.0,0.0,0.0,0.0,0.0,0.0,0.0,0.0,0.0,0.0,0.0,0.0,0.0,0.0,0.0,0.0,0.0,0.0,0.0,0.0,0.0,0.0,-0.6972,-0.6972,-0.6972,0.0,-0.6647,0.0,0.0,0.0,0.0,0.0,0.0,0.0,0.0,0.0,0.0,0.0,0.0,0.0,0.0,0.0,0.0,0.0,0.0,0.0,0.0,0.0,0.0,0.0,0.0,0.0,0.0,0.0,0.0,0.0,0.0,0.0,0.0,0.0,0.0,0.0,0.0,0.0,0.0,0.0,0.0,0.0,0.0,0.0,0.0,0.0,0.0,0.0,0.0,0.0,0.0,0.0,0.0,0.0,0.0,0.0,0.0,0.0,0.0,0.0,0.0,0.0,0.0,0.0,0.0,0.0,0.0,0.0,0.0,0.0,0.0,0.0,0.0,0.0,0.0,0.0,0.0,0.0,0.0,0.0,0.0,0.0,0.0,0.0,0.0,0.0,0.0,0.0,0.0,0.0,0.0,0.0,0.0,0.0,0.0,0.0,0.0,0.0,0.0,0.0,0.0,0.0,0.0,0.0,0.0,0.0,0.0,0.0,0.0,0.0,0.0,-0.6972,-0.6972,-0.686,-0.6713,0.0,0.0,0.0,0.0,0.0,0.0,0.0,0.0,0.0,0.0,0.0,0.0,0.0,0.0,0.0,0.0,0.0,0.0,0.0,0.0,0.0,0.0,0.0,0.0,0.0,0.0,0.0,0.0,0.0,0.0,0.0,0.0,0.0,0.0,0.0,0.0,0.0,0.0,0.0,0.0,0.0,0.0,0.0,0.0,0.0,0.0,0.0,0.0,0.0,0.0,0.0,0.0,0.0,0.0,0.0,0.0,0.0,0.0,0.0,0.0,0.0,0.0,0.0,0.0,0.0,0.0,0.0,0.0,0.0,0.0,0.0,0.0,0.0,0.0,0.0,0.0,0.0,0.0,0.0,0.0,0.0,0.0,0.0,0.0,0.0,0.0,0.0,0.0,0.0,0.0,0.0,0.0,0.0,0.0,0.0,0.0,0.0,0.0,0.0,0.0,0.0,0.0,0.0,0.0,0.0,0.0,0.0,0.0,0.0,0.0,-0.6972,-0.6972,-0.6965,-0.682,-0.6633,-0.6518,0.0,0.0,0.0,0.0,0.0,0.0,0.0,0.0,0.0,0.0,0.0,0.0,0.0,0.0,0.0,0.0,0.0,0.0,0.0,0.0,0.0,0.0,0.0,0.0,0.0,0.0,0.0,0.0,0.0,0.0,0.0,0.0,0.0,0.0,0.0,0.0,0.0,0.0,0.0,0.0,0.0,0.0,0.0,0.0,0.0,0.0,0.0,0.0,0.0,0.0,0.0,0.0,0.0,0.0,0.0,0.0,0.0,0.0,0.0,0.0,0.0,0.0,0.0,0.0,0.0,0.0,0.0,0.0,0.0,0.0,0.0,0.0,0.0,0.0,0.0,0.0,0.0,0.0,0.0,0.0,0.0,0.0,0.0,0.0,0.0,0.0,0.0,0.0,0.0,0.0,0.0,0.0,0.0,0.0,0.0,0.0,0.0,0.0,0.0,0.0,0.0,0.0,0.0,0.0,0.0,0.0,0.0,0.0,-0.6972,-0.6972,-0.6972,-0.6972,-0.7007,-0.674,0.0,0.0,0.0,0.0,0.0,0.0,0.0,0.0,0.0,0.0,0.0,0.0,0.0,0.0,0.0,0.0,0.0,0.0,0.0,0.0,0.0,0.0,0.0,0.0,0.0,0.0,0.0,0.0,0.0,0.0,0.0,0.0,0.0,0.0,0.0,0.0,0.0,0.0,0.0,0.0,0.0,0.0,0.0,0.0,0.0,0.0,0.0,0.0,0.0,0.0,0.0,0.0,0.0,0.0,0.0,0.0,0.0,0.0,0.0,0.0,0.0,0.0,0.0,0.0,0.0,0.0,0.0,0.0,0.0,0.0,0.0,0.0,0.0,0.0,0.0,0.0,0.0,0.0,0.0,0.0,0.0,0.0,0.0,0.0,0.0,0.0,0.0,0.0,0.0,0.0,0.0,0.0,0.0,0.0,0.0,0.0,0.0,0.0,0.0,0.0,0.0,0.0,0.0,0.0,0.0,0.0,0.0,0.0,0.0,-0.6943,-0.6985,-0.6972,-0.6965,-0.6667,-0.6404,0.0,0.0,0.0,0.0,0.0,0.0,0.0,0.0,0.0,0.0,0.0,0.0,0.0,0.0,0.0,0.0,0.0,0.0,0.0,0.0,0.0,0.0,0.0,0.0,0.0,0.0,0.0,0.0,0.0,0.0,0.0,0.0,0.0,0.0,0.0,0.0,0.0,0.0,0.0,0.0,0.0,0.0,0.0,0.0,0.0,0.0,0.0,0.0,0.0,0.0,0.0,0.0,0.0,0.0,0.0,0.0,0.0,0.0,0.0,0.0,0.0,0.0,0.0,0.0,0.0,0.0,0.0,0.0,0.0,0.0,0.0,0.0,0.0,0.0,0.0,0.0,0.0,0.0,0.0,0.0,0.0,0.0,0.0,0.0,0.0,0.0,0.0,0.0,0.0,0.0,0.0,0.0,0.0,0.0,0.0,0.0,0.0,0.0,0.0,0.0,0.0,0.0,0.0,0.0,0.0,0.0,0.0,0.0,0.0,-0.6829,-0.6865,-0.6943,-0.6972,-0.6607,-0.6359,0.0,0.0,0.0,0.0,0.0,0.0,0.0,0.0,0.0,0.0,0.0,0.0,0.0,0.0,0.0,0.0,0.0,0.0,0.0,0.0,0.0,0.0,0.0,0.0,0.0,0.0,0.0,0.0,0.0,0.0,0.0,0.0,0.0,0.0,0.0,0.0,0.0,0.0,0.0,0.0,0.0,0.0,0.0,0.0,0.0,0.0,0.0,0.0,0.0,0.0,0.0,0.0,0.0,0.0,0.0,0.0,0.0,0.0,0.0,0.0,0.0,0.0,0.0,0.0,0.0,0.0,0.0,0.0,0.0,0.0,0.0,0.0,0.0,0.0,0.0,0.0,0.0,0.0,0.0,0.0,0.0,0.0,0.0,0.0,0.0,0.0,0.0,0.0,0.0,0.0,0.0,0.0,0.0,0.0,0.0,0.0,0.0,0.0,0.0,0.0,0.0,0.0,0.0,0.0,0.0,0.0,0.0,0.0,-0.6496,-0.6666,-0.6715,-0.6745,-0.6878,-0.6881,-0.6659,0.0,0.0,0.0,0.0,0.0,0.0,0.0,0.0,0.0,0.0,0.0,0.0,0.0,0.0,0.0,0.0,0.0,0.0,0.0,0.0,0.0,0.0,0.0,0.0,0.0,0.0,0.0,0.0,0.0,0.0,0.0,0.0,0.0,0.0,0.0,0.0,0.0,0.0,0.0,0.0,0.0,0.0,0.0,0.0,0.0,0.0,0.0,0.0,0.0,0.0,0.0,0.0,0.0,0.0,0.0,0.0,0.0,0.0,0.0,0.0,0.0,0.0,0.0,0.0,0.0,0.0,0.0,0.0,0.0,0.0,0.0,0.0,0.0,0.0,0.0,0.0,0.0,0.0,0.0,0.0,0.0,0.0,0.0,0.0,0.0,0.0,0.0,0.0,0.0,0.0,0.0,0.0,0.0,0.0,0.0,0.0,0.0,0.0,0.0,0.0,0.0,0.0,0.0,0.0,0.0,0.0,0.0,0.0,0.0,-0.6526,-0.6575,-0.6623,-0.6745,-0.6594,-0.6277,0.0,0.0,0.0,0.0,0.0,0.0,0.0,0.0,0.0,0.0,0.0,0.0,0.0,0.0,0.0,0.0,0.0,0.0,0.0,0.0,0.0,0.0,0.0,0.0,0.0,0.0,0.0,0.0,0.0,0.0,0.0,0.0,0.0,0.0,0.0,0.0,0.0,0.0,0.0,0.0,0.0,0.0,0.0,0.0,0.0,0.0,0.0,0.0,0.0,0.0,0.0,0.0,0.0,0.0,0.0,0.0,0.0,0.0,0.0,0.0,0.0,0.0,0.0,0.0,0.0,0.0,0.0,0.0,0.0,0.0,0.0,0.0,0.0,0.0,0.0,0.0,0.0,0.0,0.0,0.0,0.0,0.0,0.0,0.0,0.0,0.0,0.0,0.0,0.0,0.0,0.0,0.0,0.0,0.0,0.0,0.0,0.0,0.0,0.0,0.0,0.0,0.0,0.0,0.0,0.0,0.0,0.0,0.0,0.0,-0.6457,-0.6594,-0.6681,-0.6818,-0.6641,-0.6272,-0.562,0.0,0.0,0.0,0.0,0.0,0.0,0.0,0.0,0.0,0.0,0.0,0.0,0.0,0.0,0.0,0.0,0.0,0.0,0.0,0.0,0.0,0.0,0.0,0.0,0.0,0.0,0.0,0.0,0.0,0.0,0.0,0.0,0.0,0.0,0.0,0.0,0.0,0.0,0.0,0.0,0.0,0.0,0.0,0.0,0.0,0.0,0.0,0.0,0.0,0.0,0.0,0.0,0.0,0.0,0.0,0.0,0.0,0.0,0.0,0.0,0.0,0.0,0.0,0.0,0.0,0.0,0.0,0.0,0.0,0.0,0.0,0.0,0.0,0.0,0.0,0.0,0.0,0.0,0.0,0.0,0.0,0.0,0.0,0.0,0.0,0.0,0.0,0.0,0.0,0.0,0.0,0.0,0.0,0.0,0.0,0.0,0.0,0.0,0.0,0.0,0.0,0.0,0.0,0.0,0.0,0.0,0.0,0.0,-0.6418,-0.6619,-0.6842,-0.7044,-0.6935,-0.6465,0.0,0.0,0.0,0.0,0.0,0.0,0.0,0.0,0.0,0.0,0.0,0.0,0.0,0.0,0.0,0.0,0.0,0.0,0.0,0.0,0.0,0.0,0.0,0.0,0.0,0.0,0.0,0.0,0.0,0.0,0.0,0.0,0.0,0.0,0.0,0.0,0.0,0.0,0.0,0.0,0.0,0.0,0.0,0.0,0.0,0.0,0.0,0.0,0.0,0.0,0.0,0.0,0.0,0.0,0.0,0.0,0.0,0.0,0.0,0.0,0.0,0.0,0.0,0.0,0.0,0.0,0.0,0.0,0.0,0.0,0.0,0.0,0.0,0.0,0.0,0.0,0.0,0.0,0.0,0.0,0.0,0.0,0.0,0.0,0.0,0.0,0.0,0.0,0.0,0.0,0.0,0.0,0.0,0.0,0.0,0.0,0.0,0.0,0.0,0.0,0.0,0.0,0.0,0.0,0.0,0.0,0.0,0.0,0.0,-0.5793,-0.6012,-0.6558,-0.7393,-0.6435,-0.5804,0.0,0.0,0.0,0.0,0.0,0.0,0.0,0.0,0.0,0.0,0.0,0.0,0.0,0.0,0.0,0.0,0.0,0.0,0.0,0.0,0.0,0.0,0.0,0.0,0.0,0.0,0.0,0.0,0.0,0.0,0.0,0.0,0.0,0.0,0.0,0.0,0.0,0.0,0.0,0.0,0.0,0.0,0.0,0.0,0.0,0.0,0.0,0.0,0.0,0.0,0.0,0.0,0.0,0.0,0.0,0.0,0.0,0.0,0.0,0.0,0.0,0.0,0.0,0.0,0.0,0.0,0.0,0.0,0.0,0.0,0.0,0.0,0.0,0.0,0.0,0.0,0.0,0.0,0.0,0.0,0.0,0.0,0.0,0.0,0.0,0.0,0.0,0.0,0.0,0.0,0.0,0.0,0.0,0.0,0.0,0.0,0.0,0.0,0.0,0.0,0.0,0.0,0.0,0.0,0.0,0.0,0.0,0.0,-0.4978,-0.5717,-0.5462,-0.5962,-0.7287,-0.6293,-0.567,0.0,0.0,0.0,0.0,0.0,0.0,0.0,0.0,0.0,0.0,0.0,0.0,0.0,0.0,0.0,0.0,0.0,0.0,0.0,0.0,0.0,0.0,0.0,0.0,0.0,0.0,0.0,0.0,0.0,0.0,0.0,0.0,0.0,0.0,0.0,0.0,0.0,0.0,0.0,0.0,0.0,0.0,0.0,0.0,0.0,0.0,0.0,0.0,0.0,0.0,0.0,0.0,0.0,0.0,0.0,0.0,0.0,0.0,0.0,0.0,0.0,0.0,0.0,0.0,0.0,0.0,0.0,0.0,0.0,0.0,0.0,0.0,0.0,0.0,0.0,0.0,0.0,0.0,0.0,0.0,0.0,0.0,0.0,0.0,0.0,0.0,0.0,0.0,0.0,0.0,0.0,0.0,0.0,0.0,0.0,0.0,0.0,0.0,0.0,0.0,0.0,0.0,0.0,0.0,0.0,0.0,0.0,0.0,-0.4801,-0.5731,-0.4953,-0.521,-0.6709,-0.6221,-0.5733,0.0,0.0,0.0,0.0,0.0,0.0,0.0,0.0,0.0,0.0,0.0,0.0,0.0,0.0,0.0,0.0,0.0,0.0,0.0,0.0,0.0,0.0,0.0,0.0,0.0,0.0,0.0,0.0,0.0,0.0,0.0,0.0,0.0,0.0,0.0,0.0,0.0,0.0,0.0,0.0,0.0,0.0,0.0,0.0,0.0,0.0,0.0,0.0,0.0,0.0,0.0,0.0,0.0,0.0,0.0,0.0,0.0,0.0,0.0,0.0,0.0,0.0,0.0,0.0,0.0,0.0,0.0,0.0,0.0,0.0,0.0,0.0,0.0,0.0,0.0,0.0,0.0,0.0,0.0,0.0,0.0,0.0,0.0,0.0,0.0,0.0,0.0,0.0,0.0,0.0,0.0,0.0,0.0,0.0,0.0,0.0,0.0,0.0,0.0,0.0,0.0,0.0,0.0,0.0,0.0,0.0,0.0,0.0,-0.4459,-0.4845,-0.4731,-0.5109,-0.5993,-0.534,-0.5109,0.0,0.0,0.0,0.0,0.0,0.0,0.0,0.0,0.0,0.0,0.0,0.0,0.0,0.0,0.0,0.0,0.0,0.0,0.0,0.0,0.0,0.0,0.0,0.0,0.0,0.0,0.0,0.0,0.0,0.0,0.0,0.0,0.0,0.0,0.0,0.0,0.0,0.0,0.0,0.0,0.0,0.0,0.0,0.0,0.0,0.0,0.0,0.0,0.3354,0.0,0.0,0.0,0.0,0.0,0.0,0.0,0.0,0.0,0.0,0.0,0.0,0.0,0.0,0.0,0.0,0.0,0.0,0.0,0.0,0.0,0.0,0.0,0.0,0.0,0.0,0.0,0.0,0.0,0.0,0.0,0.0,0.0,0.0,0.0,0.0,0.0,0.0,0.0,0.0,0.0,0.0,0.0,0.0,0.0,0.0,0.0,0.0,0.0,0.0,0.0,0.0,0.0,0.0,0.0,0.0,0.0,0.0,0.0,-0.4306,-0.4731,-0.4707,-0.4896,-0.5361,-0.4969,-0.4939,0.0,0.0,0.0,0.0,0.0,0.0,0.0,0.0,0.0,0.0,0.0,0.0,0.0,0.0,0.0,0.0,0.0,0.0,0.0,0.0,0.0,0.0,0.0,0.0,0.0,0.0,0.0,0.0,0.0,0.0,0.0,0.0,0.0,0.0,0.0,0.0,0.0,0.0,0.0,0.0,0.0,0.0,0.0,0.0,0.0,0.0,0.0,0.0,0.0,0.0,0.0,0.0,0.0,0.0,0.0,0.0,0.0,0.0,0.0,0.0,0.0,0.0,0.0,0.0,0.0,0.0,0.0,0.0,0.0,0.0,0.0,0.0,0.0,0.0,0.0,0.0,0.0,0.0,0.0,0.0,0.0,0.0,0.0,0.0,0.0,0.0,0.0,0.0,0.0,0.0,0.0,0.0,0.0,0.0,0.0,0.0,0.0,0.0,0.0,0.0,0.0,0.0,0.0,0.0,0.0,0.0,0.0,-0.3746,-0.425,-0.4879,-0.4786,-0.4789,-0.4911,-0.4934,-0.4963,-0.4976,0.0,0.0,0.0,0.0,0.0,0.0,0.0,0.0,0.0,0.0,0.0,0.0,0.0,0.0,0.0,0.0,0.0,0.0,0.0,0.0,0.0,0.0,0.0,0.0,0.0,0.0,0.0,0.0,0.0,0.0,0.0,0.0,0.0,0.0,0.0,0.0,0.0,0.0,0.4026,0.4323,0.0,0.0,0.0,0.0,0.0,0.0,0.0,0.0,0.4295,0.0,0.0,0.0,0.0,0.0,0.0,0.0,0.0,0.0,0.0,0.0,0.0,0.0,0.0,0.0,0.0,0.0,0.0,0.0,0.0,0.0,0.0,0.0,0.0,0.0,0.0,0.0,0.0,0.0,0.0,0.0,0.0,0.0,0.0,0.0,0.0,0.0,0.0,0.0,0.0,0.0,0.0,0.0,0.0,0.0,0.0,0.0,0.0,0.0,0.0,0.0,0.0,0.0,0.0,0.0,0.0,-0.315,-0.3544,-0.4138,-0.4863,-0.4884,-0.4894,-0.4914,-0.5385,-0.5189,-0.4251,0.0,0.0,0.0,0.0,0.0,0.0,0.0,0.0,0.0,0.0,0.0,0.0,0.0,0.0,0.0,0.0,0.0,0.0,0.0,0.0,0.0,0.0,0.0,0.0,0.0,0.0,0.0,0.0,0.0,0.0,0.0,0.0,0.0,0.0,0.0,0.0,0.0,0.0,0.0,0.54,0.555,0.0,0.0,0.0,0.0,0.0,0.0,0.0,0.0,0.5623,0.0,0.0,0.0,0.0,0.0,0.0,0.0,0.0,0.0,0.0,0.0,0.0,0.0,0.0,0.0,0.0,0.0,0.0,0.0,0.0,0.0,0.0,0.0,0.0,0.0,0.0,0.0,0.0,0.0,0.0,0.0,0.0,0.0,0.0,0.0,0.0,0.0,0.0,0.0,0.0,0.0,0.0,0.0,0.0,0.0,0.0,0.0,0.0,0.0,0.0,0.0,0.0,0.0,0.0,0.0,-0.2844,-0.3597,-0.4301,-0.4901,-0.4918,-0.4918,-0.4914,-0.498,-0.4645,0.0,0.0,0.0,0.0,0.0,0.0,0.0,0.0,0.0,0.0,0.0,0.0,0.0,0.0,0.0,0.0,0.0,0.0,0.0,0.0,0.0,0.0,0.0,0.0,0.0,0.0,0.0,0.0,0.0,0.0,0.0,0.0,0.0,0.0,0.0,0.0,0.0,0.0,0.0,0.0,0.6097,0.6221,0.6319,0.0,0.0,0.0,0.0,0.0,0.0,0.6582,0.6517,0.0,0.0,0.0,0.0,0.0,0.0,0.0,0.0,0.0,0.0,0.0,0.0,0.0,0.0,0.0,0.0,0.0,0.0,0.0,0.0,0.0,0.0,0.0,0.0,0.0,0.0,0.0,0.0,0.0,0.0,0.0,0.0,0.0,0.0,0.0,0.0,0.0,0.0,0.0,0.0,0.0,0.0,0.0,0.0,0.0,0.0,0.0,0.0,0.0,0.0,0.0,0.0,0.0,0.0,0.0,-0.2251,-0.3268,-0.3957,-0.4409,-0.461,-0.4674,-0.4607,-0.44,-0.4089,0.0,0.0,0.0,0.0,0.0,0.0,0.0,0.0,0.0,0.0,0.0,0.0,0.0,0.0,0.0,0.0,0.0,0.0,0.0,0.0,0.0,0.0,0.0,0.0,0.0,0.0,0.0,0.0,0.0,0.0,0.0,0.0,0.0,0.0,0.0,0.0,0.0,0.0,0.0,0.0,0.0,0.6738,0.6914,0.6999,0.0,0.0,0.0,0.0,0.7399,0.7616,0.0,0.0,0.0,0.0,0.0,0.0,0.0,0.0,0.0,0.0,0.0,0.0,0.0,0.0,0.0,0.0,0.0,0.0,0.0,0.0,0.0,0.0,0.0,0.0,0.0,0.0,0.0,0.0,0.0,0.0,0.0,0.0,0.0,0.0,0.0,0.0,0.0,0.0,0.0,0.0,0.0,0.0,0.0,0.0,0.0,0.0,0.0,0.0,0.0,0.0,0.0,0.0,0.0,0.0,0.0,0.0,-0.1101,-0.1673,-0.2242,-0.2751,-0.3564,-0.387,-0.3745,-0.4107,-0.3988,0.0,0.0,0.0,0.0,0.0,0.0,0.0,0.0,0.0,0.0,0.0,0.0,0.0,0.0,0.0,0.0,0.0,0.0,0.0,0.0,0.0,0.0,0.0,0.0,0.0,0.0,0.0,0.0,0.0,0.0,0.0,0.0,0.0,0.0,0.0,0.0,0.0,0.0,0.0,0.0,0.0,0.7132,0.7174,0.7321,0.7474,0.0,0.0,0.9143,0.8597,0.9494,0.0,0.0,0.0,0.0,0.0,0.0,0.0,0.0,0.0,0.0,0.0,0.0,0.0,0.0,0.0,0.0,0.0,0.0,0.0,0.0,0.0,0.0,0.0,0.0,0.0,0.0,0.0,0.0,0.0,0.0,0.0,0.0,0.0,0.0,0.0,0.0,0.0,0.0,0.0,0.0,0.0,0.0,0.0,0.0,0.0,0.0,0.0,0.0,0.0,0.0,0.0,0.0,0.0,0.0,0.0,-0.0137,-0.0501,-0.1625,-0.2259,-0.2514,-0.2889,-0.3256,-0.3625,-0.3295,-0.3077,0.0,0.0,0.0,0.0,0.0,0.0,0.0,0.0,0.0,0.0,0.0,0.0,0.0,0.0,0.0,0.0,0.0,0.0,0.0,0.0,0.0,0.0,0.0,0.0,0.0,0.0,0.0,0.0,0.0,0.0,0.0,0.0,0.0,0.0,0.0,0.0,0.0,0.0,0.0,0.0,0.0,0.0,0.8543,0.872,0.0,0.0,0.0,1.0006,1.0263,0.0,0.0,0.0,0.0,0.0,0.0,0.0,0.0,0.0,0.0,0.0,0.0,0.0,0.0,0.0,0.0,0.0,0.0,0.0,0.0,0.0,0.0,0.0,0.0,0.0,0.0,0.0,0.0,0.0,0.0,0.0,0.0,0.0,0.0,0.0,0.0,0.0,0.0,0.0,0.0,0.0,0.0,0.0,0.0,0.0,0.0,0.0,0.0,0.0,0.0,0.0,0.0,0.0,0.0,0.0,0.0,0.0,0.0451,-0.0668,-0.1249,-0.1286,-0.1668,-0.21,-0.2635,-0.2333,0.0,0.0,0.0,0.0,0.0,0.0,0.0,0.0,0.0,0.0,0.0,0.0,0.0,0.0,0.0,0.0,0.0,0.0,0.0,0.0,0.0,0.0,0.0,0.0,0.0,0.0,0.0,0.5055,0.0,0.0,0.0,0.0,0.0,0.0,0.0,0.0,0.0,0.0,0.0,0.0,0.0,0.0,1.002,1.002,1.0203,1.0514,0.0,0.0,1.1203,1.1778,1.2227,1.2273,0.0,0.0,0.0,0.0,0.0,0.0,0.0,0.0,0.0,0.0,0.0,0.0,0.0,0.0,0.0,0.0,0.0,0.0,0.0,0.0,0.0,0.0,0.0,0.0,0.0,0.0,0.0,0.0,0.0,0.0,0.0,0.0,0.0,0.0,0.0,0.0,0.0,0.0,0.0,0.0,0.0,0.0,0.0,0.0,0.0,0.0,0.0,0.0,0.0,0.0,0.0,0.0,0.0,0.0,0.0,0.2309,0.2228,0.2142,0.2087,0.0629,-0.0126,-0.0061,-0.1422,-0.1861,0.0,0.0,0.0,0.0,0.0,0.0,0.0,0.0,0.0,0.0,0.0,0.0,0.0,0.0,0.0,0.0,0.0,0.0,0.0,0.0,0.0,0.0,0.0,0.0,0.0,0.0,0.0,0.0,0.0,0.0,0.0,0.0,0.0,0.0,0.0,0.0,0.0,0.0,0.0,0.0,0.0,1.1105,1.1105,1.1498,1.1897,0.0,0.0,1.3091,1.2848,1.3755,1.4071,1.2774,0.0,0.0,0.0,0.0,0.0,0.0,0.0,0.0,0.0,0.0,0.0,0.0,0.0,0.0,0.0,0.0,0.0,0.0,0.0,0.0,0.0,0.0,0.0,0.0,0.0,0.0,0.0,0.0,0.0,0.0,0.0,0.0,0.0,0.0,0.0,0.0,0.0,0.0,0.0,0.0,0.0,0.0,0.0,0.0,0.0,0.0,0.0,0.0,0.0,0.0,0.0,0.0,0.0,0.2876,0.3008,0.2676,0.25,0.2456,0.1956,0.1452,0.0858,0.0178,-0.0165,0.0,0.0,0.0,0.0,0.0,0.0,0.0,0.0,0.0,0.0,0.0,0.0,0.0,0.0,0.0,0.0,0.0,0.0,0.0,0.0,0.0,0.0,0.0,0.0,0.0,0.0,0.0,0.0,0.778,0.8394,0.8921,0.0,0.0,0.0,0.0,0.0,0.0,0.0,0.0,0.0,0.0,1.2973,1.3447,1.3415,0.0,0.0,1.4228,1.4407,1.4406,1.5302,1.5499,1.4087,1.4012,0.0,0.0,0.0,0.0,0.0,0.0,0.0,0.0,0.0,0.0,0.0,0.0,0.0,0.0,0.0,0.0,0.0,0.0,0.0,0.0,0.0,0.0,0.0,0.0,0.0,0.0,0.0,0.0,0.0,0.0,0.0,0.0,0.0,0.0,0.0,0.0,0.0,0.0,0.0,0.0,0.0,0.0,0.0,0.0,0.0,0.0,0.0,0.0,0.0,0.0,0.0,0.0,0.3922,0.4189,0.4033,0.3946,0.3912,0.3869,0.3441,0.2537,0.2047,0.1633,0.0,0.0,0.0,0.0,0.0,0.0,0.0,0.0,0.0,0.0,0.0,0.0,0.0,0.0,0.0,0.0,0.0,0.0,0.0,0.0,0.0,0.0,0.0,0.0,0.0,0.0,0.0,0.0,0.8734,0.9456,0.9786,0.0,0.0,0.0,0.0,0.0,0.0,0.0,0.0,0.0,0.0,1.5072,1.58,1.5541,1.5447,1.5922,1.5884,1.5928,1.6176,1.6804,1.6901,1.5826,0.0,0.0,0.0,0.0,0.0,0.0,0.0,0.0,0.0,0.0,0.0,0.0,0.0,0.0,0.0,0.0,0.0,0.0,0.0,0.0,0.0,0.0,0.0,0.0,0.0,0.0,0.0,0.0,0.0,0.0,0.2162,0.0,0.0,0.0,0.0,0.0,0.0,0.0,0.0,0.0,0.0,0.0,0.0,0.0,0.0,0.0,0.0,0.0,0.0,0.0,0.0,0.0,0.0,0.5924,0.6272,0.6829,0.7161,0.7176,0.6737,0.6065,0.522,0.4262,0.337,0.2556,0.0,0.0,0.0,0.0,0.0,0.0,0.0,0.0,0.0,0.0,0.0,0.0,0.0,0.0,0.0,0.0,0.0,0.0,0.0,0.0,0.0,0.0,0.0,0.0,0.0,0.0,0.8067,0.9316,1.0235,0.0,0.0,0.0,0.0,0.0,0.0,0.0,0.0,0.0,0.0,1.678,1.735,1.7928,1.784,1.7733,1.7959,1.7854,1.7814,1.8013,1.8145,1.8232,0.0,0.0,0.0,0.0,0.0,0.0,0.0,0.0,0.0,0.0,0.0,0.0,0.0,0.0,0.0,0.0,0.0,0.0,0.0,0.0,0.0,0.0,0.0,0.0,0.0,0.0,0.0,0.4596,0.453,0.0,0.0,0.0,0.0,0.0,0.0,0.0,0.0,0.0,0.0,0.0,0.6815,0.6866,0.0,0.0,0.0,0.0,0.0,0.0,0.0,0.0,0.0,0.0,0.0,0.0,0.7413,0.7947,0.8465,0.8891,0.9194,0.8612,0.817,0.7773,0.5844,0.4243,0.3026,0.0,0.0,0.0,0.0,0.0,0.0,0.0,0.0,0.0,0.0,0.0,0.0,0.0,0.0,0.0,0.0,0.0,0.0,0.0,0.0,0.0,0.0,0.0,0.0,0.0,0.9896,0.0,0.0,0.0,0.0,0.0,0.0,0.0,0.0,0.0,0.0,0.0,1.7234,1.8251,1.8195,1.8331,1.9126,1.8919,1.8717,0.0,0.0,0.0,0.0,0.0,0.0,0.0,0.0,0.0,0.0,0.0,0.0,0.0,0.0,1.9278,1.7583,1.7876,1.8397,1.8438,0.0,0.0,0.0,0.0,0.0,0.0,0.0,0.0,0.0,0.0,0.0,0.0,0.0,0.0,0.6374,0.0,0.613,0.0,0.0,0.0,0.0,0.0,0.0,0.0,0.0,0.7847,0.8371,0.8943,0.9097,0.9051,0.0,0.97,0.93,0.0,0.0,0.0,0.0,0.0,0.0,0.0,0.0,0.8943,0.9771,1.0147,1.0573,1.1012,1.0725,1.0354,0.9923,0.7732,0.582,0.4254,0.4199,0.4312,0.0,0.0,0.0,0.0,0.0,0.0,0.0,0.0,0.0,0.0,0.0,0.0,0.0,0.0,0.0,0.0,0.0,0.0,0.0,0.0,0.0,0.0,0.0,1.1655,0.0,0.0,0.0,0.0,0.0,0.0,0.0,0.0,0.0,1.7002,1.8059,1.9248,2.0305,1.9872,1.9752,2.0605,0.0,0.0,0.0,0.0,0.0,0.0,0.0,2.1342,2.0608,2.0698,2.0967,2.118,2.2068,2.2961,2.3646,0.0,0.0,2.081,2.1,2.149,2.1546,2.2236,2.2948,2.3323,2.3528,2.378,0.0,0.0,0.0,0.0,0.0,0.0,0.0,0.0,0.8026,0.7933,0.0,0.7778,0.0,0.0,0.0,0.0,0.0,0.7883,0.0,0.0,1.0065,1.0792,1.1559,1.1953,1.211,1.2022,1.2378,1.2339,1.1843,1.0863,0.0,0.0,0.0,0.0,0.0,0.0,1.0597,1.1733,1.1978,1.2318,1.2772,1.3007,1.2655,1.179,1.0093,0.8261,0.6326,0.6073,0.5791,0.5464,0.561,0.0,0.0,0.0,0.0,0.0,0.0,0.0,0.0,0.0,0.0,0.0,0.0,0.0,0.0,0.0,0.0,0.0,0.0,0.0,0.0,1.2354,0.0,0.0,0.0,0.0,0.0,0.0,0.0,0.0,0.0,0.0,1.9339,1.9796,2.0752,2.2197,0.0,0.0,0.0,0.0,2.1556,2.1781,2.1922,2.195,2.1961,2.2705,2.3093,2.2591,0.0,0.0,2.3707,2.4121,2.4739,2.5593,2.5908,2.5323,2.3678,2.3847,2.4226,2.4305,2.4953,2.5473,2.5667,2.593,2.6254,1.0007,0.0,0.0,0.0,0.0,0.9744,1.0282,1.1251,1.1066,1.1005,1.0954,1.0716,0.0,0.0,0.0,0.0,0.0,0.0,1.081,1.1441,1.1996,1.2522,1.2997,1.3438,1.3636,1.3625,1.4581,1.4929,1.4824,1.5258,1.4089,1.1366,0.0,0.0,0.0,0.0,1.3757,1.4861,1.5332,1.576,1.6154,1.5703,1.4762,1.3296,1.2696,1.1567,0.9983,0.9395,0.8999,0.8805,0.8349,0.0,0.0,0.0,0.0,0.0,0.0,0.0,0.0,0.0,0.0,0.0,0.0,0.0,0.0,0.0,0.0,0.0,0.0,0.0,1.4326,1.4915,1.5291,0.0,0.0,0.0,0.0,0.0,0.0,0.0,0.0,0.0,2.3204,2.2569,2.2262,0.0,0.0,2.2398,2.2737,2.2712,2.2761,2.2976,0.0,0.0,0.0,2.3383,2.3458,2.3289,2.3731,2.4388,2.5314,2.6426,2.7594,2.8682,2.9368,2.9569,2.9064,2.7797,2.7156,2.7624,2.8333,2.8952,2.9259,2.9386,2.9547,1.3152,1.2002,1.0754,1.0717,1.1463,1.1762,1.2375,1.3234,1.3632,1.3625,1.3462,1.3477,1.3295,1.2905,1.288,0.0,0.0,0.0,1.3663,1.428,1.4754,1.5331,1.5852,1.6172,1.6266,1.6296,1.7273,1.7589,1.7353,1.8212,1.7447,1.5081,0.0,0.0,1.4699,1.5222,1.5997,1.7023,1.7259,1.756,1.7989,1.7291,1.636,1.5352,1.4975,1.4282,1.322,1.2208,1.1636,1.1522,1.0827,1.0696,0.0,0.0,0.0,0.0,0.0,0.0,0.0,0.0,0.0,0.0,0.0,1.0125,0.0,0.0,0.0,0.0,1.5202,1.6227,1.7324,1.7458,0.0,0.0,0.0,0.0,0.0,0.0,0.0,2.2756,2.3672,2.4685,2.5708,2.5454,2.5071,2.4874,2.4774,2.4653,2.4494,0.0,2.5043,2.4964,2.5023,2.5114,2.5151,2.5375,2.5541,2.554,2.5531,2.591,2.694,2.8138,2.9289,3.0309,3.1173,3.1823,3.2121,3.1052,3.0081,3.0236,3.067,3.1126,3.1372,3.142,3.156,1.6336,1.6849,1.4164,1.3138,1.3273,1.409,1.4448,1.4569,1.5792,1.5982,1.5601,1.6014,1.6074,1.5687,1.5894,0.0,1.5844,1.6388,1.697,1.7582,1.8138,1.8829,1.9524,1.9606,1.9654,1.9678,2.0423,2.0438,1.9969,2.0463,2.0447,1.9938,1.8252,1.7183,1.6785,1.7115,1.7713,1.8623,1.8412,1.8519,1.8943,1.8354,1.7943,1.7794,1.7181,1.6613,1.6123,1.4891,1.4125,1.396,1.3334,1.314,1.3543,0.0,0.0,0.0,0.0,0.0,0.0,0.0,0.0,0.0,0.0,0.0,0.0,0.0,0.0,0.0,1.8204,0.0,2.0358,2.0099,0.0,0.0,0.0,2.2638,2.3753,2.4247,2.4862,2.5724,0.0,0.0,2.7255,2.8099,2.8455,2.7977,2.7903,2.7662,2.7099,2.7473,2.777,2.71,2.7164,2.7214,2.7081,2.7651,2.8051,2.7999,2.7781,2.7506,2.8299,2.9278,3.0126,3.0977,3.1807,3.2619,3.3355,3.3392,3.3222,3.2246,3.2275,3.2411,3.2468,3.2468,3.2675,1.8539,1.8665,1.8002,1.737,1.6888,1.7057,1.7497,1.8084,1.837,1.8471,1.8342,1.8434,1.8475,1.8406,1.8995,1.923,1.9223,1.9939,2.0312,2.0539,2.0978,2.1317,2.1539,2.2306,2.2765,2.3084,2.3653,2.4013,2.4071,2.4206,2.4214,2.4038,2.3632,2.2136,1.9687,1.9758,2.0389,2.1495,2.1449,2.1661,2.2155,2.1616,2.1301,2.126,2.0718,2.0201,1.9685,1.8935,1.8307,1.7831,1.6778,1.6174,1.6162,1.4727,0.0,0.0,0.0,0.0,0.0,0.0,0.0,0.0,0.0,1.3489,1.4657,0.0,1.6834,0.0,2.0728,2.2129,2.2721,2.2919,0.0,0.0,2.4361,2.4968,2.6004,2.6837,2.7236,2.7017,2.8161,2.8901,2.8597,2.932,2.9849,2.9751,2.8973,2.8355,2.8215,2.7873,2.7661,2.7565,2.7695,2.7731,2.7764,2.7765,2.7832,2.7604,2.7456,2.7573,2.8369,2.9729,3.0995,3.1826,3.3147,3.4072,3.4338,3.4548,3.4601,3.4357,3.4207,3.411,3.4129,3.4091,3.4148,2.1666,2.1981,2.2038,2.1758,2.1241,1.9783,1.9575,2.0318,2.0846,2.121,2.1231,2.1299,2.1231,2.1274,2.1677,2.1869,2.1895,2.2562,2.3004,2.3243,2.3784,2.4164,2.4434,2.4992,2.535,2.5574,2.6066,2.6394,2.6601,2.6796,2.6894,2.6944,2.6944,2.6027,2.4236,2.327,2.3304,2.4267,2.3794,2.3516,2.3553,2.3275,2.3248,2.3542,2.2513,2.1975,2.1999,2.1055,2.0202,1.9656,1.8907,1.8495,1.8393,1.7104,1.6507,0.0,0.0,0.0,0.0,0.0,0.0,0.0,0.0,0.0,0.0,0.0,1.967,2.1596,2.3281,2.4375,2.4748,2.4996,2.5312,2.5643,2.6374,2.7094,2.7686,2.8643,2.9108,2.8777,2.9606,3.0035,2.9691,3.0388,3.095,3.0956,3.0406,2.9851,2.9503,2.9385,2.9302,2.8931,2.8941,2.9006,2.9006,2.8948,2.8848,2.8797,2.9075,2.9506,2.9975,3.1417,3.2615,3.2724,3.403,3.4985,3.4645,3.4975,3.5297,3.527,3.5174,3.507,3.5051,3.5051,3.5051,2.4687,2.5398,2.5398,2.5398,2.5135,2.2249,2.1368,2.2095,2.3194,2.3744,2.3937,2.3885,2.3899,2.3937,2.4077,2.4179,2.4207,2.4817,2.5414,2.5927,2.6433,2.7009,2.758,2.7661,2.7695,2.7793,2.8185,2.8467,2.8592,2.892,2.9134,2.9196,2.9161,2.923,2.9229,2.7218,2.6395,2.6862,2.5857,2.5121,2.4592,2.442,2.4633,2.511,2.3646,2.3072,2.3575,2.2325,2.1318,2.0699,2.0587,2.0528,2.058,1.9798,1.9586,0.0,1.9556,0.0,0.0,0.0,0.0,0.0,0.0,0.0,0.0,2.1967,2.2743,2.4956,2.5891,2.6542,2.7004,2.7102,2.7214,2.7469,2.8332,2.8946,2.9044,2.9845,3.0398,3.0398,3.0494,3.0544,3.0433,3.1164,3.1696,3.1499,3.1364,3.1045,3.064,3.0906,3.1022,3.0513,3.0447,3.0229,3.0286,3.0385,3.0399,3.0532,3.0928,3.176,3.1767,3.3109,3.4069,3.3673,3.4625,3.5368,3.4613,3.5117,3.5551,3.5514,3.5496,3.5489,3.5474,3.5446,3.5507,2.5273,2.5398,2.5398,2.5398,2.5315,2.4735,2.4529,2.4695,2.4956,2.5053,2.5053,2.5107,2.5093,2.5148,2.6191,2.6686,2.6787,2.795,2.8544,2.8652,2.8778,2.9021,2.947,2.9955,3.043,3.0777,3.1349,3.1602,3.1638,3.1725,3.1775,3.1772,3.1755,3.2071,3.2581,0.0,0.0,0.0,2.856,2.8312,2.815,2.7175,2.6705,2.6851,2.6132,0.0,2.4977,2.4564,2.3984,2.326,2.3244,0.0,0.0,0.0,0.0,0.0,0.0,0.0,0.0,0.0,0.0,0.0,2.4236,2.4176,2.3571,2.4448,2.6027,2.8236,2.8707,2.9439,3.0923,3.0665,3.0402,3.0453,3.0226,3.0093,3.0112,3.0271,3.0398,3.0398,3.1025,3.1187,3.0637,3.1236,3.1505,3.0952,3.0807,3.0749,3.0613,3.0699,3.0692,3.0552,3.0559,3.0547,3.0574,3.0587,3.0581,3.062,3.0691,3.1137,3.1868,3.2758,3.3745,3.4082,3.5029,3.5664,3.5429,3.5597,3.5667,3.5671,3.5663,3.563,3.5522,3.5507,3.5507,2.7085,0.0,2.7345,2.7345,0.0,2.736,2.736,2.7309,2.6657,2.6747,2.736,2.736,2.7345,2.741,2.81,2.8403,2.845,2.9278,2.9864,3.0161,3.0401,3.0785,3.123,3.1558,3.1828,3.2073,3.2715,3.3039,3.3057,3.3414,3.3578,3.3578,3.3578,3.378,3.4119,3.3403,3.2,2.9924,3.0112,3.0232,3.0232,2.974,2.9493,2.9482,0.0,0.0,0.0,0.0,0.0,0.0,0.0,0.0,0.0,0.0,0.0,2.4938,2.4753,2.4639,2.4621,2.5536,2.6365,2.6938,2.8264,2.835,2.6704,2.773,2.9156,3.0803,3.1006,3.1282,3.1863,3.1692,3.1198,3.041,3.0381,3.0327,3.0016,3.0231,3.0443,3.0519,3.0877,3.0981,3.061,3.0889,3.104,3.0678,3.0606,3.0623,3.0643,3.0594,3.0561,3.058,3.0606,3.0606,3.0611,3.0638,3.0657,3.0696,3.1071,3.1708,3.2492,3.335,3.4108,3.4576,3.5298,3.574,3.5281,3.549,3.5791,3.5717,3.5703,3.5702,3.5611,3.5591,3.5579,2.8966,2.9422,2.955,2.9598,2.9598,2.971,2.9894,2.998,0.0,0.0,0.0,2.9406,2.9419,2.9492,2.9641,2.9696,2.9811,3.0245,3.0712,3.1189,3.1636,3.2122,3.2709,3.2737,3.28,3.2924,3.3506,3.3788,3.3813,3.4427,3.4694,3.4694,3.4694,3.4694,3.4694,3.4694,3.351,3.1227,3.1476,3.1668,3.1709,3.1794,3.1844,3.192,3.0357,2.9475,2.9382,2.7961,2.7103,2.6934,2.695,2.6985,2.7022,2.7228,2.736,2.7437,2.7569,2.7606,2.7494,2.8368,2.9225,2.9901,3.1433,3.1713,3.0089,3.08,3.1762,3.2828,3.2933,3.2775,3.2436,3.2155,3.1502,3.0048,3.028,3.0273,2.9777,3.0121,3.0528,3.0594,3.0611,3.0589,3.0604,3.0628,3.0613,3.0615,3.0612,3.0606,3.0669,3.0671,3.0667,3.0672,3.07,3.0648,3.0652,3.07,3.0723,3.0782,3.1539,3.2441,3.3262,3.4121,3.4707,3.4961,3.5547,3.5605,3.5079,3.5464,3.5861,3.5777,3.5747,3.5747,3.5747,3.5747,3.5736,2.9316,2.9454,3.0076,3.0332,3.038,3.1036,3.1831,3.253,3.0154,2.9255,2.9406,2.9406,2.9592,2.9936,3.0466,3.0925,3.1328,3.1882,3.2195,0.0,3.2563,3.2972,3.3451,3.367,3.4022,3.4364,3.4492,3.4551,3.4553,3.4634,3.4694,3.4694,3.4694,3.4714,3.4694,3.4694,3.4519,3.407,3.3501,3.3184,3.3185,3.2657,3.2393,3.2407,3.2244,3.1757,3.1011,3.0733,3.0182,2.9385,2.9943,3.0286,3.0263,3.0847,3.1299,3.1374,3.1411,3.1462,3.1527,3.171,3.1985,3.2355,3.2809,3.2821,3.2301,3.2372,3.2949,3.4074,3.4206,3.4493,3.4948,3.3777,3.2798,3.2422,3.1352,3.0535,3.0389,3.0442,3.0529,3.0594,3.054,3.0545,3.0581,3.0603,3.0605,3.0609,3.0615,3.0607,3.0641,3.0754,3.0839,3.0857,3.0857,3.0857,3.0817,3.0857,3.0859,3.0878,3.1601,3.2461,3.3262,3.4101,3.4902,3.5664,3.5898,3.5898,3.5742,3.5859,3.5957,3.5937,3.5937,3.5937,3.5937,3.5937,3.5898,3.0863,3.1472,3.2219,3.2655,3.2906,3.3247,3.3682,3.4053,3.2921,3.2378,3.2327,3.1913,3.1842,3.1984,3.1858,3.1987,3.2332,3.2847,3.3169,3.3341,3.3688,3.3974,3.4209,3.4308,3.4475,3.4694,3.4851,3.4926,3.4926,3.507,3.5149,3.5181,3.5218,3.5252,3.5239,3.5239,3.5252,3.5239,3.4706,3.4426,3.4407,3.4306,3.4226,3.4226,3.3904,3.3486,3.3045,3.2585,3.2113,3.1678,3.1979,3.2182,3.2166,3.249,3.2702,3.2733,3.2733,3.2767,3.2841,3.3208,3.3495,3.3671,3.4137,3.4387,3.428,3.3841,3.401,3.501,3.5095,3.4807,3.4345,3.3571,3.2748,3.181,3.0991,3.0584,3.0586,3.0547,3.0527,3.0585,3.058,3.0569,3.0593,3.0609,3.0618,3.0611,3.0606,3.0606,3.0606,3.07,3.0767,3.0732,3.0762,3.0772,3.0774,3.0858,3.0898,3.0918,3.1641,3.2461,3.3262,3.4121,3.5,3.5801,3.6016,3.6016,3.6016,3.6016,3.6016,3.6016,3.6016,3.6016,3.6016,3.6016,3.5957,3.252,3.3576,3.4289,3.4898,3.5403,3.5403,3.5474,3.5579,3.5647,3.5731,3.5705,3.4628,3.4133,3.416,3.3472,3.3316,3.3579,3.3773,3.3969,3.4166,3.4578,3.4793,3.4793,3.4832,3.4889,3.4908,3.51,3.5212,3.5247,3.5438,3.5566,3.5621,3.5667,3.5703,3.571,3.5684,3.5677,3.5671,3.5413,3.5301,3.5295,3.5601,3.5727,3.5646,3.5123,3.4811,3.4714,3.4124,3.375,3.3726,3.3745,3.3756,3.374,3.3763,3.377,3.3751,3.3749,3.3736,3.3766,3.4287,3.4608,3.4628,3.5174,3.5572,3.5564,3.5009,3.488,3.5561,3.5566,3.4978,3.3789,3.3215,3.244,3.1032,3.0622,3.0533,3.0584,3.0546,3.0535,3.0586,3.0587,3.0562,3.0575,3.0575,3.0568,3.0559,3.054,3.054,3.0574,3.0611,3.0611,3.06,3.0633,3.0745,3.0747,3.0817,3.0996,3.1113,3.1934,3.2812,3.3633,3.4453,3.5137,3.5879,3.6016,3.6016,3.6016,3.6016,3.6016,3.6016,3.6016,3.6016,3.6016,3.6016,3.5976,3.3988,3.4818,3.5544,3.6305,3.6984,3.6982,3.7202,3.7587,3.7913,3.8332,3.8359,3.6249,3.5521,3.5789,3.5258,3.5142,3.5453,3.4894,3.4614,3.4656,3.4944,3.5051,3.5105,3.5304,3.5432,3.5407,3.5507,3.5519,3.5549,3.5646,3.5682,3.5689,3.5703,3.5697,3.5704,3.5641,3.5623,3.5623,3.5586,3.5566,3.5576,3.5752,3.5792,3.5628,3.5723,3.5684,3.5472,3.5485,3.5389,3.5312,3.5351,3.5423,3.5353,3.5421,3.5457,3.5425,3.5364,3.5378,3.5357,3.55,3.5527,3.558,3.558,3.5684,3.5671,3.5554,3.5516,3.5657,3.5663,3.519,3.4456,3.3607,3.2674,3.1643,3.0962,3.0611,3.0587,3.054,3.0525,3.06,3.0545,3.0516,3.0516,3.0516,3.0472,3.0451,3.0441,3.0441,3.0441,3.0472,3.053,3.054,3.0686,3.0855,3.0857,3.0879,3.1133,3.1836,3.2715,3.3437,3.4199,3.5078,3.5937,3.5898,3.6016,3.6016,3.6016,3.6016,3.6016,3.6016,3.6016,3.6016,3.6016,3.6016,3.5996,3.5438,3.6121,3.7025,3.7867,3.8556,3.8604,3.8719,3.8915,3.9051,3.9226,3.9314,3.8496,3.7928,3.7386,3.6193,3.5847,3.6065,3.5305,3.5016,3.5155,3.5289,3.5355,3.5406,3.5507,3.5577,3.5621,3.5638,3.5643,3.5675,3.568,3.5701,3.5706,3.5703,3.5699,3.5698,3.5671,3.5645,3.5664,3.5665,3.5627,3.5622,3.5711,3.5728,3.5685,3.5733,3.5752,3.5675,3.5684,3.5677,3.5615,3.5678,3.5685,3.5664,3.5675,3.5699,3.5698,3.5671,3.5669,3.5641,3.5655,3.5648,3.5648,3.5621,3.5588,3.5588,3.555,3.5538,3.5519,3.5134,3.4487,3.3746,3.2841,3.1981,3.1168,3.0675,3.0482,3.0482,3.0452,3.0452,3.0472,3.0452,3.0441,3.0441,3.0441,3.0419,3.039,3.0398,3.0398,3.041,3.0439,3.0684,3.113,3.1391,3.1217,3.0891,3.0808,3.1071,3.148,3.2518,3.3613,3.4043,3.5176,3.5996,3.6016,3.6016,3.6016,3.6016,3.6016,3.6016,3.6016,3.6016,3.6016,3.6016,3.6016,3.6016,3.6874,3.7533,3.839,3.9059,3.9599,3.9599,3.9599,3.9622,3.9709,3.9754,3.9775,4.0062,3.9776,3.8839,3.749,3.6823,3.6676,3.594,3.5547,3.5554,3.5546,3.5588,3.5621,3.5621,3.5643,3.5671,3.5699,3.5708,3.5698,3.5703,3.5712,3.5706,3.5705,3.5703,3.5703,3.5682,3.5667,3.5687,3.5655,3.5631,3.5579,3.5631,3.5638,3.5638,3.5671,3.5671,3.5638,3.5638,3.5657,3.5657,3.5671,3.5667,3.5667,3.5689,3.5677,3.5667,3.5687,3.5635,3.5534,3.5488,3.5405,3.5355,3.5307,3.527,3.5289,3.5289,3.5289,3.5232,3.4485,3.3728,3.3089,3.2212,3.1352,3.0533,3.0398,3.0398,3.039,3.0398,3.041,3.0398,3.0402,3.0398,3.0398,3.039,3.039,3.041,3.0398,3.0398,3.041,3.0479,3.0762,3.1613,3.1801,3.1732,3.1321,3.1534,3.1516,3.1981,3.3138,3.3851,3.3957,3.5293,3.5957,3.5957,3.5996,3.6016,3.6016,3.6016,3.6016,3.6016,3.6016,3.6016,3.6016,3.6016,3.6016,3.8263,3.9014,3.9395,3.9557,3.9622,3.9645,3.9622,3.969,3.9962,4.0081,4.0101,4.0356,4.0434,4.0284,3.94,3.8666,3.7868,3.7037,3.6256,3.5649,3.5655,3.5689,3.5696,3.5703,3.5669,3.5617,3.5679,3.5714,3.5713,3.571,3.5717,3.5717,3.5696,3.5696,3.5682,3.563,3.5601,3.5611,3.5558,3.5495,3.552,3.5495,3.5509,3.5522,3.5566,3.5577,3.5534,3.5495,3.5495,3.5515,3.5585,3.5601,3.5611,3.5643,3.5643,3.5592,3.5572,3.5449,3.5178,3.5117,3.5032,3.4832,3.4794,3.4754,3.4832,3.4832,3.4775,3.4716,3.3923,3.3251,3.2864,3.2084,3.1354,3.0597,3.0405,3.0355,3.0398,3.0367,3.0398,3.0398,3.0398,3.0398,3.0398,3.0398,3.0398,3.0398,3.0398,3.0398,3.041,3.0402,3.0799,3.1449,3.1825,3.2083,3.2815,3.2719,3.3186,3.3492,3.3621,3.4542,3.524,3.5781,3.5849,3.591,3.5945,3.5957,3.5996,3.6016,3.6016,3.6016,3.6016,3.6016,3.6016,3.6016,3.6016,3.9289,3.9754,3.988,4.0023,4.0175,4.0175,4.0175,4.0193,4.0302,4.0356,4.0372,4.0457,4.0545,4.0617,4.0346,3.9387,3.8008,3.6701,3.5902,3.5671,3.5689,3.5699,3.5703,3.5706,3.5683,3.5681,3.5678,3.5705,3.5691,3.5663,3.562,3.5621,3.559,3.5585,3.5574,3.5546,3.554,3.5528,3.5534,3.5432,3.5289,3.5417,3.5412,3.5273,3.543,3.5515,3.5488,3.5507,3.5507,3.5507,3.5522,3.554,3.5509,3.5393,3.5315,3.5268,3.5127,3.4977,3.487,3.4832,3.4793,3.4714,3.4694,3.4674,3.4694,3.4694,3.4486,3.3883,3.3128,3.2598,3.2364,3.1692,3.115,3.0954,3.038,3.0118,3.0267,3.0254,3.0209,3.0355,3.0398,3.0398,3.0398,3.0398,3.0398,3.0398,3.0398,3.0417,3.0398,3.0398,3.0794,3.1448,3.1765,3.2235,3.3677,3.3378,3.3342,3.3584,3.3895,3.436,3.4971,3.5561,3.5747,3.5791,3.5825,3.5859,3.5898,3.5957,3.5957,3.5976,3.5976,3.5957,3.6016,3.5957,3.5976,3.9943,4.0195,4.0232,4.0319,4.0489,4.0489,4.0489,4.0489,4.0489,4.0489,4.0504,4.0545,4.0623,4.0645,4.0438,3.9597,3.8188,3.7031,3.6365,3.609,3.5877,3.5755,3.5714,3.5708,3.5669,3.5675,3.5657,3.5639,3.563,3.559,3.5574,3.5562,3.5522,3.5446,3.5383,3.5369,3.5354,3.5273,3.5239,3.5138,3.5016,3.5138,3.5174,3.5035,3.5157,3.5289,3.5369,3.5289,3.5239,3.5239,3.5239,3.5239,3.5242,3.507,3.4963,3.4925,3.4813,3.4634,3.4551,3.4529,3.4508,3.4416,3.4416,3.4416,3.4416,3.4398,3.4098,3.3521,3.2807,3.2377,3.2433,3.1738,3.1129,3.1083,3.05,3.0099,3.0152,3.0022,3.0032,3.0209,3.0336,3.0379,3.0398,3.0398,3.0398,3.0398,3.059,3.0814,3.0833,3.1083,3.1352,3.1948,3.2122,3.275,3.3711,3.3798,3.3984,3.4244,3.4341,3.4632,3.4831,3.5352,3.5621,3.5659,3.5689,3.5749,3.5792,3.5868,3.5901,3.5906,3.5879,3.5859,3.5879,3.5879,3.5957,4.025,4.0473,4.0489,4.0473,4.0489,4.0489,4.0489,4.0489,4.0485,4.05,4.053,4.063,4.0696,4.0604,4.0143,3.924,3.8569,3.8209,3.7582,3.6777,3.6142,3.5806,3.5697,3.5678,3.5648,3.5591,3.5521,3.5501,3.5509,3.5482,3.5455,3.5474,3.5427,3.5289,3.5124,3.5088,3.5,3.4832,3.4774,3.4734,3.4694,3.4734,3.4754,3.4694,3.4714,3.4832,3.5051,3.487,3.4773,3.4754,3.4753,3.4714,3.4754,3.4714,3.4694,3.4694,3.4674,3.4508,3.4265,3.4218,3.4093,3.3972,3.3842,3.3895,3.3921,3.3802,3.371,3.3515,3.2956,3.272,3.3114,3.2311,3.1417,3.1016,3.0942,3.0565,3.011,2.9825,2.9817,3.0132,3.0394,3.0417,3.0398,3.0398,3.0398,3.0513,3.0929,3.1333,3.1314,3.1718,3.2545,3.2628,3.2436,3.2705,3.3487,3.4231,3.4712,3.5097,3.5162,3.529,3.5253,3.5546,3.5581,3.5621,3.5666,3.5694,3.5709,3.5761,3.5777,3.5783,3.5741,3.5766,3.5797,3.5851,3.5986,4.0406,4.0489,4.0489,4.0489,4.0489,4.0489,4.0489,4.0519,4.0602,4.063,4.0655,4.0722,4.0824,4.0824,4.0555,3.9998,3.9273,3.8632,3.7604,3.6401,3.5909,3.5735,3.5648,3.565,3.5581,3.554,3.5515,3.5507,3.546,3.532,3.5223,3.519,3.5034,3.4926,3.4813,3.4832,3.4754,3.4714,3.4694,3.4593,3.442,3.4572,3.4591,3.4379,3.4357,3.4401,3.447,3.4614,3.4694,3.4674,3.4694,3.4694,3.4653,3.4486,3.4379,3.4315,3.4184,3.408,3.3979,3.391,3.3902,3.3834,3.3807,3.3807,3.3733,3.3293,3.3018,3.2908,3.2265,3.1916,3.2063,3.2302,3.2145,3.2325,3.1712,3.1294,3.1205,3.1388,3.1369,3.1009,3.1123,3.1032,3.0571,3.0436,3.0444,3.0386,3.0694,3.0867,3.0917,3.1239,3.106,3.0962,3.1456,3.2217,3.2737,3.3475,3.4203,3.4812,3.5172,3.5455,3.5501,3.5528,3.5528,3.557,3.5611,3.5621,3.5639,3.5646,3.5671,3.5721,3.5755,3.5774,3.5762,3.6013,3.637,4.0489,4.0489,4.0489,4.0534,4.0574,4.0554,4.061,4.0623,4.0699,4.0742,4.0752,4.0848,4.0896,4.0904,4.0879,4.0427,3.9613,3.868,3.7549,3.6346,3.5799,3.564,3.5566,3.5562,3.5546,3.5501,3.5507,3.5446,3.5354,3.519,3.5053,3.4926,3.4793,3.4632,3.4529,3.4508,3.4486,3.4375,3.4371,3.426,3.416,3.426,3.426,3.4093,3.4043,3.4068,3.4068,3.426,3.4371,3.4353,3.4371,3.4371,3.433,3.4147,3.4025,3.4018,3.3928,3.3807,3.3807,3.3834,3.3807,3.3807,3.3807,3.3642,3.3366,3.2834,3.254,3.21,3.1421,3.1201,3.177,3.1623,3.2164,3.3235,3.2428,3.1887,3.1955,3.209,3.2087,3.1737,3.1851,3.1577,3.1116,3.0778,3.0593,3.0388,3.0469,3.0619,3.0677,3.093,3.0704,3.0582,3.1032,3.1569,3.1803,3.2619,3.3595,3.429,3.4913,3.5268,3.5488,3.5501,3.5509,3.5509,3.5538,3.555,3.5554,3.5568,3.56,3.5679,3.5853,3.6115,3.6336,3.6908,3.7293,4.0504,4.0504,4.0519,4.0596,4.0684,4.0696,4.0742,4.0777,4.0801,4.0816,4.0818,4.0929,4.091,4.0858,4.0886,4.0435,3.9532,3.8617,3.7683,3.6753,3.6035,3.5562,3.5509,3.5515,3.5501,3.5507,3.546,3.5354,3.5157,3.5016,3.4907,3.4694,3.4591,3.4486,3.4242,3.4176,3.4068,3.3902,3.3887,3.3842,3.3842,3.3842,3.3842,3.3834,3.3842,3.3815,3.3743,3.3716,3.3743,3.3788,3.3868,3.3895,3.386,3.3807,3.3834,3.3842,3.3807,3.3807,3.3788,3.3707,3.3707,3.3707,3.3689,3.3405,3.2657,3.2426,3.2129,3.1492,3.0772,3.0815,3.1659,3.1366,3.1586,3.3164,3.2999,3.2445,3.1765,3.196,3.2227,3.2298,3.2384,3.2333,3.1736,3.1465,3.1024,3.0601,3.0715,3.0835,3.0951,3.108,3.139,3.1239,3.0803,3.0897,3.1145,3.2651,3.3536,3.3676,3.4448,3.5114,3.5372,3.5391,3.5488,3.5488,3.5501,3.5501,3.5495,3.5521,3.5675,3.5893,3.6196,3.6579,3.7093,3.7662,3.8099,4.0559,4.0649,4.063,4.0707,4.0761,4.077,4.0788,4.0809,4.0914,4.0883,4.083,4.0936,4.0932,4.0811,4.0757,4.0286,3.9439,3.8517,3.7591,3.671,3.592,3.5528,3.5488,3.5507,3.5507,3.5474,3.532,3.5155,3.5051,3.4676,3.4427,3.4315,3.4141,3.403,3.3902,3.391,3.3895,3.3834,3.3807,3.3807,3.3807,3.3807,3.3807,3.3807,3.3807,3.3652,3.3361,3.3014,3.3196,3.378,3.3807,3.3807,3.3753,3.3753,3.3734,3.3734,3.3762,3.378,3.3734,3.3522,3.3361,3.3361,3.3317,3.2882,3.1805,3.1728,3.1506,3.1008,3.0513,3.0356,3.0815,3.0999,3.1696,3.2651,3.3036,3.322,3.3162,3.3371,3.3422,3.2948,3.3031,3.2713,3.2274,3.1896,3.1711,3.1429,3.1148,3.0922,3.0904,3.0584,3.0603,3.0452,3.0208,3.0302,3.0847,3.2476,3.3344,3.3238,3.394,3.4993,3.5141,3.5141,3.5334,3.5488,3.5488,3.5488,3.5488,3.5495,3.5776,3.607,3.6546,3.6969,3.7719,3.8339,3.8801,4.0655,4.0752,4.0752,4.0807,4.0877,4.0877,4.0891,4.0896,4.0952,4.0936,4.0831,4.0877,4.085,4.0762,4.0699,4.0416,3.9779,3.895,3.8084,3.7161,3.6065,3.5545,3.5507,3.5507,3.5507,3.546,3.5203,3.5034,3.487,3.4445,3.4171,3.4018,3.3895,3.3807,3.3834,3.3807,3.3807,3.3807,3.3807,3.3807,3.3807,3.3807,3.368,3.3625,3.3522,3.3361,3.2952,3.2648,3.2777,3.3148,3.3255,3.3255,3.3255,3.3255,3.3255,3.3255,3.3255,3.3237,3.3225,3.3045,3.2791,3.257,3.2559,3.1977,3.1092,3.101,3.1174,3.0159,3.0112,3.0204,3.0338,3.0925,3.1366,3.1604,3.232,3.3054,3.3678,3.3854,3.3864,3.358,3.3325,3.3158,3.2635,3.2295,3.2047,3.1856,3.1416,3.1019,3.0623,3.0124,2.9734,2.9673,2.9706,2.9816,3.0239,3.1619,3.2906,3.2915,3.3671,3.4724,3.5122,3.5122,3.5295,3.5507,3.5507,3.5507,3.5507,3.5603,3.5878,3.6262,3.6796,3.7565,3.8392,3.9008,3.945,4.0742,4.0836,4.0836,4.0902,4.1,4.101,4.0976,4.0991,4.0976,4.0894,4.0809,4.0805,4.0752,4.068,4.0674,4.059,4.0408,3.9542,3.8753,3.768,3.6512,3.5724,3.5667,3.5475,3.5417,3.5369,3.5155,3.487,3.4614,3.4288,3.4043,3.3876,3.3834,3.3807,3.3807,3.3807,3.3807,3.3807,3.3807,3.3753,3.368,3.3652,3.3494,3.3136,3.2965,3.2809,3.2517,3.235,3.235,3.235,3.2417,3.2583,3.255,3.255,3.255,3.2583,3.2648,3.2616,3.2517,3.255,3.2203,3.1792,3.1813,3.1247,3.0266,3.0504,3.0472,2.9217,2.9648,2.9916,3.0044,3.0668,3.0779,3.065,3.1017,3.1971,3.3109,3.355,3.3681,3.3974,3.3334,3.3168,3.2975,3.2564,3.1846,3.1693,3.1283,3.0775,3.0346,2.9902,2.9514,2.9208,2.9273,2.9357,2.9931,3.0689,3.1844,3.2623,3.3595,3.4545,3.5238,3.5372,3.543,3.5507,3.5507,3.5507,3.5526,3.5699,3.6084,3.6815,3.7584,3.8411,3.9219,3.9681,4.0142,4.0863,4.0955,4.0955,4.1026,4.1131,4.105,4.0974,4.0988,4.0896,4.0788,4.0731,4.0729,4.0667,4.0545,4.0559,4.0534,4.0392,3.9662,3.8834,3.793,3.6988,3.6347,3.6004,3.5477,3.519,3.5069,3.4636,3.4401,3.4265,3.4068,3.385,3.3834,3.3807,3.3807,3.3807,3.3807,3.3807,3.3807,3.3807,3.3625,3.3361,3.3302,3.3105,3.2681,3.2332,3.2092,3.1933,3.1657,3.1504,3.162,3.2074,3.2384,3.2384,3.2417,3.2417,3.2384,3.2451,3.2451,3.2417,3.2162,3.1933,3.162,3.1147,3.0587,2.9712,2.9786,2.9564,2.8808,2.8961,2.9397,2.9384,2.9415,2.9769,3.0081,3.0338,3.0815,3.1659,3.1935,3.2334,3.2716,3.276,3.2686,3.2767,3.2508,3.1968,3.1538,3.1035,3.0491,3.0099,2.9769,2.9397,2.9067,2.903,2.92,2.954,3.0325,3.1469,3.2462,3.3433,3.4319,3.5009,3.5446,3.5432,3.546,3.5507,3.5507,3.5526,3.6122,3.6565,3.7488,3.8334,3.9084,3.9758,4.0277,4.0489,4.0983,4.1084,4.1033,4.1034,4.1082,4.0979,4.089,4.0867,4.079,4.0699,4.0636,4.061,4.0574,4.0504,4.0489,4.0489,4.0265,3.9493,3.8616,3.7721,3.6793,3.6043,3.5514,3.504,3.4718,3.4794,3.4454,3.4232,3.4147,3.3935,3.3834,3.3807,3.3807,3.3807,3.3807,3.3807,3.368,3.3522,3.3522,3.3332,3.2952,3.2858,3.2648,3.2213,3.177,3.1507,3.1507,3.1351,3.123,3.1291,3.162,3.1896,3.1896,3.1878,3.1896,3.1896,3.1896,3.1878,3.1787,3.1677,3.1408,3.1065,3.0472,2.9782,2.9373,2.9325,2.9197,2.8822,2.9041,2.9475,2.9072,2.8994,2.9292,2.9475,2.9659,2.9861,3.0283,3.0907,3.1513,3.1843,3.1685,3.1758,3.1806,3.1861,3.1751,3.114,3.125,3.0742,3.0265,2.9916,2.9512,2.9195,2.9049,2.9095,2.9273,3.0076,3.1318,3.2278,3.3178,3.4027,3.4789,3.5117,3.5354,3.5383,3.5412,3.5474,3.5622,3.6315,3.7026,3.7757,3.8565,3.9488,4.0123,4.0392,4.0489,4.1086,4.1131,4.0915,4.0875,4.0916,4.0687,4.0626,4.0715,4.0687,4.061,4.0519,4.0489,4.0519,4.0489,4.0489,4.0489,4.0164,3.9528,3.869,3.8099,3.7106,3.6356,3.5649,3.5055,3.4652,3.468,3.4311,3.4134,3.4049,3.391,3.3807,3.3807,3.3807,3.3807,3.3807,3.3707,3.355,3.3302,3.3136,3.2872,3.2484,3.2384,3.2161,3.1733,3.1449,3.1252,3.1252,3.123,3.119,3.119,3.119,3.119,3.119,3.119,3.119,3.123,3.1291,3.1312,3.1351,3.1235,3.0976,3.026,2.986,2.9368,2.8995,2.9071,2.8999,2.8985,2.9132,2.9586,2.9067,2.8975,2.8975,2.9049,2.9012,2.8975,2.9237,3.0265,3.0797,3.1127,3.0944,3.0925,3.0925,3.0925,3.0889,3.087,3.098,3.0907,3.0356,2.9934,2.9475,2.9214,2.9049,2.9112,2.9292,2.9468,3.0752,3.1751,3.2713,3.3488,3.4301,3.4775,3.5047,3.5254,3.5335,3.5417,3.5806,3.6555,3.7247,3.7954,3.8854,3.9854,4.0277,4.0469,4.0489,4.1112,4.0968,4.0223,4.0267,4.0661,3.9995,4.0106,4.0622,4.0588,4.0534,4.0504,4.0489,4.0473,4.0473,4.0508,4.0372,4.0043,3.9518,3.9176,3.8779,3.7928,3.7249,3.6571,3.5562,3.5112,3.4781,3.4326,3.4002,3.3902,3.3834,3.3807,3.3807,3.3807,3.3807,3.368,3.3494,3.3273,3.2996,3.2745,3.2366,3.2039,3.1897,3.177,3.1406,3.1336,3.1348,3.1258,3.1224,3.119,3.119,3.119,3.1241,3.1343,3.1343,3.1309,3.119,3.119,3.119,3.119,3.1173,3.1157,3.0908,3.0289,2.9776,2.935,2.9101,2.8844,2.8778,2.8883,2.914,2.9012,2.8975,2.8975,2.8975,2.8975,2.8975,2.9067,2.9384,2.9861,3.0265,3.021,3.0155,3.0173,3.0136,3.0099,3.0008,2.9953,2.9953,2.9641,2.9402,2.9182,2.9049,2.9012,2.9156,2.9347,2.9423,3.0015,3.0959,3.1864,3.2634,3.3445,3.4279,3.4718,3.4813,3.5105,3.5346,3.5929,3.6727,3.7521,3.8243,3.9258,4.0258,4.0392,4.0489,4.0489,4.1074,4.0929,4.0435,4.0418,4.0616,4.021,4.0191,4.0563,4.0534,4.0489,4.0457,4.0356,4.0285,4.025,4.0101,3.9944,3.9778,3.9486,3.8914,3.819,3.7536,3.6935,3.6555,3.5547,3.5264,3.4936,3.4587,3.411,3.3844,3.3807,3.378,3.3807,3.3807,3.3707,3.3504,3.3302,3.2903,3.2616,3.223,3.1933,3.1545,3.1524,3.1368,3.1336,3.1562,3.1732,3.1833,3.2222,3.2341,3.2357,3.2357,3.2341,3.2266,3.2181,3.1968,3.1371,3.1224,3.119,3.119,3.119,3.1173,3.1055,3.0243,2.9505,2.9162,2.8792,2.8538,2.8728,2.8797,2.8975,2.8975,2.8975,2.8975,2.8975,2.8975,2.8975,2.8975,2.8975,2.9274,2.9586,2.9549,2.9549,2.9507,2.9452,2.9342,2.9177,2.9012,2.8975,2.8975,2.8975,2.8975,2.8975,2.8975,2.9067,2.9222,2.9283,2.9437,3.0271,3.1063,3.1829,3.2633,3.3499,3.3971,3.4162,3.4593,3.5208,3.6067,3.6848,3.7693,3.8554,3.9565,4.0335,4.0431,4.0489,4.0489,4.0818,4.0908,4.0413,4.037,4.0591,4.0352,4.0331,4.0469,4.0504,4.0457,4.0389,4.0195,4.0081,3.9922,3.9668,3.9462,3.9327,3.9007,3.8136,3.7172,3.6564,3.5903,3.5405,3.4836,3.4667,3.4582,3.4255,3.4264,3.389,3.368,3.368,3.3578,3.3606,3.3419,3.3105,3.2872,3.2417,3.2074,3.1696,3.1524,3.1308,3.1343,3.141,3.1495,3.2104,3.2493,3.256,3.2706,3.2916,3.2907,3.2871,3.2861,3.2971,3.3134,3.2622,3.1688,3.1449,3.136,3.1207,3.119,3.119,3.114,2.9973,2.933,2.8851,2.8554,2.8183,2.8725,2.8975,2.8975,2.8975,2.8975,2.8975,2.8975,2.8975,2.8975,2.8975,2.8975,2.8975,2.9127,2.8975,2.9049,2.9159,2.9177,2.914,2.914,2.8975,2.8975,2.8975,2.8975,2.8975,2.8975,2.8975,2.8975,2.9044,2.9067,2.9237,2.9695,3.0368,3.1053,3.1885,3.2723,3.3179,3.3788,3.4482,3.5184,3.608,3.6974,3.7804,3.8728,3.9807,4.0392,4.0469,4.0489,4.0489,4.0146,4.0613,3.9138,3.9277,4.0337,3.9831,3.9892,4.045,4.0434,4.0336,4.012,4.0024,3.9804,3.9557,3.9264,3.8915,3.8552,3.8214,3.7706,3.6876,3.6325,3.5916,3.5597,3.4371,3.4115,3.3999,3.333,3.328,3.3538,3.3452,3.3291,3.3214,3.2934,3.2648,3.2565,3.2332,3.1933,3.177,3.1466,3.1303,3.1343,3.185,3.2063,3.23,3.2689,3.3085,3.2957,3.2885,3.2743,3.2648,3.2089,3.1726,3.1741,3.224,3.2389,3.2249,3.2135,3.1884,3.141,3.1224,3.119,3.1072,3.0345,2.9685,2.8972,2.8366,2.8093,2.842,2.8773,2.8975,2.8975,2.8975,2.8975,2.8975,2.8975,2.8975,2.8975,2.8975,2.8975,2.8975,2.8975,2.8975,2.9049,2.9012,2.8994,2.8994,2.8975,2.8975,2.8975,2.8975,2.8975,2.8975,2.8975,2.8975,2.8975,2.8975,2.9067,2.9305,2.9751,3.0356,3.1176,3.2053,3.2959,3.3592,3.4349,3.5268,3.6246,3.7119,3.7909,3.8873,3.9964,4.0358,4.0489,4.0489,4.0441,3.9917,4.0614,3.9831,3.9885,4.0427,4.0104,4.0079,4.0132,3.9787,3.9681,3.9648,3.9071,3.877,3.8644,3.8456,3.8172,3.7753,3.7596,3.7111,3.6589,3.6054,3.5702,3.5226,3.4641,3.4216,3.3634,3.3419,3.343,3.349,3.3136,3.2827,3.2813,3.2601,3.2366,3.2127,3.1897,3.166,3.1589,3.1664,3.1839,3.1904,3.2169,3.2357,3.2347,3.2743,3.2902,3.2957,3.3127,3.3064,3.3048,3.2736,3.2686,3.2702,3.2918,3.2967,3.2465,3.2797,3.2586,3.1962,3.1478,3.1275,3.1021,3.0501,2.9661,2.8853,2.825,2.802,2.8376,2.8791,2.897,2.8975,2.8975,2.8975,2.8994,2.9053,2.9067,2.9049,2.8994,2.8975,2.8975,2.8975,2.8975,2.8975,2.8975,2.8975,2.8975,2.8975,2.8975,2.8975,2.8975,2.8975,2.8975,2.8975,2.8975,2.8975,2.8975,2.8975,2.9122,2.9122,2.9806,3.054,3.1403,3.2485,3.3568,3.4457,3.5399,3.6428,3.7408,3.8324,3.924,4.0137,4.029,4.0389,4.0344,4.0424,3.9971,4.0524,4.0303,4.0315,4.0489,4.0422,4.0285,4.0043,3.9432,3.925,3.9137,3.8431,3.79,3.7749,3.7702,3.7524,3.702,3.6981,3.6531,3.6015,3.5591,3.5238,3.4815,3.4486,3.4086,3.3634,3.3522,3.3542,3.3331,3.2944,3.2577,3.2581,3.2232,3.1967,3.175,3.162,3.1538,3.1659,3.1789,3.2026,3.2219,3.2368,3.242,3.2526,3.2627,3.2764,3.286,3.2958,3.326,3.3244,3.2882,3.266,3.2745,3.2909,3.2938,3.2679,3.2886,3.2676,3.2131,3.1683,3.1421,3.0987,3.026,2.9287,2.8408,2.7971,2.7926,2.821,2.8565,2.8815,2.8952,2.8975,2.9182,2.92,2.9182,2.9195,2.9195,2.9135,2.9025,2.8975,2.8975,2.8975,2.8975,2.8975,2.8975,2.8975,2.8975,2.8975,2.8975,2.8975,2.8975,2.8975,2.8975,2.8975,2.8975,2.8975,2.8975,2.8975,2.8975,2.9567,3.0503,3.1329,3.2284,3.3348,3.4633,3.5863,3.7073,3.793,3.8731,3.9431,4.0005,4.0155,4.0251,4.0234,4.0589,4.0298,4.0081,3.9621,3.9819,4.0438,4.0232,4.0101,3.9944,3.9602,3.9212,3.8831,3.8272,3.7593,3.7342,3.7173,3.6943,3.6474,3.6474,3.6121,3.5566,3.4992,3.4789,3.4413,3.4021,3.3505,3.3284,3.3039,3.309,3.3152,3.242,3.254,3.28,3.1866,3.1426,3.1157,3.1021,3.1358,3.1558,3.1689,3.1858,3.222,3.2449,3.2478,3.2622,3.3086,3.3502,3.3467,3.2955,3.2625,3.2625,3.2201,3.1936,3.2089,3.2422,3.2501,3.2522,3.2618,3.2352,3.1737,3.1745,3.177,3.1021,3.0002,2.8969,2.83,2.7683,2.7604,2.8092,2.8578,2.8793,2.8937,2.9067,2.943,2.9569,2.961,2.9642,2.9557,2.9247,2.9161,2.9025,2.8975,2.8975,2.8975,2.8975,2.8975,2.8975,2.8975,2.8975,2.8975,2.8975,2.8975,2.8975,2.8975,2.8975,2.8975,2.8975,2.8975,2.8975,2.8975,2.9824,3.0834,3.1623,3.2375,3.399,3.5432,3.6574,3.7604,3.8278,3.8931,3.9441,3.9838,4.0,4.0298,4.048,4.1052,3.9295,3.834,3.9125,3.9659,3.9887,3.933,3.9195,3.926,3.8308,3.7737,3.7643,3.7485,3.7173,3.6803,3.6684,3.6416,3.5985,3.5881,3.5722,3.5644,3.5284,3.4928,3.4469,3.3751,3.3073,3.237,3.1935,3.1863,3.2063,3.1767,3.2039,3.1954,3.1363,3.0582,3.0277,3.0323,3.0642,3.1111,3.1421,3.1771,3.2289,3.251,3.2557,3.2604,3.2175,3.2351,3.2241,3.2048,3.1951,3.1853,3.164,3.1524,3.1467,3.1853,3.1951,3.2064,3.2284,3.1909,3.1176,3.1294,3.134,3.0675,2.9742,2.896,2.8498,2.8202,2.8364,2.8644,2.8771,2.8979,2.9543,2.9661,2.983,2.9966,3.0042,3.0062,2.997,2.9668,2.943,2.9369,2.9148,2.8975,2.8975,2.8975,2.8975,2.8975,2.8975,2.8975,2.8975,2.8975,2.8975,2.8975,2.8975,2.8975,2.8975,2.8975,2.8975,2.8994,2.9012,3.0026,3.1054,3.1916,3.2871,3.4559,3.613,3.7202,3.8071,3.8581,3.9039,3.9453,3.9689,3.9844,4.0215,4.063,4.1343,3.8855,3.7901,3.8949,3.9227,3.8863,3.8677,3.8571,3.8349,3.7581,3.6833,3.6613,3.6679,3.637,3.5925,3.5576,3.5369,3.4988,3.4958,3.5098,3.5081,3.4951,3.4827,3.4405,3.3846,3.3141,3.2052,3.1738,3.1871,3.2369,3.1436,3.1641,3.1718,3.1108,3.0321,2.9948,2.9697,3.0016,3.0703,3.1196,3.1845,3.2404,3.2315,3.2226,3.217,3.1838,3.1682,3.1682,3.1625,3.1582,3.1582,3.1524,3.1524,3.1467,3.1467,3.1467,3.1682,3.1758,3.1627,3.0773,3.0434,3.0505,3.0005,2.9335,2.9042,2.9036,2.8713,2.8475,2.888,2.9033,2.9347,2.9888,2.9809,3.0224,3.0427,3.0112,3.0107,3.0299,3.016,2.9916,2.9737,2.9424,2.9012,2.8905,2.8905,2.8863,2.8929,2.8994,2.8994,2.8975,2.8975,2.8975,2.8975,2.8975,2.8975,2.8975,2.8975,2.8994,2.9145,2.9365,3.0228,3.1182,3.221,3.3752,3.5679,3.704,3.7911,3.8385,3.8683,3.9021,3.9346,3.9446,3.9474,4.0123,4.0592,4.1391,3.9289,3.9069,3.9043,3.8365,3.737,3.8565,3.8359,3.7516,3.7468,3.7038,3.6173,3.571,3.5194,3.4703,3.4317,3.4071,3.3987,3.3887,3.4087,3.4447,3.4252,3.4137,3.4105,3.3826,3.3118,3.347,3.2784,3.2459,3.3042,3.2107,3.1911,3.1581,3.0914,3.0376,3.0338,3.0337,3.0751,3.1309,3.1321,3.1772,3.2129,3.189,3.1724,3.164,3.1582,3.1467,3.1467,3.1467,3.1467,3.1467,3.1467,3.1467,3.1467,3.1467,3.1467,3.1524,3.1524,3.0979,2.9816,2.9593,2.94,2.939,2.8846,2.8748,2.8936,2.8665,2.8436,2.9036,2.9145,2.9275,2.9499,2.9761,3.0489,3.0756,3.0427,3.0437,3.0631,3.0654,3.0409,3.0414,2.9691,2.9067,2.8894,2.881,2.8767,2.8815,2.8929,2.897,2.8905,2.8887,2.8863,2.8975,2.8975,2.8975,2.8975,2.8975,2.903,2.92,2.9769,3.0687,3.1916,3.3238,3.4908,3.6798,3.7636,3.8191,3.8474,3.8701,3.8942,3.91,3.8913,3.9073,3.9779,4.0625,4.147,3.8083,3.7525,3.7739,3.6674,3.5277,3.6762,3.7352,3.7095,3.6505,3.5771,3.5019,3.4396,3.4137,3.3887,3.3735,3.3479,3.3531,3.3582,3.3836,3.3836,3.3598,3.3735,3.3684,3.3308,3.2729,3.2211,3.1889,3.1767,3.142,3.1515,3.1602,3.1242,3.0799,3.0301,2.9931,2.9919,3.0195,3.0746,3.0858,3.1112,3.1762,3.167,3.1497,3.1511,3.1511,3.1409,3.1409,3.1394,3.1409,3.1409,3.1409,3.1467,3.1467,3.1467,3.1482,3.1467,3.1437,3.0926,2.9693,2.8961,2.8477,2.8545,2.8607,2.8616,2.9134,2.8656,2.8813,2.9204,2.9252,2.9471,2.9909,3.0455,3.0991,3.1062,3.0962,3.1146,3.1272,3.1111,3.0962,3.1199,3.0873,3.01,2.971,2.9088,2.8856,2.8676,2.8766,2.8634,2.8569,2.8608,2.8615,2.8887,2.8975,2.8975,2.8994,2.92,2.9457,2.9732,3.0411,3.1329,3.2651,3.4284,3.5661,3.7331,3.79,3.8377,3.856,3.8707,3.8719,3.878,3.883,3.935,4.0322,4.102,4.1607,3.7345,3.6898,3.6852,3.5871,3.4611,3.561,3.6106,3.5751,3.488,3.4244,3.4007,3.3483,3.3235,3.3182,3.2971,3.2864,3.2864,3.2864,3.313,3.313,3.2917,3.3024,3.2933,3.2625,3.2103,3.1469,3.1172,3.0953,3.1099,3.0896,3.0919,3.0909,3.0659,3.0305,2.9989,3.0052,3.0318,3.0874,3.1237,3.1732,3.2122,3.2108,3.1913,3.1722,3.1471,3.1014,3.1087,3.1087,3.1102,3.1176,3.1292,3.1409,3.1467,3.1467,3.1351,3.1204,3.0192,2.9781,2.8954,2.7927,2.767,2.8061,2.8189,2.8511,2.8872,2.8584,2.8766,2.9065,2.9284,2.9417,2.9681,3.0401,3.0918,3.0942,3.1179,3.1325,3.1379,3.1167,3.1049,3.1385,3.1286,3.0722,3.0331,2.9607,2.8995,2.8782,2.8587,2.8439,2.8344,2.8532,2.868,2.8919,2.9208,2.931,2.942,2.9567,2.9861,3.0228,3.1237,3.2375,3.3972,3.5661,3.6762,3.7661,3.8157,3.8542,3.8634,3.8707,3.8719,3.8885,3.9074,3.9845,4.091,4.1423,4.1791,3.7117,3.7023,3.6336,3.5677,3.5226,3.4795,3.4202,3.339,3.2919,3.3022,3.3427,3.2772,3.2586,3.2437,3.191,3.1682,3.1739,3.1739,3.2048,3.2256,3.2089,3.2216,3.2216,3.1951,3.1705,3.158,3.1362,3.1185,3.1364,3.0852,3.0542,3.0375,3.0168,3.0021,3.0071,3.0221,3.0601,3.1161,3.2034,3.2242,3.2323,3.245,3.2121,3.1777,3.1163,3.0614,3.0452,3.038,3.0294,3.0493,3.0851,3.1161,3.1351,3.1424,3.0911,3.0026,2.8422,2.8165,2.8182,2.7295,2.7151,2.766,2.771,2.7993,2.8304,2.8466,2.8498,2.8738,2.8914,2.8766,2.8849,2.9695,3.0493,3.0699,3.1015,3.1106,3.1138,3.1048,3.0923,3.0868,3.0737,3.0432,3.0373,2.9832,2.9278,2.9112,2.8876,2.86,2.8601,2.8844,2.9008,2.9176,2.946,2.969,2.9861,3.0167,3.0723,3.1219,3.2669,3.3935,3.5514,3.6688,3.7533,3.8175,3.8505,3.8707,3.8707,3.8707,3.8707,3.8909,3.9184,3.9974,4.0946,4.1387,4.1846,3.5908,3.5797,3.4775,3.3989,3.324,3.1858,3.1738,3.2719,3.2635,3.2486,3.2089,3.1894,3.1838,3.1796,3.1582,3.1467,3.1467,3.1524,3.164,3.164,3.1625,3.1682,3.1625,3.1567,3.1467,3.1467,3.1351,3.1043,3.0569,3.0194,2.9752,2.938,2.938,2.9575,2.9785,2.9968,3.0568,3.1261,3.2338,3.2455,3.2234,3.2139,3.1818,3.1304,3.0825,3.0322,3.0043,2.9973,2.9834,2.9645,2.9685,2.978,2.969,2.9704,2.9504,2.9316,2.8191,2.7547,2.794,2.7147,2.6774,2.7306,2.7509,2.7944,2.8189,2.8207,2.8115,2.8357,2.8545,2.8466,2.8767,2.9496,3.0166,3.0518,3.0838,3.11,3.1167,3.1206,3.1072,3.1042,3.087,3.0727,3.0622,3.014,2.966,2.9472,2.9282,2.9059,2.8904,2.9171,2.9254,2.9436,2.9863,3.0163,3.0643,3.1016,3.1653,3.2394,3.3826,3.508,3.6135,3.7179,3.8108,3.8579,3.867,3.8707,3.8707,3.8707,3.8726,3.8982,3.9313,4.0139,4.0891,4.1442,4.2066,3.4667,3.4525,3.3601,3.2826,3.2023,3.0895,3.1117,3.1967,3.1625,3.1364,3.1452,3.1146,3.1014,3.0955,3.0644,3.0584,3.097,3.0955,3.1146,3.1524,3.1409,3.1524,3.1467,3.1146,3.0955,3.097,3.0658,3.0147,2.969,2.9303,2.8939,2.8505,2.8492,2.8779,2.9211,2.959,3.0078,3.0912,3.1712,3.2141,3.2146,3.1808,3.1374,3.0993,3.0541,2.9943,2.974,2.9673,2.9443,2.9209,2.9206,2.9361,2.9151,2.8926,2.8505,2.8224,2.6996,2.6668,2.6868,2.6512,2.6562,2.693,2.7188,2.7494,2.7745,2.7845,2.7879,2.8046,2.811,2.8288,2.8841,2.939,2.9892,3.0377,3.0781,3.1151,3.1274,3.1393,3.1439,3.1462,3.1386,3.1218,3.0905,3.0401,3.0172,3.0287,3.0299,3.0173,2.9809,2.9625,2.9624,2.962,3.0172,3.0694,3.1238,3.1847,3.2591,3.3499,3.4891,3.6048,3.69,3.7571,3.8383,3.8634,3.8689,3.8658,3.8596,3.8695,3.8799,3.9098,3.9667,4.0602,4.1317,4.1827,4.2506,3.3531,3.3479,3.2772,3.2099,3.1435,3.12,3.123,3.1215,3.0045,3.019,3.1013,3.0524,3.0194,3.0072,2.9642,2.9704,3.0025,3.0208,3.045,3.1278,3.0955,3.0896,3.0777,3.0584,3.0269,2.9889,2.9642,2.9317,2.8939,2.8556,2.8051,2.7617,2.7617,2.7958,2.8615,2.8983,2.9627,3.0663,3.1249,3.158,3.2389,3.2194,3.1472,3.1137,3.0277,2.9424,2.9345,2.939,2.9377,2.9406,2.9428,2.9455,2.8958,2.8279,2.7736,2.7118,2.6,2.5866,2.5935,2.5646,2.5841,2.6122,2.6457,2.6826,2.7137,2.7357,2.7393,2.771,2.7845,2.8042,2.8496,2.895,2.9406,2.9935,3.0393,3.074,3.0942,3.11,3.1334,3.1338,3.1325,3.1233,3.1162,3.0687,3.0657,3.0946,3.0992,3.0903,3.0696,3.0242,3.0145,3.0073,3.0773,3.141,3.1793,3.2481,3.3462,3.4569,3.5792,3.675,3.737,3.7981,3.8603,3.8578,3.8496,3.8483,3.8451,3.8469,3.8707,3.941,4.0068,4.1137,4.1812,4.2268,4.2745,3.2841,3.2803,3.2064,3.1354,3.072,3.0089,2.9871,2.9725,2.8834,2.9223,3.0228,2.9752,2.9303,2.9254,2.9002,2.9002,2.9192,2.9331,2.9456,2.969,2.9752,2.995,2.9704,2.9518,2.9317,2.9254,2.9002,2.8271,2.7749,2.7324,2.7027,2.6782,2.6807,2.7176,2.8163,2.8579,2.9194,3.049,3.0485,3.0598,3.0939,3.1336,3.1029,3.0436,2.958,2.9201,2.9074,2.891,2.873,2.8545,2.849,2.8299,2.7888,2.7143,2.682,2.6523,2.5385,2.5205,2.5058,2.4912,2.4932,2.5329,2.5728,2.6108,2.6443,2.6669,2.6982,2.7357,2.766,2.7894,2.8125,2.8543,2.8966,2.954,3.0081,3.0335,3.0559,3.0878,3.1151,3.119,3.119,3.119,3.119,3.119,3.119,3.1173,3.114,3.1123,3.105,3.0802,3.0945,3.1009,3.1617,3.2181,3.2494,3.2891,3.3741,3.4747,3.581,3.6789,3.7716,3.8147,3.8465,3.8332,3.8249,3.815,3.805,3.7964,3.8377,3.9381,4.0156,4.1063,4.2127,4.2727,4.3075,3.1662,3.1561,3.093,3.025,2.9616,2.9363,2.8984,2.8401,2.8009,2.822,2.8768,2.8534,2.8427,2.8298,2.8051,2.8247,2.8363,2.8441,2.8812,2.8925,2.8798,2.9052,2.8876,2.8414,2.8063,2.7933,2.6819,2.6083,2.5983,2.5591,2.5205,2.5734,2.5947,2.6532,2.7801,2.8185,2.8859,3.0405,2.9896,2.9702,2.9714,3.0126,2.9999,2.9353,2.8954,2.8614,2.8083,2.7915,2.8004,2.7797,2.7742,2.6698,2.6287,2.5861,2.5484,2.5002,2.4396,2.4128,2.3991,2.3946,2.3904,2.4284,2.4838,2.5231,2.5837,2.6108,2.6707,2.7086,2.7509,2.776,2.7959,2.8286,2.8873,2.9406,2.9978,3.0435,3.074,3.1072,3.119,3.119,3.119,3.119,3.119,3.119,3.1134,3.0821,3.0878,3.0918,3.0935,3.1072,3.1274,3.1507,3.1914,3.2441,3.2739,3.3208,3.3821,3.4839,3.5825,3.6628,3.7434,3.7928,3.8249,3.7946,3.7738,3.7667,3.7578,3.747,3.8474,3.9661,4.0274,4.0871,4.201,4.3149,4.3497,3.0406,3.0171,2.964,2.8913,2.8282,2.861,2.8158,2.7171,2.7086,2.6922,2.675,2.7066,2.7274,2.7284,2.6918,2.7175,2.7364,2.755,2.8051,2.8011,2.8141,2.7578,2.7313,2.7272,2.6574,2.5738,2.4767,2.4279,2.4013,2.3963,2.4264,2.4719,2.5302,2.5901,2.7237,2.7915,2.8325,2.8889,2.8949,2.9131,2.9378,2.9546,2.9015,2.8426,2.7855,2.7371,2.6789,2.6707,2.7105,2.7092,2.6924,2.6007,2.5235,2.4982,2.4186,2.3734,2.3384,2.2756,2.2243,2.2613,2.2763,2.3144,2.3728,2.4394,2.505,2.555,2.6162,2.6811,2.724,2.761,2.781,2.8042,2.8638,2.9134,2.9761,3.0393,3.0757,3.1015,3.1015,3.1015,3.1015,3.0998,3.1055,3.1055,3.0878,3.0559,3.0435,3.0477,3.0576,3.0757,3.0982,3.1196,3.1449,3.2032,3.2697,3.3313,3.3825,3.4726,3.5658,3.6418,3.7097,3.7542,3.7667,3.7285,3.7135,3.7173,3.7058,3.6943,3.8229,3.9659,4.0056,4.0635,4.241,4.3442,4.3864,2.9829,2.8795,2.8679,2.7897,2.6888,2.6739,2.625,2.5453,2.4668,2.4591,2.5031,2.5061,2.5494,2.6701,2.6589,2.6714,2.685,2.6769,2.6139,2.5824,2.6121,2.5484,2.5051,2.5109,2.4362,2.3868,2.3576,2.3503,2.2925,2.3158,2.3526,2.3818,2.4671,2.5151,2.5516,2.627,2.7097,2.7505,2.7476,2.7557,2.7626,2.7867,2.8347,2.7855,2.7209,2.6883,2.6472,2.6483,2.6648,2.6538,2.6131,2.5397,2.4725,2.4178,2.353,2.2655,2.2329,2.1778,2.1461,2.1713,2.199,2.22,2.2907,2.3767,2.4266,2.4624,2.5398,2.6336,2.6864,2.7458,2.7675,2.771,2.8125,2.8543,2.9042,2.9805,3.0393,3.0393,3.0335,3.0335,3.0293,3.0393,3.0576,3.0518,3.0393,3.0107,2.9848,2.9892,3.0081,3.0335,3.0617,3.0878,3.1055,3.1647,3.2315,3.311,3.3768,3.4677,3.5521,3.6255,3.6843,3.7152,3.7114,3.6724,3.6724,3.6803,3.6643,3.6502,3.7772,3.9071,3.9491,4.0352,4.2287,4.3432,4.3634]}]]